GFSNW_prec_cloud_003.txt.gz
Cloud_Cover
100 100 100 100 100 100 87 99 34 5 5 5 5 5 5 1 5 1 1 0 0 0 5 5 5 5 0 0 0 0 0 0 0 0 0 0 0 3 0 0 2 4 2 2
100 100 100 100 96 80 62 60 82 10 5 6 5 48 5 5 5 0 0 0 0 0 5 5 5 5 5 0 0 2 0 0 0 0 0 5 1 4 1 1 5 5 54 24
100 100 100 100 100 92 95 85 46 56 5 62 54 53 56 5 5 0 0 0 0 1 5 3 5 5 0 0 0 5 5 4 5 5 5 5 34 13 5 19 26 54 22 100
100 100 100 100 100 59 74 79 40 84 8 38 5 44 68 80 15 5 4 5 0 5 0 0 0 1 0 0 0 0 0 0 0 0 0 5 6 30 6 5 20 64 18 100
100 100 100 100 100 97 9 73 100 76 8 5 5 5 72 74 46 5 5 5 2 0 0 0 0 0 0 0 0 0 1 4 5 0 0 0 0 5 4 5 12 6 98 96
100 100 100 100 100 100 24 27 100 99 19 6 5 5 53 30 39 10 5 5 5 5 3 0 0 0 1 1 5 5 2 3 5 5 7 4 5 30 5 58 86 71 100 100
100 100 100 100 100 100 100 11 69 100 100 5 5 5 12 52 5 5 5 5 5 5 5 5 3 5 5 5 5 5 5 3 47 52 86 50 24 19 24 19 5 40 100 98
100 100 100 100 100 100 100 98 73 100 98 90 6 23 12 46 5 5 6 26 44 62 5 8 15 25 76 48 5 5 2 15 45 90 5 51 21 5 5 5 3 14 60 40
100 100 100 100 100 100 100 100 100 90 79 98 100 100 100 54 46 7 35 57 58 19 5 39 95 10 5 5 5 3 0 13 5 61 54 59 12 78 5 5 42 44 74 20
100 100 100 100 100 100 100 100 100 98 99 100 98 100 100 100 100 100 100 99 92 85 76 92 95 5 5 5 28 72 64 94 72 98 78 16 25 5 4 32 42 36 5 7
100 100 100 100 100 100 100 100 100 100 93 93 100 95 6 7 67 100 100 100 100 100 100 97 49 97 5 5 5 4 29 30 77 76 92 74 28 93 51 91 96 33 10 94
100 100 100 100 100 100 100 100 100 100 100 100 99 100 100 100 100 100 100 100 100 100 100 100 74 97 89 25 5 5 5 7 33 78 48 99 100 100 88 100 96 65 100 100
100 100 100 100 100 100 100 100 100 100 100 100 100 100 100 100 100 100 43 16 78 8 5 6 82 100 6 98 5 11 7 13 81 24 35 100 51 99 100 89 100 16 66 100
100 100 100 100 100 100 100 100 99 82 100 100 100 100 100 100 100 100 18 47 61 44 51 98 100 100 5 77 5 52 27 5 20 84 44 71 7 79 99 57 86 95 99 94
100 100 100 100 100 100 100 100 100 91 97 89 100 100 100 100 100 86 84 78 54 95 100 100 81 5 8 70 41 97 94 5 25 52 61 51 88 84 100 100 100 98 28 32
100 99 100 100 100 100 100 100 100 100 100 100 100 100 100 100 100 99 100 100 100 100 99 88 24 49 31 100 68 100 100 55 6 60 46 32 98 99 100 99 74 6 5 10
100 100 100 100 99 100 87 84 100 100 96 100 100 70 55 100 100 100 100 100 100 100 66 94 94 68 22 100 50 100 32 100 96 84 72 26 98 100 95 80 80 21 80 11
100 100 100 100 100 99 50 76 99 96 100 100 98 89 82 100 100 100 100 100 100 100 51 69 95 75 64 100 100 55 47 37 33 12 25 74 60 46 100 80 28 25 91 100
100 100 100 100 100 100 100 100 100 100 99 81 100 100 97 99 100 100 100 100 100 99 100 100 64 100 95 100 97 40 45 28 60 60 86 98 99 65 54 92 96 100 88 8
100 100 100 100 100 100 100 100 100 100 100 100 100 100 100 100 100 100 100 100 100 100 100 100 100 100 52 91 100 100 91 50 42 94 82 72 99 100 100 100 81 13 5 22
100 100 100 100 100 100 100 100 100 100 100 100 100 100 100 100 100 100 100 100 100 100 100 100 100 74 100 100 100 100 100 97 100 99 100 100 100 100 100 76 20 5 10 71
100 100 100 100 100 100 100 100 100 100 100 100 100 100 100 100 100 100 100 100 100 100 82 100 97 90 100 100 100 99 85 91 100 90 88 100 100 93 29 11 35 80 93 60
100 100 100 100 100 100 100 100 100 100 100 100 100 100 100 100 100 100 100 100 100 100 100 69 68 89 100 100 99 96 61 56 12 55 80 100 100 100 93 84 86 59 13 15
100 100 100 100 100 100 100 100 100 100 100 100 100 100 100 100 100 100 100 100 100 100 100 91 100 99 95 99 98 100 68 43 49 99 100 100 100 78 62 97 40 12 22 100
100 100 100 100 100 100 100 100 100 100 100 100 100 100 100 100 100 100 100 100 100 98 96 100 100 100 100 100 100 98 60 76 87 72 54 81 71 74 66 89 91 95 100 100
100 100 100 100 100 100 100 100 100 100 100 100 100 100 100 100 100 100 100 100 99 100 100 100 100 100 100 100 81 32 80 99 94 98 99 100 77 53 58 88 88 100 100 98
100 100 100 100 100 100 100 100 100 100 100 100 100 100 100 100 100 100 100 100 100 100 100 100 100 100 99 67 98 100 100 100 100 77 67 82 90 100 100 100 99 99 17 89

GFSNW_prec_cloud_006.txt.gz
Cloud_Cover
100 100 100 100 100 100 100 100 80 42 36 34 16 22 5 5 0 2 3 1 0 5 5 5 5 5 5 0 0 0 0 0 0 0 0 0 0 1 5 2 5 5 3 0
100 100 100 100 100 100 100 49 50 6 49 5 28 39 5 1 0 5 5 2 0 4 5 5 18 5 5 5 5 0 0 0 0 0 2 2 0 4 5 5 0 0 39 8
100 100 100 100 100 100 100 100 25 14 23 58 52 5 5 5 2 5 5 3 1 5 5 5 5 5 5 5 5 5 0 0 0 3 4 5 5 5 5 5 5 5 2 13
100 100 94 100 100 100 68 78 8 40 91 15 11 5 5 52 5 5 5 1 5 5 5 5 5 2 1 3 2 0 0 0 0 0 0 0 0 0 0 5 12 80 6 68
100 100 100 100 100 100 67 70 98 8 56 5 5 5 30 57 28 5 5 5 5 5 3 5 5 0 0 0 0 0 0 5 4 0 0 0 0 0 0 0 13 7 27 48
100 100 100 100 100 100 83 44 34 16 24 17 6 9 5 6 16 5 5 5 5 5 5 5 5 0 0 0 2 1 1 5 5 4 1 1 3 5 5 4 81 6 77 40
100 100 100 100 100 100 100 39 12 65 39 53 28 5 5 23 5 5 5 5 7 20 5 5 5 5 3 0 2 4 0 0 28 8 40 20 5 5 4 5 37 21 92 100
100 100 100 100 100 100 100 100 16 11 100 22 82 6 10 29 5 5 6 5 5 8 72 58 16 15 5 5 5 5 4 0 31 74 5 5 1 6 6 2 0 4 6 6
100 100 100 100 100 100 100 100 100 58 70 34 100 36 8 5 5 5 5 5 5 22 5 26 15 5 5 21 5 5 4 0 7 26 9 5 1 64 5 5 5 38 6 6
100 100 100 100 100 100 100 100 100 100 86 5 5 23 82 21 73 81 88 5 21 20 50 91 98 100 92 46 47 78 30 77 43 85 90 10 0 5 0 4 5 5 12 56
100 100 100 100 100 100 100 100 100 100 100 100 97 79 28 48 46 95 100 98 98 94 100 100 100 77 93 39 8 7 23 25 75 51 87 33 5 35 10 20 38 48 34 25
100 100 100 100 100 100 100 100 100 100 100 100 100 100 100 100 99 100 90 8 49 98 100 86 68 86 91 25 11 5 4 6 5 4 0 22 95 40 6 5 53 65 100 50
100 100 100 100 100 100 100 100 100 100 100 100 100 100 100 100 100 100 100 100 100 100 100 78 85 100 24 80 46 12 14 100 6 5 2 4 11 100 44 79 87 100 100 96
100 100 100 100 100 100 100 99 91 100 100 100 100 100 100 100 100 100 100 100 100 100 100 100 100 98 48 42 57 98 100 100 89 5 5 10 86 24 9 6 100 100 100 80
100 100 100 100 100 100 100 100 100 100 88 90 100 99 100 100 87 98 99 100 100 100 100 100 100 13 86 12 23 100 100 100 72 5 42 100 90 30 11 62 94 100 100 100
100 100 100 100 100 70 100 100 82 87 100 100 99 92 67 29 78 100 100 100 100 100 100 100 100 100 100 100 100 100 100 100 39 80 100 90 12 7 5 17 96 89 86 99
100 100 100 100 100 100 100 100 100 100 100 99 100 90 86 76 99 100 100 100 100 100 100 95 99 100 100 100 100 100 98 93 100 100 96 40 7 21 18 72 84 73 87 85
100 100 100 100 100 100 100 100 100 100 100 100 96 100 93 100 100 100 100 100 100 100 100 58 100 94 94 73 100 100 100 100 99 65 11 5 37 92 87 59 77 58 57 24
100 100 100 100 100 100 100 100 100 100 100 100 100 100 100 100 100 100 100 100 100 100 100 100 96 100 92 100 100 100 100 100 39 6 38 100 85 57 11 8 14 9 8 55
100 100 100 100 100 100 100 100 100 100 100 66 100 89 100 100 100 100 100 100 100 100 89 99 100 100 100 100 100 100 99 98 52 74 71 100 58 38 59 51 73 67 100 46
100 100 100 100 100 100 100 100 100 100 100 100 100 100 100 100 100 100 100 100 100 100 95 100 100 98 100 100 100 100 96 98 100 84 100 76 93 71 72 96 97 74 59 100
100 100 100 100 100 100 100 100 100 100 100 100 100 100 100 100 100 100 100 100 100 100 90 100 91 99 100 100 100 100 100 100 100 97 94 100 90 87 98 91 93 88 99 94
100 100 100 100 100 100 100 100 100 100 100 100 100 100 100 100 100 100 100 100 100 100 100 96 100 100 100 100 100 100 100 100 88 96 100 100 100 100 97 99 100 98 84 99
100 100 100 100 100 100 100 100 100 100 100 100 100 100 100 100 100 100 100 100 100 100 100 79 100 100 100 100 100 100 100 100 100 100 98 100 100 97 100 100 100 97 98 97
100 100 100 100 100 100 100 100 100 100 100 100 100 100 100 100 100 100 100 100 100 100 100 100 100 100 100 100 100 100 100 100 100 100 100 100 100 100 100 100 100 100 99 86
85 99 100 100 100 100 100 100 100 100 100 100 100 100 100 100 100 100 100 100 100 100 100 100 100 100 100 100 100 100 100 100 100 100 100 100 100 100 100 100 84 64 89 97
74 99 100 100 100 100 100 100 100 100 100 100 100 100 100 100 100 100 100 100 100 100 100 100 100 100 100 100 100 100 100 100 100 100 100 100 100 100 100 88 100 100 97 91

GFSNW_prec_cloud_009.txt.gz
Cloud_Cover
100 100 100 6 55 100 100 45 100 49 5 5 71 32 5 5 2 5 5 0 2 5 5 6 5 1 0 0 0 0 0 0 0 0 0 0 0 0 0 0 0 0 2 1
100 100 100 100 100 100 93 100 100 100 10 20 21 23 5 4 2 0 0 2 0 0 5 45 5 5 5 5 0 0 0 0 0 0 0 0 0 0 0 1 0 0 8 1
98 100 100 100 100 88 56 100 100 100 42 34 67 30 37 5 0 0 0 0 0 0 5 5 34 30 32 5 2 0 0 0 0 0 0 0 0 0 0 1 5 3 0 1
100 100 100 100 100 95 100 100 100 97 98 43 29 88 9 5 5 0 0 0 0 4 5 5 5 22 20 5 5 0 0 0 0 0 0 0 0 0 0 0 0 3 2 52
93 100 100 100 100 100 100 100 100 5 5 22 49 74 20 5 34 3 3 4 3 5 5 3 0 5 5 0 0 0 0 0 0 0 0 0 0 0 0 0 0 0 5 5
100 100 100 100 100 100 100 100 100 99 52 5 49 16 5 5 18 5 5 5 5 5 5 5 1 0 0 0 0 0 0 0 0 4 3 0 0 0 0 0 0 2 5 6
100 100 100 100 100 100 100 100 90 65 8 39 62 10 5 6 18 5 33 20 5 5 5 5 5 5 5 4 4 5 5 5 53 5 4 3 1 2 0 0 0 0 5 5
100 100 100 100 100 100 100 100 98 54 90 6 33 6 5 40 5 82 6 7 6 67 8 5 5 5 5 5 5 5 6 47 40 45 5 5 5 5 0 0 1 0 1 2
100 100 100 100 100 100 100 100 100 100 58 48 8 5 72 96 11 11 5 25 7 68 30 6 6 5 5 7 76 100 95 5 5 79 5 5 5 5 5 5 1 5 5 5
100 100 100 100 100 100 100 100 100 100 100 96 82 7 25 5 6 21 77 21 8 5 89 98 100 100 100 93 74 5 17 6 16 41 5 5 0 2 0 2 2 0 5 15
100 100 100 100 100 100 100 100 100 100 100 100 76 80 35 13 72 90 73 47 28 85 44 43 100 82 5 5 15 67 5 35 57 40 22 25 1 4 5 27 5 5 5 5
100 100 100 100 100 100 100 100 100 100 100 100 100 100 96 85 89 93 27 7 100 69 97 99 84 85 70 100 53 73 25 19 24 90 8 5 0 5 5 8 5 6 5 87
100 100 100 100 100 99 89 100 95 100 100 100 100 100 100 100 100 100 100 100 100 100 100 100 100 100 100 100 100 100 100 100 98 55 6 3 5 5 5 5 5 5 5 16
100 100 100 100 100 100 100 88 69 84 100 100 100 100 100 100 100 100 100 100 100 100 100 100 100 100 100 100 100 100 100 100 95 5 7 4 72 5 5 5 15 99 94 93
100 100 100 100 100 100 100 87 88 92 61 77 100 99 100 100 86 100 100 100 100 100 100 100 100 91 85 95 80 100 100 100 100 51 67 100 74 16 84 79 100 70 38 33
100 100 100 100 100 100 100 98 98 100 99 100 100 60 34 47 78 100 100 100 100 100 100 100 100 100 100 100 100 100 100 100 100 79 81 100 6 50 100 100 32 32 5 5
100 100 100 100 100 100 100 100 100 100 100 99 94 88 92 93 22 99 100 100 100 100 100 98 100 100 94 100 99 100 100 100 100 100 100 58 75 100 100 94 89 66 84 98
100 100 100 100 100 99 97 100 100 100 100 100 84 96 100 100 100 100 100 100 100 100 99 99 100 100 99 100 100 100 100 100 100 100 100 97 100 97 64 99 68 89 82 70
100 100 100 100 100 100 100 100 100 100 100 100 100 100 100 100 100 100 100 100 100 100 100 100 95 100 100 100 100 100 100 100 100 100 100 100 100 99 92 73 96 64 67 72
79 94 96 100 100 100 100 100 100 100 98 83 100 100 100 100 100 100 100 100 100 100 100 100 100 100 96 100 91 100 100 99 98 100 100 100 100 100 100 100 88 100 100 83
100 100 100 99 100 100 92 100 100 100 100 100 91 99 100 100 100 100 100 100 100 100 67 97 86 87 100 100 100 100 100 100 100 100 100 100 100 99 100 100 100 100 83 100
100 100 100 100 100 100 100 100 100 100 100 100 100 100 100 100 100 100 100 100 100 100 83 100 100 100 100 100 100 100 100 100 100 100 100 100 100 100 100 100 100 100 100 78
100 100 100 100 100 100 100 100 100 100 100 100 100 100 100 100 100 100 100 100 100 100 100 100 100 100 100 98 100 100 100 100 100 100 100 100 100 100 100 100 100 99 68 92
100 100 100 100 100 100 100 100 100 100 100 100 100 100 100 100 100 100 100 100 100 100 99 82 100 100 100 98 100 100 100 100 100 100 100 100 100 100 100 100 100 100 100 100
100 100 100 100 100 100 100 100 100 100 100 100 100 100 100 100 100 100 100 100 100 100 100 100 100 100 100 100 100 100 100 100 100 100 100 100 100 100 100 100 100 100 100 100
100 100 100 100 100 100 100 100 100 100 100 100 100 100 100 100 100 100 100 100 100 100 100 100 100 100 100 100 100 100 100 100 100 100 100 100 100 100 100 100 100 100 100 100
100 100 100 100 100 100 100 100 100 100 100 100 100 100 100 100 100 100 100 100 100 100 100 100 100 100 100 100 100 100 100 100 100 100 100 100 100 100 100 100 100 100 100 100

GFSNW_prec_cloud_012.txt.gz
Cloud_Cover
100 100 100 100 80 5 11 95 100 97 64 29 66 66 45 6 5 4 0 0 0 5 5 0 0 0 0 4 0 0 0 2 0 0 0 0 0 0 0 0 0 0 4 1
100 100 100 100 87 12 56 100 99 83 18 58 58 51 42 8 5 5 5 0 0 0 5 0 4 2 0 0 1 4 5 3 0 0 0 0 1 4 2 0 0 0 0 0
100 100 100 100 100 5 5 100 66 44 24 16 7 5 22 5 3 3 5 5 0 1 5 5 5 58 6 5 5 5 2 0 0 0 0 0 0 4 5 5 5 5 2 0
100 100 100 100 6 5 58 100 87 64 79 52 30 5 5 5 5 0 0 0 0 5 5 7 6 22 5 5 2 0 0 0 0 0 0 1 5 0 0 0 2 3 0 0
100 100 100 100 6 56 43 91 84 98 8 5 5 8 26 5 5 5 2 5 5 5 5 1 4 5 5 2 0 0 0 0 0 0 0 1 0 0 0 0 0 0 0 0
100 100 100 100 100 99 40 47 87 100 100 7 84 70 5 6 10 45 5 5 2 4 2 5 5 5 5 5 5 5 0 0 1 5 5 0 3 1 0 0 0 0 0 0
100 100 100 100 100 100 88 99 58 100 100 95 65 5 5 5 56 100 45 5 5 5 5 5 5 33 12 8 5 5 5 5 44 5 5 5 5 4 0 1 0 0 1 0
100 100 100 100 100 100 100 100 100 100 100 59 21 5 86 37 14 79 6 18 43 5 14 9 76 77 100 56 51 18 13 20 90 55 5 5 5 5 5 5 20 5 5 1
100 100 99 31 100 100 100 100 100 100 100 14 6 7 100 100 49 98 30 7 64 40 18 81 93 72 20 25 50 43 86 96 17 86 5 5 6 7 47 53 77 25 99 100
100 100 93 99 100 100 100 100 100 100 100 12 8 6 81 100 73 5 6 10 38 19 32 39 71 8 27 64 62 32 8 10 79 71 18 69 11 10 14 17 5 5 11 100
100 100 100 100 100 100 100 100 100 100 100 100 69 72 100 86 74 17 5 5 36 86 67 83 93 98 32 57 52 83 78 85 99 99 100 100 58 11 52 8 5 5 76 100
100 100 100 100 100 100 100 100 100 100 100 100 100 100 100 98 100 100 63 28 96 89 100 84 88 100 90 100 100 100 100 100 100 100 100 100 100 99 14 5 58 100 100 35
100 100 100 100 100 100 100 100 100 100 100 100 100 100 100 100 100 100 98 100 100 100 100 100 100 100 100 100 100 100 100 100 100 95 100 100 41 95 53 42 100 98 67 36
100 100 100 100 100 100 100 100 100 100 100 100 100 100 100 100 100 100 100 100 100 100 100 100 100 100 100 100 100 100 100 100 86 5 46 5 94 61 35 9 68 96 98 90
100 100 100 100 100 100 100 100 100 100 100 100 100 100 100 100 100 100 100 100 100 100 100 100 100 100 100 100 100 100 100 100 8 5 5 5 44 10 5 50 100 100 99 100
100 100 100 100 100 100 80 95 97 95 100 100 100 91 83 45 95 96 99 99 100 100 100 100 100 100 86 100 100 100 100 100 78 71 95 100 100 100 100 100 100 88 98 50
100 100 100 100 100 100 100 100 100 100 87 89 93 77 94 100 100 100 100 98 91 85 84 100 95 100 100 100 100 100 100 100 100 100 100 100 100 100 100 100 100 100 83 90
100 100 100 100 94 91 61 92 100 100 100 100 93 89 100 100 100 100 100 100 100 98 41 82 100 92 97 100 100 100 100 100 100 100 100 100 100 100 100 100 100 100 100 82
100 100 87 71 84 88 94 100 100 97 58 94 100 100 100 100 100 100 100 100 100 92 99 93 44 100 83 100 100 88 100 100 100 100 100 100 100 100 100 100 100 100 100 100
66 72 62 98 100 100 100 98 100 100 100 100 100 100 100 100 100 100 100 100 100 100 70 100 100 100 100 100 100 100 100 100 100 95 69 62 100 100 100 100 100 99 100 100
96 94 100 98 69 51 90 96 100 97 100 100 100 100 100 100 100 100 100 100 100 100 97 100 69 100 100 100 100 100 80 100 100 100 100 100 100 100 100 100 100 100 100 100
88 87 100 100 80 96 100 97 100 100 100 100 100 100 100 100 100 100 100 100 100 100 100 100 100 100 100 100 100 100 100 100 100 100 100 100 100 100 100 100 100 100 100 92
100 100 100 100 100 100 100 100 100 100 100 100 100 100 100 100 100 100 100 100 100 100 100 100 90 100 100 100 100 100 100 100 100 100 100 100 100 100 100 100 100 100 100 100
100 100 100 100 99 100 100 100 100 100 100 100 100 100 100 100 100 100 100 100 100 100 100 92 100 100 100 100 100 100 100 100 100 100 100 100 100 100 100 100 100 100 100 100
100 100 100 100 100 100 100 100 100 100 100 100 100 100 100 100 100 100 100 100 100 100 100 100 100 100 100 100 100 100 100 100 100 100 100 100 100 100 100 100 100 100 97 100
100 100 100 100 100 100 100 100 100 100 100 100 100 100 100 100 100 100 100 100 100 100 100 100 100 100 100 100 100 100 100 100 100 100 100 100 100 100 100 100 100 100 100 100
100 100 100 100 100 100 100 100 100 100 100 100 100 100 100 100 100 100 100 100 100 100 100 100 100 100 100 100 100 100 100 100 100 100 100 100 100 100 100 100 100 100 100 100

GFSNW_prec_cloud_015.txt.gz
Cloud_Cover
67 88 100 63 100 100 26 5 34 5 6 48 28 46 55 81 55 36 5 5 5 4 5 0 0 0 0 0 0 0 0 0 0 0 0 0 0 3 0 0 0 0 4 1
94 100 100 100 100 100 41 86 36 12 69 57 70 62 60 85 68 7 5 2 0 0 5 0 0 0 0 0 0 0 0 0 3 5 5 5 2 0 0 0 1 0 1 0
96 100 100 100 100 100 18 33 5 59 41 37 40 49 65 78 30 17 5 5 0 2 4 0 4 3 0 0 0 2 3 5 5 5 5 5 0 5 1 0 0 0 0 0
100 100 100 100 100 62 13 72 83 98 91 95 98 79 90 85 66 33 5 5 5 5 5 4 5 4 5 5 5 7 16 11 2 0 1 0 1 0 0 0 4 4 5 5
100 100 100 100 100 5 86 100 100 88 9 5 9 44 76 74 52 16 94 5 5 1 0 0 5 1 5 5 5 5 3 4 5 5 0 0 0 0 3 5 5 5 5 5
100 100 100 100 63 6 84 100 100 95 76 82 81 55 84 50 38 26 9 5 5 5 5 5 0 5 5 5 5 5 13 12 5 5 5 5 5 5 5 5 5 5 5 9
100 100 100 100 19 99 100 100 100 100 84 76 20 5 42 90 94 57 21 5 5 5 10 5 4 3 4 5 20 14 42 33 20 5 5 54 19 27 5 5 5 5 27 6
100 100 100 88 90 83 98 91 100 100 99 92 6 62 86 98 98 84 33 5 38 18 5 5 5 5 5 11 31 42 17 8 60 8 10 9 99 85 5 5 52 5 5 5
100 100 100 97 86 9 100 96 100 100 100 28 93 49 95 95 24 53 33 30 21 22 18 5 5 26 62 76 98 42 14 13 6 78 5 6 100 79 9 5 98 81 27 16
100 100 100 100 100 100 100 100 88 38 93 84 100 100 100 95 22 26 14 6 61 86 89 88 88 59 54 72 47 10 30 30 5 85 16 96 100 100 93 99 100 100 100 100
100 100 100 100 100 100 100 100 59 39 72 98 100 100 100 100 48 5 5 5 26 33 71 83 71 51 61 99 100 100 96 56 68 98 100 100 100 100 87 100 100 68 100 100
100 100 100 100 100 100 100 100 100 80 96 100 100 100 100 99 43 96 86 79 51 5 6 34 59 100 65 87 88 100 100 100 100 100 100 100 98 16 97 89 10 58 89 100
100 100 100 100 100 99 100 100 100 100 100 100 100 100 100 100 100 98 97 81 62 41 29 49 45 36 86 100 100 100 100 100 100 100 100 100 12 94 100 63 100 38 100 100
100 100 100 100 100 100 100 100 100 100 100 100 100 100 100 100 100 100 100 100 100 100 100 100 100 100 100 100 100 100 100 100 100 87 95 5 90 100 100 100 77 100 100 100
100 100 100 100 100 100 100 100 100 100 100 100 100 100 100 100 100 100 100 100 100 100 100 100 100 67 78 92 97 100 100 100 13 5 5 8 96 100 98 76 100 84 77 94
100 100 100 100 100 100 100 100 100 100 100 100 100 100 100 100 100 100 100 100 100 100 100 100 76 100 59 100 100 100 100 67 5 5 65 97 87 54 54 80 98 100 100 93
100 100 100 100 100 100 100 100 100 100 100 100 100 100 100 100 100 100 100 100 100 99 100 99 94 100 51 98 100 100 100 100 98 72 68 58 100 82 100 100 100 100 100 100
100 100 100 100 100 100 100 100 100 100 100 100 85 97 100 100 100 100 100 100 86 74 67 100 100 96 99 100 100 100 100 100 100 100 100 100 100 100 100 100 100 100 100 100
100 100 100 100 100 100 100 100 100 100 100 100 100 100 100 100 100 100 100 100 100 100 100 100 73 100 100 100 100 100 100 100 100 100 100 100 100 100 100 100 100 99 100 100
100 100 100 98 100 93 58 59 18 88 81 94 100 91 78 100 100 100 100 100 100 99 69 100 100 100 99 100 100 100 100 100 100 100 100 100 100 100 92 100 100 100 100 99
100 100 100 100 100 100 100 100 100 100 100 100 100 100 100 100 100 100 100 100 100 100 84 100 99 99 100 100 100 100 100 100 98 85 79 100 100 100 100 100 100 100 100 100
100 100 100 100 100 100 89 98 98 100 100 100 100 100 100 100 100 100 100 100 100 100 100 100 100 97 98 94 88 96 100 100 100 100 100 100 100 100 100 100 100 100 100 100
100 100 100 99 70 89 97 100 100 100 100 100 100 100 100 100 100 100 100 100 100 96 100 100 100 100 100 100 100 100 100 100 100 100 100 100 100 100 100 100 100 100 100 100
100 100 100 100 100 100 100 100 100 100 100 100 100 100 100 100 100 100 100 100 100 100 98 98 100 100 100 100 100 100 100 100 100 100 100 100 100 100 100 100 100 100 100 100
100 86 93 95 100 100 100 100 100 100 100 100 100 100 100 100 100 100 100 100 97 80 85 100 100 100 100 100 100 100 100 100 100 100 100 100 100 100 100 100 100 100 100 100
97 99 100 100 100 100 100 100 100 100 100 100 100 100 100 100 100 100 100 100 99 82 100 100 100 100 100 100 100 83 100 100 99 100 100 100 100 100 100 100 100 100 100 100
100 100 100 96 87 100 100 100 100 100 100 100 100 97 100 100 100 100 100 100 100 100 100 100 100 100 100 100 100 100 100 100 100 100 100 100 100 100 100 100 100 100 100 100

GFSNW_prec_cloud_021.txt.gz
Cloud_Cover
100 71 100 100 100 100 92 5 15 29 100 99 82 5 5 0 5 5 5 2 5 0 0 0 0 0 0 0 0 0 0 0 0 0 0 0 0 0 0 0 0 1 0 0
100 99 15 75 100 23 14 5 94 35 100 100 44 5 5 5 5 5 4 5 0 0 2 2 0 0 0 0 0 0 0 0 0 0 0 0 0 0 1 2 0 0 1 1
100 57 0 5 100 78 58 19 38 76 100 99 6 5 5 5 5 27 5 5 0 0 0 3 4 0 0 0 0 0 0 0 0 0 0 2 5 5 3 0 0 0 2 19
100 8 0 0 78 32 7 3 11 100 100 26 45 6 5 5 5 72 56 5 0 4 4 5 5 5 4 5 0 1 1 0 0 2 5 5 5 5 4 4 0 5 30 51
100 1 2 0 12 12 7 5 11 100 100 29 62 10 53 6 49 51 60 47 5 5 5 4 5 4 1 4 5 5 5 5 5 5 38 8 84 23 5 5 5 5 5 38
100 52 4 5 28 4 4 3 99 100 100 5 6 5 42 38 81 71 34 5 5 5 5 4 1 5 5 6 25 14 23 20 29 79 10 53 100 30 5 5 5 5 5 7
100 100 78 87 53 3 74 68 100 100 22 5 53 21 21 5 62 34 5 5 5 5 5 5 5 14 24 53 70 63 12 5 19 57 5 77 88 98 9 4 5 5 5 4
100 100 100 100 94 99 100 100 100 100 10 40 14 5 10 6 58 26 5 5 5 5 5 5 5 5 5 5 41 30 5 5 8 5 5 67 100 92 99 5 9 4 4 23
100 100 100 100 100 100 100 100 100 82 5 35 6 5 8 62 6 26 39 7 14 26 5 5 5 18 9 18 7 5 5 5 5 5 9 71 100 100 7 5 32 25 99 100
100 100 100 100 100 100 100 100 96 66 28 5 5 12 42 41 10 10 12 8 5 48 22 36 39 35 21 80 70 39 68 71 43 46 16 78 64 5 8 84 93 100 100 98
100 100 100 100 100 100 100 100 46 58 24 5 5 70 65 25 16 8 13 5 5 5 16 56 9 54 79 100 75 38 8 28 18 21 10 5 5 22 79 76 95 66 9 5
100 100 100 100 100 100 100 96 96 100 5 52 52 68 6 5 5 34 5 5 9 31 5 5 5 61 88 49 94 99 99 88 16 54 10 1 5 5 56 100 100 18 5 5
100 100 100 100 100 100 100 100 50 61 54 31 74 87 13 25 30 30 6 25 9 5 7 20 62 11 46 76 56 88 98 23 73 24 99 97 100 100 77 5 5 5 5 5
100 100 100 100 100 100 100 100 86 39 6 62 97 82 63 67 43 42 70 56 22 34 76 99 68 17 66 82 73 100 100 100 100 100 100 98 86 35 5 5 7 10 5 15
100 100 100 100 100 100 100 100 98 49 14 41 100 44 64 96 100 100 100 100 100 100 100 100 100 100 96 100 100 100 100 100 100 65 48 5 8 8 19 26 40 26 22 29
100 100 100 100 100 100 100 100 100 97 82 71 89 88 80 98 100 100 100 100 100 100 100 100 97 98 45 74 68 100 100 100 45 5 5 5 5 5 5 5 6 75 70 49
100 100 100 100 100 100 100 100 100 100 85 47 60 77 85 99 96 100 100 86 63 55 99 100 100 100 100 100 100 100 100 99 27 5 5 5 5 6 19 30 40 47 46 51
100 100 100 100 100 100 100 100 100 79 53 82 97 100 100 100 100 100 100 100 100 100 100 100 100 100 100 100 100 100 100 100 96 10 5 5 5 5 8 8 38 69 98 100
100 100 100 100 100 100 100 100 100 100 100 100 100 100 100 100 100 100 100 100 100 100 100 100 100 100 100 100 100 100 100 100 100 88 59 43 32 36 58 98 100 100 100 100
100 100 100 100 100 100 100 100 100 100 100 100 100 100 100 100 100 100 100 100 100 100 100 100 100 100 100 100 100 100 100 100 80 72 77 97 100 100 100 100 100 100 100 100
100 100 100 100 100 100 100 100 100 100 100 100 100 100 100 100 100 100 100 100 99 92 75 100 100 100 100 100 100 100 100 100 100 100 100 100 100 100 100 100 100 99 100 100
100 100 100 100 95 73 82 97 98 100 100 100 100 100 100 100 100 99 97 93 98 91 82 100 100 100 100 100 100 100 100 100 100 100 100 100 100 100 100 100 100 100 100 100
100 100 100 100 100 88 64 98 100 100 100 100 100 100 100 100 100 100 100 100 100 95 100 100 100 100 100 100 100 100 100 100 99 92 97 97 89 90 91 89 97 100 100 100
100 100 99 76 87 94 100 100 100 100 100 100 100 100 100 100 100 100 100 100 100 100 100 100 100 100 100 100 100 100 100 100 100 98 100 100 99 100 100 100 100 100 100 100
100 100 94 91 100 100 100 100 100 100 100 100 100 100 100 100 100 100 100 100 98 99 87 100 100 100 100 98 97 71 92 100 96 81 84 96 100 100 100 100 100 100 100 97
100 100 100 100 100 100 100 100 100 100 100 100 100 100 100 100 100 100 100 100 100 98 100 100 100 100 100 100 100 99 84 82 86 94 99 94 99 100 100 100 100 67 5 7
100 100 100 100 100 100 100 100 100 100 100 100 100 100 100 88 92 99 99 97 98 98 100 100 100 100 100 100 97 98 94 99 89 62 57 32 8 5 8 25 31 23 27 62

GFSNW_prec_cloud_024.txt.gz
Cloud_Cover
49 100 100 100 97 100 100 5 0 16 5 18 83 5 100 42 5 5 2 0 3 4 5 5 1 0 0 0 0 0 0 0 0 0 0 0 0 0 0 0 2 5 5 5
100 100 100 100 89 98 100 4 7 46 5 31 99 15 100 9 5 5 2 3 5 5 4 2 0 0 0 0 0 0 0 0 0 0 0 0 0 0 1 3 5 5 26 0
100 100 100 100 88 64 100 25 64 28 5 98 100 53 100 17 5 5 5 5 5 5 5 3 1 0 0 0 0 0 0 0 0 5 3 4 5 6 39 16 5 5 0 3
100 100 100 100 100 36 100 100 5 19 71 98 100 100 97 64 5 22 23 5 5 5 5 4 5 4 0 0 2 0 0 4 6 5 24 50 65 85 44 5 4 1 2 5
100 100 100 100 100 2 99 100 5 85 100 100 100 100 91 46 5 27 41 24 6 10 5 5 0 5 5 1 5 5 5 30 6 10 54 67 100 78 2 5 4 5 5 5
100 100 97 100 78 4 5 100 100 97 100 100 78 100 99 77 20 12 55 23 45 30 5 4 3 5 5 5 12 11 31 5 5 5 81 100 100 24 5 5 2 0 3 5
100 100 100 93 15 5 14 26 75 100 100 97 92 100 64 75 66 8 5 13 54 18 5 1 0 0 5 5 5 5 5 5 5 9 33 98 100 11 1 0 0 0 3 5
96 100 100 19 8 0 0 6 98 97 98 82 100 100 24 97 98 6 5 16 36 5 5 1 0 11 10 5 5 5 5 5 15 44 5 65 73 70 10 4 5 2 0 0
100 100 100 79 5 2 6 39 40 100 100 60 100 99 5 47 60 88 56 35 25 5 5 5 5 5 5 5 5 5 5 5 5 6 67 19 75 5 5 5 5 96 66 6
100 100 100 100 11 4 7 5 5 99 100 99 100 68 24 62 76 81 39 31 14 5 16 91 5 5 5 5 5 72 26 44 40 7 35 43 15 23 52 63 88 41 82 100
100 100 100 100 73 23 12 5 56 98 93 100 100 23 84 62 95 90 84 55 49 38 55 67 42 38 28 10 5 5 12 6 48 6 64 43 5 19 79 55 72 93 62 75
100 100 100 100 100 100 39 43 100 100 100 100 100 72 93 21 97 47 15 29 78 74 100 100 32 97 77 6 13 5 11 7 5 24 24 5 5 10 32 38 96 100 77 5
100 100 100 100 100 76 5 87 100 100 100 100 79 49 26 5 46 99 45 71 97 54 6 13 71 100 76 86 69 73 52 5 5 5 22 5 12 98 98 83 9 5 5 5
100 100 100 100 100 100 100 100 100 100 100 100 61 65 12 5 5 71 69 100 69 9 6 22 66 88 48 25 10 94 33 5 5 38 98 100 100 58 5 5 5 5 5 18
100 100 100 100 100 100 100 100 100 100 100 73 27 47 60 42 11 55 89 85 5 9 21 68 66 59 68 80 97 100 100 100 100 97 57 65 95 100 72 18 30 60 71 66
100 100 100 100 100 100 100 100 100 98 92 79 82 43 100 98 93 75 53 44 28 7 41 74 98 100 100 100 100 100 100 100 45 99 96 11 5 5 5 5 18 13 21 25
100 100 100 100 100 100 100 100 100 94 95 91 87 32 97 95 46 57 71 99 100 100 100 100 100 100 92 78 82 100 100 100 100 100 10 6 6 5 5 5 6 18 44 86
100 100 100 100 100 100 100 100 100 100 100 81 78 79 40 40 99 99 91 100 83 98 99 93 95 78 88 92 100 100 100 100 99 11 5 17 12 25 31 77 97 100 100 100
100 100 100 100 100 100 100 100 100 100 100 98 100 100 100 90 87 93 93 85 100 70 98 97 89 100 100 100 100 100 100 100 68 83 39 52 70 96 100 100 100 100 100 100
100 100 100 100 100 100 100 100 100 100 100 100 100 100 100 79 100 100 100 100 95 99 98 100 100 100 100 100 100 100 100 59 75 100 100 100 100 100 100 100 100 100 99 97
100 100 100 100 100 100 100 100 100 100 100 100 100 100 100 100 99 100 99 100 100 96 100 100 100 100 100 100 100 100 100 100 100 100 100 100 100 100 100 100 67 66 65 89
100 100 100 100 100 100 88 100 100 100 100 100 100 100 100 100 100 100 100 100 95 90 100 100 100 100 100 100 100 100 100 100 100 100 100 100 100 100 100 86 67 78 86 84
100 100 100 88 95 100 100 100 100 100 100 100 100 100 100 100 100 100 100 100 100 52 100 100 100 100 100 100 100 100 100 100 100 100 100 100 100 63 55 93 100 90 80 42
100 100 100 100 97 100 100 100 100 100 100 100 100 100 99 100 98 100 100 100 100 100 100 100 100 100 100 100 100 100 100 100 100 100 97 64 93 96 64 35 53 85 88 60
100 98 100 100 100 100 100 100 100 100 100 100 100 100 100 100 100 100 100 100 100 92 100 100 100 100 100 100 89 97 100 100 100 64 36 20 36 71 67 35 5 5 7 5
100 100 100 100 100 100 100 100 100 100 100 100 100 100 100 100 100 100 100 100 100 100 98 100 100 100 100 93 91 89 74 74 24 43 14 11 15 6 23 16 5 5 10 16
100 100 100 100 100 100 100 100 100 100 100 100 100 100 100 100 100 100 100 100 98 99 100 100 100 100 100 96 98 92 91 84 20 19 13 17 7 5 5 0 0 0 4 5

GFSNW_prec_cloud_027.txt.gz
Cloud_Cover
100 100 100 100 100 100 100 100 100 100 100 100 96 100 5 5 3 0 5 5 2 0 0 0 3 5 5 2 1 2 5 4 4 2 1 0 0 4 4 0 0 0 0 0
100 100 100 100 100 100 100 100 100 100 100 91 57 100 5 49 5 5 5 3 0 0 0 1 5 5 5 2 0 0 0 0 4 5 0 0 0 0 0 0 0 0 25 0
100 96 84 100 100 100 100 100 100 100 98 9 50 16 5 5 5 21 5 0 0 2 53 13 38 3 0 0 0 0 0 0 4 5 87 8 0 0 5 1 4 4 3 2
100 100 78 100 100 98 100 100 100 100 29 5 90 14 5 5 19 19 5 1 3 16 30 8 5 5 5 2 0 0 0 0 3 2 2 1 0 5 36 5 5 5 1 5
100 54 62 100 100 100 100 100 100 61 5 19 61 20 22 5 97 5 2 3 5 82 8 5 37 5 5 0 0 0 0 0 0 0 0 0 5 5 5 5 5 5 5 12
29 68 100 100 100 85 84 87 100 96 70 12 10 69 100 6 100 21 5 3 36 85 5 4 5 6 2 4 1 3 2 1 0 4 5 5 16 5 5 5 2 0 5 5
84 100 100 100 100 21 54 85 100 97 33 83 87 100 100 7 100 29 0 5 41 8 5 5 5 5 5 2 0 5 0 3 5 13 5 46 7 5 5 5 5 0 5 5
93 100 100 100 100 44 100 100 44 100 66 89 57 100 100 100 100 92 4 7 27 5 8 5 5 5 9 0 0 5 0 5 5 19 0 5 5 22 5 5 3 5 5 5
100 100 100 100 100 91 53 88 87 98 98 100 90 100 100 60 100 16 5 21 37 19 36 5 5 5 5 2 0 5 5 5 5 5 66 68 45 5 5 5 5 8 5 5
100 100 100 100 100 95 97 92 52 100 100 100 100 100 100 100 100 15 9 6 54 56 26 91 5 5 5 1 0 70 5 43 38 5 35 5 5 5 5 5 6 5 5 5
100 100 100 96 100 99 82 97 8 95 100 100 100 100 100 100 100 45 39 5 16 64 29 27 5 37 5 5 4 5 5 11 50 27 63 63 11 36 33 6 5 19 5 5
100 100 100 100 100 100 86 98 1 63 100 100 100 100 100 100 99 14 19 6 51 10 40 47 10 91 68 5 5 5 5 7 7 5 5 7 7 5 5 68 8 29 32 100
100 100 100 100 99 97 45 97 9 88 75 100 100 100 100 100 97 69 13 34 100 66 78 18 8 96 100 90 50 8 5 5 5 7 60 5 5 4 5 5 12 36 13 52
100 82 100 100 76 50 100 100 5 8 97 100 98 100 100 100 90 23 53 90 100 100 100 100 91 100 100 99 17 24 5 5 5 52 8 5 5 40 99 24 5 89 76 5
100 100 91 84 100 100 100 100 18 6 28 64 100 100 100 100 53 32 51 100 100 100 100 100 100 100 88 83 6 8 39 5 5 5 83 100 100 57 5 15 95 11 5 5
100 100 99 100 100 100 100 11 6 68 38 100 61 68 100 100 5 41 42 20 100 100 100 100 100 100 62 84 43 39 59 77 99 100 100 90 61 5 45 78 81 37 61 55
100 100 100 100 100 94 100 48 99 100 78 100 100 100 100 50 7 94 49 9 36 94 97 74 87 71 30 72 18 100 100 100 100 100 48 64 33 26 18 54 73 52 80 86
100 100 100 100 100 100 100 100 78 100 100 100 100 100 90 19 53 92 59 62 19 27 50 56 66 14 35 24 99 100 100 100 58 11 5 5 26 63 100 87 88 80 61 90
100 100 100 100 100 100 100 100 100 100 100 100 100 100 100 35 79 93 96 52 97 52 100 89 72 100 100 100 100 94 17 20 66 78 98 89 75 97 97 89 91 51 48 90
100 99 100 93 100 100 100 100 100 100 77 100 100 100 58 58 97 100 86 100 92 98 99 74 100 100 100 100 100 87 47 44 98 97 100 98 88 68 88 76 79 100 99 100
85 98 100 100 100 98 100 100 100 100 89 100 100 90 43 77 86 100 97 100 96 92 64 100 100 100 100 100 100 100 98 79 79 99 64 98 93 100 100 100 92 96 100 100
100 100 100 100 100 100 100 100 98 94 100 100 100 100 100 100 99 87 75 93 97 78 70 100 100 100 100 100 100 100 100 100 100 97 100 100 100 100 100 100 100 100 100 100
100 100 100 100 96 100 100 100 100 100 100 100 100 100 100 96 92 94 88 100 95 78 99 94 100 100 100 100 100 100 99 100 100 100 100 100 100 100 100 100 100 100 100 93
100 100 100 100 100 100 100 100 100 100 100 100 100 100 100 100 100 100 100 100 100 100 100 100 100 100 100 100 100 100 100 100 100 100 100 100 100 100 100 100 100 93 24 14
100 98 100 100 100 100 100 100 100 100 100 100 100 100 100 100 100 100 100 100 100 100 100 100 100 100 100 100 100 100 100 100 100 100 100 100 100 100 99 58 5 5 5 5
100 100 100 100 100 100 100 100 100 100 100 100 100 100 100 100 100 100 100 99 100 98 98 100 100 100 100 100 100 100 100 100 100 91 79 88 55 17 41 5 0 5 5 5
100 100 100 100 100 100 100 100 100 100 100 100 100 100 100 100 100 100 100 100 100 100 100 100 100 100 100 100 100 76 54 91 100 51 54 35 6 3 0 0 0 0 2 5

GFSNW_prec_cloud_030.txt.gz
Cloud_Cover
100 100 42 16 11 92 100 100 100 100 100 87 97 100 100 100 100 100 98 55 95 0 76 5 3 36 45 0 20 66 100 99 94 6 86 100 83 22 5 0 5 5 0 0
100 100 100 86 38 65 100 100 100 100 100 100 100 100 100 100 100 100 89 5 5 3 1 4 0 5 29 0 0 0 3 1 2 14 39 5 5 5 5 5 3 0 25 0
100 100 100 99 73 85 100 100 100 100 100 64 96 100 100 100 100 100 73 5 4 4 4 5 4 5 0 0 5 3 5 0 2 4 19 45 29 0 0 0 2 0 0 0
100 100 100 100 100 97 100 100 35 100 100 93 100 100 100 100 100 100 98 5 3 5 4 4 5 5 5 6 5 2 0 0 0 0 28 57 19 13 5 3 0 0 0 0
100 100 100 100 24 93 100 100 99 100 100 100 100 100 100 100 100 100 38 5 5 25 5 5 7 34 5 5 0 0 0 0 0 0 0 2 0 0 0 0 0 2 0 5
100 100 100 98 41 100 100 100 100 100 100 100 100 100 100 100 94 56 5 5 6 18 84 54 6 5 96 81 4 1 2 0 0 0 0 0 0 0 0 0 5 1 7 50
100 70 98 84 100 100 100 74 100 100 100 100 100 100 100 100 100 100 83 18 95 65 5 2 5 5 63 32 5 2 0 0 0 0 0 1 0 0 0 3 0 0 5 29
15 23 18 9 100 100 99 96 94 82 100 100 100 100 100 56 100 100 56 5 78 66 2 2 5 5 5 5 5 3 0 0 0 43 0 0 0 0 0 3 0 9 97 7
2 5 5 87 100 100 99 100 86 96 100 52 100 100 100 83 97 100 12 12 38 8 4 12 34 5 3 4 3 1 5 0 5 0 0 5 0 0 0 0 0 15 6 5
14 26 15 86 100 100 100 100 98 100 83 92 100 92 51 100 91 100 100 100 40 19 13 91 9 5 5 5 5 50 5 6 38 5 33 5 5 3 5 5 6 5 35 5
19 72 6 100 100 100 100 99 94 100 100 84 74 100 95 98 97 100 100 100 5 47 29 28 5 31 5 5 5 5 5 7 56 6 78 63 6 11 42 5 5 35 5 5
26 52 90 100 100 100 100 96 10 60 100 100 57 100 6 64 100 100 100 100 97 52 8 35 22 90 74 8 5 5 5 7 5 5 5 5 24 55 5 59 99 5 5 6
100 100 100 100 100 100 100 100 100 100 100 69 61 63 16 66 100 100 100 100 96 29 21 5 32 96 6 74 5 5 5 23 8 73 17 5 7 5 72 77 5 63 73 98
100 100 100 100 100 97 92 100 100 100 100 95 18 75 69 100 100 100 100 100 100 79 12 5 68 87 5 8 5 6 30 93 36 100 76 45 0 8 28 7 54 100 100 51
100 100 100 93 89 51 100 100 100 100 76 48 94 80 100 100 100 100 100 100 95 8 21 69 49 100 94 9 5 10 96 100 70 52 37 53 3 6 11 93 100 100 97 25
100 100 100 100 72 100 100 100 99 100 9 0 29 100 100 100 100 100 100 100 37 5 8 41 86 100 100 100 100 98 97 73 8 5 5 5 7 93 100 100 100 97 14 5
100 82 70 100 100 100 100 46 48 15 5 5 100 100 100 100 100 100 100 100 74 15 27 6 100 100 100 100 100 100 100 100 100 60 5 37 46 100 100 100 84 5 6 7
100 100 100 100 94 100 100 100 100 84 46 93 100 100 100 100 100 100 100 100 100 38 49 26 60 100 100 100 100 100 100 100 100 73 6 20 90 100 71 42 39 21 61 90
100 100 100 100 100 100 100 100 100 98 97 100 100 100 100 100 100 100 100 100 100 77 86 44 14 71 79 88 98 92 84 87 98 56 93 98 50 54 78 49 78 77 92 100
100 100 100 100 100 100 79 96 81 100 100 88 100 100 95 93 100 100 100 100 100 98 66 85 98 80 99 89 60 55 18 92 69 6 37 80 89 56 100 99 99 94 100 100
100 100 100 100 100 100 100 78 73 92 100 100 100 82 100 99 100 100 100 100 79 44 63 67 82 100 98 95 100 81 94 96 100 100 93 95 100 100 100 100 90 94 95 100
100 100 100 100 100 100 100 100 100 100 96 99 100 100 99 100 100 100 100 100 86 73 86 95 59 100 100 100 100 99 92 100 100 100 100 100 100 100 100 97 92 98 100 100
100 100 100 100 95 100 100 100 100 100 100 100 100 100 100 100 100 100 100 100 78 51 97 50 94 100 100 100 100 100 100 100 100 100 96 100 100 100 100 100 100 100 100 100
100 100 100 100 100 100 100 100 100 100 100 100 100 100 100 100 100 100 100 100 97 100 99 94 100 100 100 100 100 100 100 100 100 100 100 100 100 100 100 100 100 100 100 100
100 100 100 100 100 100 100 100 100 100 100 100 100 100 100 100 100 100 100 100 100 80 94 100 100 100 100 99 100 99 100 100 100 100 100 100 100 100 100 100 100 100 100 94
100 100 100 100 100 100 100 100 100 100 100 100 100 100 100 100 100 100 100 100 93 100 100 100 100 100 100 100 100 100 100 100 100 100 100 100 100 100 100 100 100 94 58 37
100 100 100 100 100 100 100 100 100 100 100 100 100 100 100 100 100 100 100 100 100 100 100 100 100 100 100 100 100 100 100 100 100 100 100 100 100 100 100 100 65 31 5 5

GFSNW_prec_cloud_033.txt.gz
Cloud_Cover
100 100 100 100 99 74 99 100 100 100 100 97 75 100 100 100 100 9 99 96 100 5 6 74 2 0 80 60 17 94 98 99 100 100 100 16 99 100 100 100 6 100 14 10
100 100 100 100 86 76 100 100 100 100 100 93 95 100 100 100 100 100 100 96 78 6 9 100 6 5 35 87 75 18 100 92 94 83 79 58 8 90 100 82 44 30 2 3
100 100 100 100 96 76 100 100 100 99 100 96 84 89 100 98 66 99 61 100 100 100 51 98 100 3 54 22 5 4 4 20 64 99 39 4 5 5 6 27 5 5 3 0
100 100 100 100 100 82 100 100 96 61 100 84 43 66 82 92 78 100 100 100 100 82 6 55 31 1 2 0 0 0 4 5 5 5 3 5 21 66 5 18 1 1 0 0
94 92 100 100 100 73 100 100 70 8 99 100 17 13 98 100 100 100 100 100 100 36 28 0 5 4 5 0 0 0 5 5 5 0 0 0 5 2 7 4 0 0 0 0
100 61 73 100 100 94 100 100 100 70 38 100 100 4 83 100 100 100 100 100 100 8 13 3 2 34 5 5 4 4 5 3 0 0 0 0 0 0 0 0 0 0 0 0
67 98 98 100 100 85 100 100 100 100 5 91 100 100 100 100 100 100 100 100 100 61 23 76 100 27 45 16 99 5 4 2 0 0 0 0 0 0 0 0 0 0 5 5
63 37 100 100 100 44 100 100 98 83 98 45 54 76 100 100 100 100 100 100 100 64 13 10 5 71 42 5 9 5 4 2 0 0 0 0 0 0 0 0 0 0 5 5
85 100 100 72 96 24 98 100 100 100 32 4 16 100 100 100 100 100 100 100 100 72 7 30 5 5 5 6 5 5 5 0 2 0 0 0 4 0 0 0 1 5 5 3
100 100 100 22 57 10 99 100 100 100 100 89 5 55 20 100 97 100 100 100 96 100 87 69 26 64 7 14 3 5 8 6 3 7 28 5 5 1 0 0 0 2 5 5
100 100 100 74 5 21 82 100 100 100 100 99 48 88 12 87 94 98 96 75 100 93 64 52 70 32 5 6 5 6 6 40 21 67 79 12 5 8 3 2 5 5 5 5
98 93 44 25 15 17 65 100 100 100 100 94 64 5 5 65 97 73 44 93 100 100 100 100 99 62 87 7 57 15 6 8 5 5 5 5 5 5 5 19 18 5 5 5
96 15 9 5 6 93 78 100 100 100 100 100 94 5 83 100 100 80 5 98 100 100 100 46 41 94 5 12 37 5 5 36 5 5 5 5 5 5 11 99 75 16 43 12
42 41 5 8 5 52 100 100 100 100 100 100 97 15 55 98 100 56 26 100 100 100 100 100 100 90 5 5 9 21 9 7 5 18 5 5 5 9 33 85 100 99 61 64
7 8 41 64 81 100 100 100 100 100 100 100 100 89 97 100 93 83 92 100 100 100 100 100 26 52 5 5 5 12 75 26 18 11 96 28 40 100 79 38 6 34 46 6
23 5 43 100 100 100 100 100 100 100 100 100 100 100 100 100 100 96 99 100 75 100 100 100 100 100 99 50 5 10 13 5 8 41 34 81 100 100 90 6 5 5 5 5
92 65 74 100 100 98 100 100 100 100 100 100 100 100 100 100 96 5 100 100 100 100 100 100 100 100 100 85 5 5 90 100 100 100 100 100 100 100 100 99 69 54 18 16
100 100 100 100 100 100 100 100 100 100 100 100 100 100 100 100 100 84 100 100 100 100 100 100 100 100 100 13 29 70 100 100 100 100 100 100 100 98 89 58 24 18 18 39
100 100 100 100 100 100 100 100 100 100 100 100 100 100 100 100 100 66 100 100 100 100 100 100 100 100 100 100 100 74 100 100 100 100 100 100 92 11 31 5 8 8 42 93
98 85 100 100 100 100 100 100 100 100 100 100 100 100 100 100 99 100 100 100 100 100 100 100 100 100 100 100 100 98 33 99 100 99 54 17 19 36 99 68 48 68 99 86
100 100 100 100 100 100 100 100 100 100 100 93 100 100 100 100 94 100 100 100 100 100 100 100 91 88 100 100 100 94 74 100 100 96 65 96 98 100 100 100 82 78 79 99
100 100 100 100 100 100 100 100 100 99 100 97 100 100 100 100 100 100 100 100 100 100 95 78 100 95 100 100 100 100 100 100 100 100 100 100 100 100 85 78 100 95 96 100
100 100 100 100 95 91 91 100 97 93 100 100 100 98 100 100 100 100 100 98 100 73 98 97 100 100 100 100 100 100 100 100 100 100 100 100 76 87 97 100 100 95 100 100
100 100 100 100 100 100 100 100 100 100 100 100 100 100 100 100 100 100 100 100 100 100 100 100 100 100 100 100 100 100 100 100 100 100 94 96 100 100 99 91 100 100 100 100
100 100 100 100 100 100 100 100 100 100 100 100 100 100 100 100 100 100 100 99 86 99 100 100 100 100 100 100 100 100 100 100 99 100 100 100 100 100 100 100 100 100 100 100
100 100 100 100 100 100 100 100 100 100 100 100 100 100 100 100 100 100 100 100 100 100 100 100 100 100 100 100 100 100 100 100 100 100 100 100 100 100 100 100 100 100 100 100
100 100 100 100 100 100 100 100 100 100 100 100 100 100 100 100 100 100 100 100 100 100 100 100 100 100 100 100 100 100 100 100 100 100 100 100 100 100 100 100 100 100 100 100

GFSNW_prec_cloud_036.txt.gz
Cloud_Cover
100 100 100 100 100 100 100 100 94 14 100 100 84 100 100 100 100 18 5 5 5 5 5 2 5 8 5 0 0 0 15 5 5 97 94 71 92 29 50 95 92 100 84 5
100 100 100 100 100 100 90 100 97 67 20 100 82 100 94 100 100 91 54 87 74 72 5 13 19 4 1 3 0 0 4 98 96 100 80 19 18 6 66 48 5 90 11 0
100 100 73 100 100 100 84 100 100 100 100 9 14 17 98 100 100 85 100 98 100 15 39 100 5 5 2 3 23 50 17 29 99 18 5 10 24 100 94 12 25 13 5 1
100 100 59 100 100 100 89 100 99 20 100 100 100 98 100 100 30 85 100 100 98 100 100 66 5 6 9 0 5 84 59 12 99 100 80 87 100 100 83 6 10 28 0 0
80 100 97 100 100 100 100 100 92 69 100 97 68 93 96 100 100 100 100 100 100 100 100 5 100 41 5 0 4 5 5 0 0 21 93 85 28 1 0 5 5 5 0 2
97 95 86 100 100 100 100 100 100 93 99 26 81 5 50 100 100 100 100 100 100 92 100 48 100 21 5 0 0 1 0 0 0 4 2 4 0 0 0 0 5 19 38 7
26 5 100 100 100 100 100 100 41 100 8 82 26 5 6 100 100 100 100 100 91 99 96 87 86 5 7 0 0 2 4 5 5 5 1 1 0 0 0 0 0 0 0 0
4 90 100 100 99 100 100 100 100 100 31 91 78 56 5 6 98 59 100 100 100 100 100 11 74 62 5 5 5 5 34 37 5 8 3 0 0 0 0 0 0 0 4 5
5 5 79 94 100 100 100 100 100 78 96 36 5 41 5 6 6 98 99 100 100 100 100 100 100 100 58 66 5 5 5 95 5 21 5 4 0 1 0 0 4 5 5 5
100 99 97 28 29 99 100 100 100 100 100 1 0 0 15 16 8 100 90 100 100 100 100 100 100 92 5 5 4 5 19 25 5 64 5 5 0 3 0 5 48 5 5 5
76 100 25 73 8 99 99 100 100 100 100 62 66 1 5 4 4 6 86 69 85 100 100 100 100 68 5 1 5 5 61 67 5 39 62 5 0 4 5 26 75 5 5 5
71 98 5 100 92 100 98 100 100 100 95 65 18 4 1 0 8 100 100 100 100 100 90 100 100 72 30 5 5 5 89 11 36 5 58 35 5 5 5 5 5 5 42 36
100 100 100 97 96 100 100 99 89 100 100 100 100 12 5 4 54 100 73 99 100 79 92 100 100 100 20 5 5 3 80 56 21 8 83 98 30 5 18 9 5 5 5 6
100 100 100 100 100 100 100 100 100 100 100 100 94 99 16 5 21 8 77 99 97 78 100 100 100 100 98 100 42 43 22 29 44 74 53 17 82 20 15 90 96 74 47 78
100 100 100 79 100 83 83 31 94 90 100 100 100 67 5 8 79 34 96 100 100 100 100 100 100 100 100 100 5 5 56 13 42 43 39 58 43 45 27 45 58 99 100 100
32 96 100 100 93 5 77 100 100 100 100 99 97 37 95 67 13 94 100 100 100 100 100 100 100 100 100 100 89 42 35 38 100 100 99 30 8 6 16 54 60 34 81 100
58 81 93 78 5 18 5 5 41 86 100 100 100 82 62 99 67 100 100 100 100 77 78 80 100 100 100 100 100 100 98 60 92 99 96 100 100 82 67 96 100 100 100 100
10 5 5 5 89 66 100 100 100 100 100 100 100 100 100 100 100 100 100 87 94 100 100 100 100 100 94 100 100 100 100 100 100 72 25 50 73 100 100 100 100 100 100 100
13 22 38 74 100 100 77 100 100 100 100 100 100 100 100 100 100 100 100 91 100 100 100 100 100 90 84 15 86 100 100 100 100 100 89 53 41 64 100 100 100 100 99 49
100 100 100 100 100 100 100 100 100 100 100 100 100 100 100 100 100 100 100 100 99 100 100 100 100 100 100 64 59 100 100 100 100 100 100 100 20 31 39 90 99 99 78 52
100 100 100 100 100 100 100 100 100 100 100 100 100 100 100 100 100 100 100 99 98 100 100 100 100 100 100 100 96 100 100 100 100 96 84 78 100 74 94 100 100 87 99 100
100 100 100 100 100 100 100 100 100 100 100 100 100 100 100 54 63 84 86 100 100 100 100 99 100 100 100 100 100 100 100 100 100 100 100 100 100 100 100 100 100 100 100 100
100 100 100 100 100 100 100 100 100 100 100 100 100 100 100 100 100 100 100 46 83 38 99 95 100 100 100 100 100 100 100 100 100 100 100 100 100 100 80 73 98 100 100 100
100 100 100 100 100 100 100 100 100 100 100 100 100 100 100 100 100 99 98 100 88 92 99 84 100 100 100 100 100 100 100 100 100 100 100 100 100 95 100 100 100 100 100 100
88 91 100 100 100 100 100 100 100 100 100 100 97 98 100 100 100 98 100 100 100 100 100 100 100 100 100 100 100 100 100 100 100 100 100 100 100 100 100 100 100 100 100 100
100 100 100 100 100 100 100 100 100 100 100 100 100 100 100 100 100 100 100 100 100 100 100 100 100 100 100 100 100 100 100 100 100 100 100 100 100 100 100 100 100 100 100 100
97 100 100 100 100 100 100 100 100 100 100 100 100 100 100 100 100 100 100 100 100 100 100 100 100 100 100 100 100 100 100 100 100 100 100 100 100 100 100 100 100 100 100 100

GFSNW_prec_cloud_039.txt.gz
Cloud_Cover
1 66 100 100 100 100 100 99 92 98 100 100 100 73 100 100 100 53 53 95 100 68 5 5 5 5 5 5 0 3 0 0 2 5 6 68 82 5 7 34 36 5 5 97
4 33 100 100 100 100 96 100 98 100 83 99 98 100 98 100 100 99 100 97 10 9 13 53 5 5 5 5 0 0 0 0 0 5 17 5 45 12 6 4 73 54 4 4
5 100 100 100 91 100 100 100 100 100 98 9 11 93 68 100 100 88 91 100 79 6 5 6 78 99 5 5 5 3 1 0 0 42 6 47 12 7 5 4 6 13 10 1
91 100 100 100 100 100 100 100 68 86 100 96 47 56 100 100 100 69 5 5 90 79 27 85 100 100 5 6 3 0 2 2 4 77 52 38 96 9 3 13 28 5 26 9
84 100 100 100 100 100 100 100 83 30 96 98 98 98 100 100 100 96 100 85 100 100 100 100 100 60 5 6 2 0 0 3 5 56 6 44 100 20 6 17 38 5 5 50
98 100 96 100 68 100 100 95 95 59 6 91 100 14 100 100 100 100 100 100 100 99 100 94 92 84 14 83 53 4 5 4 4 1 0 0 20 94 77 18 0 0 4 2
100 62 100 100 48 79 100 71 19 100 12 72 33 28 100 100 100 100 100 100 100 100 100 100 100 100 83 21 75 77 5 5 5 0 0 3 3 0 4 0 0 0 0 0
100 100 100 98 0 95 100 100 61 100 97 5 33 44 100 100 100 100 100 100 100 100 100 95 100 26 32 97 52 5 2 3 0 0 5 4 5 2 4 0 0 0 5 0
100 100 30 99 0 99 100 100 100 100 90 92 4 6 100 100 100 100 100 100 100 94 100 100 94 100 100 100 52 5 2 0 5 11 5 4 5 2 0 0 5 5 5 0
86 97 87 58 0 86 100 100 100 100 100 40 34 5 98 100 100 100 100 100 100 100 100 100 100 100 100 100 100 14 8 26 1 25 5 5 5 1 4 3 4 0 0 0
96 85 76 8 4 100 100 100 100 100 100 97 58 34 12 100 100 100 100 100 81 100 89 96 79 100 100 100 88 11 5 13 1 0 4 5 1 4 1 0 0 0 0 4
83 61 5 40 100 100 100 100 100 100 100 11 60 12 5 11 34 96 94 100 92 93 100 100 100 100 100 100 100 51 7 2 5 1 5 8 5 5 5 5 5 4 2 0
100 41 15 86 25 100 100 100 100 100 100 36 93 44 14 3 4 78 100 100 96 97 100 100 100 100 100 100 100 100 5 5 4 5 96 65 6 5 5 5 5 5 5 5
14 73 5 5 6 98 100 100 100 100 100 100 97 44 23 5 4 3 92 100 74 98 100 100 100 100 100 100 100 100 99 7 61 90 99 43 72 19 6 5 5 5 5 5
91 84 99 94 77 100 100 100 100 88 65 100 83 100 30 55 0 1 74 84 72 100 100 100 80 100 100 100 100 12 100 100 100 90 60 80 86 87 98 78 44 37 34 48
100 98 99 34 90 100 100 100 100 100 100 100 100 100 100 28 30 0 5 9 100 79 100 100 100 100 100 100 100 70 100 100 100 100 99 38 50 100 100 95 100 100 100 100
100 100 100 100 100 84 100 93 73 88 100 100 100 100 100 100 72 38 11 39 92 49 99 100 100 100 100 100 98 100 100 100 100 100 100 100 100 72 47 33 40 74 98 100
100 100 98 100 100 100 74 83 16 40 100 100 100 68 89 100 100 100 100 100 100 100 100 100 100 100 100 100 99 100 100 100 100 100 100 100 100 100 98 40 21 44 41 58
100 100 100 97 64 5 2 100 100 79 100 100 100 100 100 82 97 100 100 100 100 100 100 100 100 100 100 100 100 100 100 100 100 100 100 91 100 100 100 100 52 72 81 41
96 39 99 87 6 99 100 100 36 100 100 100 100 100 95 71 100 100 100 100 100 100 100 100 100 100 100 100 100 100 100 100 100 100 100 100 99 100 100 100 100 100 84 62
30 36 100 93 100 100 96 100 100 100 100 100 100 100 80 97 100 100 100 100 100 100 100 100 100 100 100 100 100 100 100 100 100 100 100 100 100 100 100 100 100 100 99 100
100 100 100 100 72 86 100 100 100 100 100 100 100 100 100 100 100 100 100 100 100 100 100 100 100 100 100 100 100 100 100 100 100 100 100 100 100 100 100 100 100 100 100 100
100 100 100 100 100 100 100 100 100 100 100 100 100 100 100 100 100 100 100 100 100 100 100 100 100 100 100 100 100 100 100 100 100 100 100 100 100 100 100 100 100 100 100 100
100 100 100 100 100 100 100 100 100 100 100 100 100 100 100 100 100 100 100 100 96 80 100 97 100 100 100 100 100 100 100 100 100 100 100 100 100 100 100 100 100 100 100 100
100 100 100 100 100 100 100 100 100 100 100 100 100 100 100 100 100 100 91 100 96 97 86 100 100 100 100 100 100 100 100 100 100 100 100 100 100 99 100 100 100 100 100 100
100 100 100 100 100 100 100 100 100 100 100 100 100 100 100 100 100 100 100 100 100 100 100 100 100 100 100 100 100 100 100 100 100 100 100 100 98 100 100 100 100 100 100 100
100 100 100 100 100 100 100 100 100 100 100 100 67 99 100 99 80 97 100 100 100 100 100 100 100 100 100 100 100 100 100 100 100 100 100 100 100 100 100 100 100 100 100 100

GFSNW_prec_cloud_042.txt.gz
Cloud_Cover
100 100 4 5 100 100 100 100 94 45 100 100 100 100 62 100 100 100 100 100 100 100 100 83 74 50 23 5 5 5 5 0 1 2 4 6 6 12 98 82 56 48 99 89
100 100 14 6 100 100 96 100 94 100 5 99 100 100 98 100 100 99 100 100 100 100 94 80 100 100 5 5 5 5 0 0 0 0 5 11 6 72 53 21 61 37 96 100
100 100 22 27 100 100 34 100 100 100 62 0 14 100 100 100 100 100 100 100 100 100 100 100 100 100 5 5 5 3 5 0 0 0 0 10 2 2 2 4 78 67 7 5
100 100 100 99 100 100 98 100 94 91 100 91 7 58 100 100 100 100 100 100 100 100 100 100 100 100 58 89 5 49 87 16 0 0 0 4 5 10 3 59 8 4 10 17
100 100 100 100 96 100 100 100 95 68 11 9 98 40 100 100 100 100 100 100 100 100 100 100 100 96 100 36 5 71 87 5 4 0 0 0 5 4 35 27 5 5 5 18
100 100 100 100 94 100 100 99 37 5 85 81 98 23 100 100 100 100 100 100 100 100 100 100 100 21 41 38 5 5 0 5 9 5 5 5 2 0 34 98 100 59 46 84
100 100 100 100 89 93 7 100 73 84 92 53 8 5 100 100 100 100 100 100 100 100 100 100 100 78 99 7 8 7 82 27 5 5 25 5 0 0 0 0 0 5 5 2
100 100 100 100 100 100 47 55 100 64 99 5 82 88 100 100 100 100 100 100 100 100 100 100 96 95 70 87 75 14 53 100 6 87 5 5 5 0 0 0 0 5 0 0
100 100 100 100 100 54 42 100 87 100 49 5 5 57 100 100 100 100 100 100 100 100 100 98 74 93 100 100 100 100 95 5 49 20 4 4 8 0 0 0 3 0 0 0
100 100 100 100 100 62 17 87 100 100 100 100 13 5 100 100 100 100 100 100 100 100 100 100 100 100 100 94 100 100 84 8 6 21 0 5 7 0 1 26 10 0 0 0
100 100 100 100 100 52 55 100 100 100 100 100 99 65 100 100 100 100 100 100 100 100 100 100 100 100 100 100 100 100 100 35 5 1 5 15 6 0 0 5 5 3 5 5
100 100 100 100 84 17 14 86 100 100 100 100 100 88 98 100 100 100 100 100 100 100 100 100 100 100 100 100 100 100 100 97 12 4 6 78 7 0 0 5 5 5 5 5
100 100 100 100 100 48 5 93 100 100 100 64 98 12 72 100 100 100 100 100 100 100 100 100 100 100 100 100 100 100 100 22 5 5 78 98 7 2 3 5 5 5 5 5
100 100 100 100 82 33 5 100 100 100 100 96 95 88 6 91 100 100 100 100 100 100 100 100 100 100 100 100 100 100 99 50 22 40 100 100 25 28 7 5 5 5 5 5
100 100 100 92 13 8 89 93 100 100 100 92 32 48 4 20 100 100 100 100 100 100 100 100 100 100 100 100 98 100 100 100 59 96 100 100 100 100 98 79 20 8 35 49
100 100 100 100 100 99 83 100 100 100 100 100 100 58 55 80 96 100 100 100 100 100 100 100 100 100 70 98 71 100 100 100 100 100 100 100 100 100 100 100 100 100 100 100
100 100 100 100 98 60 88 100 100 100 100 100 100 100 69 85 98 100 100 100 91 97 100 100 100 90 87 99 86 100 100 100 100 100 100 100 100 100 100 100 100 100 100 100
100 54 54 62 17 78 85 52 100 96 100 100 100 100 100 99 89 100 100 100 98 98 92 100 100 100 100 97 100 100 100 100 100 100 100 100 100 100 100 100 100 98 90 73
100 57 26 86 84 100 76 96 97 100 100 96 100 95 100 100 100 100 100 100 99 98 98 100 79 100 92 99 100 100 100 100 100 100 100 100 100 100 100 100 100 100 100 99
100 100 100 76 91 100 100 100 100 100 100 100 100 85 100 47 100 100 100 100 100 100 100 81 99 100 100 100 100 100 100 100 100 100 100 100 100 100 100 100 100 100 100 100
100 100 93 58 42 67 92 100 100 100 100 100 92 100 100 100 91 100 100 100 100 100 100 100 100 100 92 100 100 100 100 100 100 100 100 100 100 100 100 100 100 100 100 100
34 100 13 31 100 93 77 100 100 100 100 100 100 100 100 100 100 100 100 100 100 100 100 100 100 89 100 100 100 100 100 100 100 97 98 100 91 100 100 100 100 100 100 100
100 100 100 97 93 98 98 70 100 100 100 100 100 100 100 100 100 100 100 100 100 100 100 100 100 100 100 100 100 100 100 100 100 100 100 100 100 100 100 100 100 100 100 100
100 100 93 93 100 100 100 100 100 100 100 100 100 100 100 100 100 100 100 100 100 100 100 100 100 100 100 100 100 100 100 100 100 100 100 100 100 100 100 100 100 100 100 100
100 76 92 100 100 100 100 100 100 100 100 100 100 100 100 100 100 100 100 100 100 100 100 100 100 100 100 100 100 100 100 100 100 100 100 100 100 100 100 100 100 100 100 100
100 100 100 100 100 100 100 100 100 100 100 100 100 100 100 100 100 100 100 100 100 100 100 100 100 100 100 100 100 100 100 100 100 100 100 100 100 99 100 100 100 99 100 100
100 100 100 100 100 100 100 100 100 100 100 100 100 100 100 100 100 100 100 100 100 100 100 100 100 100 100 100 100 100 100 100 98 100 100 100 100 100 100 100 100 100 100 100

GFSNW_prec_cloud_045.txt.gz
Cloud_Cover
100 100 100 100 85 5 100 100 100 99 5 100 100 60 5 5 5 91 100 90 100 100 100 100 100 100 100 100 100 40 5 3 0 1 28 99 98 8 65 34 90 17 100 100
100 100 100 100 100 27 97 100 51 51 3 100 93 3 5 5 5 98 100 100 100 100 100 100 100 100 100 100 100 25 5 5 2 0 3 7 78 37 5 16 97 94 99 100
100 100 100 100 100 100 96 100 100 94 72 33 8 52 51 53 5 84 100 100 92 100 100 100 100 100 100 100 100 94 5 5 1 2 0 4 5 27 13 4 0 95 98 100
30 100 100 100 100 100 100 100 100 10 100 100 11 5 2 12 10 16 100 100 96 98 100 100 100 100 100 100 100 100 5 31 2 0 1 1 5 7 3 0 1 0 91 31
20 100 100 100 100 100 100 100 24 18 5 17 99 100 77 5 5 66 76 100 100 100 100 100 100 100 100 100 100 90 100 77 5 4 0 0 1 0 0 0 0 2 5 44
59 100 100 100 100 100 100 92 5 5 24 68 100 59 95 39 45 77 100 100 100 100 100 100 100 100 100 97 41 45 6 14 4 2 5 4 2 0 0 0 1 1 5 90
97 100 100 100 100 91 100 90 26 5 93 70 52 50 100 68 54 100 100 100 100 100 100 100 100 100 97 99 98 47 75 56 6 5 3 6 0 0 0 0 0 0 65 97
100 100 100 100 100 100 100 100 21 5 100 20 8 83 32 95 82 100 100 100 100 100 100 100 100 100 70 99 100 100 52 77 36 50 5 5 5 0 0 2 5 0 0 0
100 100 100 100 100 100 100 100 35 16 45 62 6 17 9 46 61 95 100 100 100 100 100 100 100 100 100 100 100 70 99 100 11 5 5 7 6 0 0 0 5 0 0 0
100 100 100 100 100 100 100 99 43 12 100 11 5 5 5 73 88 100 100 100 100 100 100 100 100 100 100 99 92 100 100 86 39 5 20 43 98 1 0 0 1 0 0 4
100 100 100 100 100 100 100 98 21 10 100 97 94 48 9 50 84 100 100 100 100 100 100 100 98 100 85 98 90 100 100 100 100 66 48 84 23 5 1 0 0 5 4 5
100 100 100 100 100 100 100 100 95 64 100 100 100 74 31 34 98 100 100 100 100 100 100 100 100 100 100 100 100 100 100 100 100 63 5 5 66 5 3 0 5 5 3 5
100 100 100 100 100 100 100 100 86 100 100 99 100 100 65 12 97 100 100 100 100 100 100 100 100 100 100 100 100 100 100 100 100 82 39 96 31 44 8 10 10 2 5 0
100 100 100 100 100 100 100 88 75 100 100 86 100 100 100 100 99 100 100 100 100 100 100 100 100 100 100 100 100 100 100 100 100 36 99 98 36 40 48 94 5 5 5 5
100 100 100 100 100 100 100 97 18 32 100 100 100 100 100 100 98 100 100 100 100 100 100 100 100 100 100 100 100 100 100 100 100 99 100 23 86 100 100 84 97 10 77 100
100 100 100 100 100 90 76 82 18 89 100 100 100 70 97 40 81 100 100 100 100 100 100 100 100 100 100 100 100 100 100 100 100 100 100 100 95 97 100 100 99 98 100 100
100 100 100 100 100 100 62 53 100 100 80 100 100 80 59 56 74 100 100 100 56 83 100 100 100 100 100 100 100 100 100 100 100 100 100 100 100 100 100 100 100 66 99 100
100 100 100 100 100 100 50 99 94 100 99 100 100 100 68 53 100 99 100 100 98 91 100 100 100 100 100 100 100 100 100 100 100 100 100 100 100 100 100 100 100 100 100 100
100 100 100 100 100 99 83 100 100 100 100 100 100 100 87 100 100 100 100 100 100 92 100 100 100 100 100 100 100 100 100 100 100 100 100 100 100 100 100 100 100 100 100 100
74 22 100 100 93 81 98 100 100 100 100 100 100 100 100 89 98 99 96 100 100 100 100 100 100 100 100 100 93 100 100 100 100 100 100 100 100 100 100 100 100 100 100 100
98 99 100 12 30 70 89 100 100 100 100 100 100 100 100 69 100 97 100 100 100 100 100 100 100 100 100 70 76 100 100 100 100 100 100 100 100 100 100 100 100 100 100 100
100 62 33 99 66 47 100 100 100 100 100 100 100 100 100 96 32 97 100 100 100 100 100 100 100 100 100 100 99 92 100 100 100 100 100 100 100 100 100 100 100 100 100 100
51 100 100 100 100 100 100 100 100 100 100 100 100 100 100 100 98 100 100 100 99 100 100 100 100 100 100 100 100 100 100 100 100 100 100 100 100 100 100 100 100 100 100 100
100 100 100 83 62 80 100 100 100 100 100 100 100 100 100 100 100 100 100 100 100 100 100 100 100 100 100 100 100 100 100 100 100 100 100 100 100 100 100 100 100 100 100 100
100 85 100 100 100 100 100 100 100 100 100 100 100 100 100 100 100 100 100 100 100 99 100 100 100 100 100 100 100 100 100 100 100 100 100 100 100 100 100 100 100 100 100 100
100 100 100 100 100 100 100 100 100 100 100 100 100 100 100 100 100 100 100 100 100 100 100 100 100 100 100 100 100 100 100 100 100 100 100 100 100 100 100 100 100 100 100 100
100 100 100 100 100 100 100 100 100 100 100 100 100 100 100 100 100 100 100 100 100 100 100 100 100 100 100 100 100 100 100 100 100 100 100 100 100 100 100 100 100 100 100 100

GFSNW_prec_cloud_051.txt.gz
Cloud_Cover
100 100 100 100 100 100 100 100 100 99 9 100 100 100 0 0 5 66 100 100 100 100 100 100 100 100 100 100 100 100 100 100 82 94 98 96 100 95 98 100 98 84 21 22
100 100 100 100 100 100 100 100 100 83 89 99 100 18 0 0 0 4 73 100 100 100 100 100 100 95 100 100 94 46 100 100 74 100 100 100 100 100 98 96 99 97 99 4
16 64 100 100 100 100 100 100 100 100 100 16 46 5 1 0 2 0 6 89 100 100 100 100 100 100 100 100 89 100 100 100 100 40 73 81 100 100 70 68 94 58 35 79
62 77 87 100 100 100 100 100 97 30 100 84 5 55 1 0 4 3 4 5 100 100 100 100 100 100 76 100 77 99 76 100 100 100 100 100 100 100 71 100 100 92 36 96
36 80 5 23 100 100 100 100 100 87 16 56 71 98 73 3 2 22 2 0 0 98 100 100 100 100 100 100 98 100 100 100 100 100 100 50 100 100 58 94 99 96 100 98
57 65 23 89 100 100 100 100 100 100 95 77 91 47 5 0 1 5 12 0 21 100 100 100 100 100 100 99 56 100 100 100 100 70 100 46 92 100 91 5 5 22 57 64
56 99 82 57 100 100 100 100 100 100 100 100 97 5 70 5 5 5 27 72 48 100 100 100 100 96 100 100 100 100 100 99 100 100 100 18 100 100 55 5 5 11 81 97
16 100 95 100 100 100 100 100 100 100 100 80 98 99 100 90 75 100 100 100 25 100 100 100 100 100 100 100 100 100 100 100 100 96 96 100 100 100 94 5 5 6 98 60
99 100 100 100 100 100 100 100 100 100 100 96 100 100 100 100 100 100 99 100 100 100 100 100 100 100 60 100 100 100 100 100 100 100 99 57 100 100 98 2 20 1 93 16
100 100 100 100 100 100 100 100 100 100 100 100 100 100 100 98 100 46 22 99 94 100 100 100 100 100 100 100 100 100 100 100 93 100 100 86 100 100 100 7 100 99 28 13
100 100 100 100 100 100 100 98 100 100 100 100 100 100 100 90 81 38 97 64 100 100 100 51 84 100 100 100 100 100 100 99 81 100 92 68 100 100 100 85 12 12 0 21
100 100 100 100 100 100 100 100 100 100 100 100 100 100 100 99 96 79 53 10 49 100 100 74 90 93 100 99 100 100 100 100 100 100 100 100 100 100 100 99 10 5 5 43
100 100 100 100 100 100 100 100 100 100 100 100 100 100 100 100 42 100 77 8 98 100 100 100 100 100 100 100 100 100 100 100 88 100 100 100 100 100 100 100 100 94 5 84
100 100 97 82 100 100 100 100 100 100 100 100 100 100 98 49 82 55 47 3 87 100 96 45 77 36 99 100 100 100 100 99 28 92 100 100 100 100 100 100 95 100 42 44
100 100 100 100 100 100 100 100 100 100 100 100 100 100 71 25 99 63 61 70 65 100 95 44 16 3 55 32 100 100 100 100 100 100 100 100 100 100 100 100 100 77 69 5
100 100 100 100 100 100 100 100 100 100 100 100 100 85 5 5 52 100 99 99 99 100 99 5 5 26 19 44 100 100 100 100 100 100 100 100 100 100 100 100 100 52 22 30
100 100 100 100 100 100 100 100 100 100 100 100 94 81 28 48 46 100 48 43 100 100 99 78 98 89 89 23 100 100 100 100 100 100 100 100 100 100 100 100 99 100 67 99
100 100 100 100 100 100 100 100 100 98 78 54 69 100 100 67 64 95 95 94 100 96 73 78 97 100 96 69 100 100 100 100 100 100 100 100 100 100 100 100 100 100 93 100
100 100 100 100 100 100 100 98 19 28 27 28 56 100 100 100 100 100 100 100 65 49 12 30 73 33 34 44 100 100 100 100 100 100 100 100 100 100 100 100 100 100 98 100
100 100 99 100 88 85 59 68 100 100 72 100 100 100 100 100 100 100 100 100 100 95 100 65 62 100 96 100 100 100 100 100 100 100 100 100 100 100 100 100 100 100 100 100
95 98 88 92 97 96 100 100 100 100 100 100 91 100 100 99 100 100 100 100 100 100 98 67 92 81 100 100 100 100 100 100 100 100 100 100 100 100 100 100 95 100 100 100
100 100 100 100 100 100 98 92 94 76 41 100 100 100 100 100 100 100 100 100 100 100 100 100 100 100 98 100 100 100 100 100 100 100 100 100 100 100 100 100 100 100 100 100
87 100 100 100 98 92 100 98 96 95 100 100 100 100 97 98 100 100 100 100 100 100 100 100 100 100 100 100 100 100 100 100 100 100 100 100 100 100 100 100 100 100 100 100
100 100 91 100 100 100 100 100 100 100 100 100 100 100 100 100 100 100 100 100 100 100 100 100 100 100 100 100 100 100 100 100 100 100 100 100 100 100 100 100 100 100 100 100
90 57 99 100 99 98 100 100 100 100 100 100 100 100 100 100 100 100 98 100 100 100 100 100 100 100 100 100 100 100 100 100 100 100 100 100 100 100 100 100 100 100 100 100
56 87 100 100 100 100 100 100 100 100 100 100 100 100 100 100 100 95 100 100 100 100 100 100 100 100 100 100 100 100 100 100 100 100 100 100 100 100 100 100 100 100 100 100
100 100 100 100 100 100 100 100 100 100 100 100 100 100 100 100 100 100 100 100 100 100 100 100 100 100 100 100 100 100 100 100 100 100 100 100 100 100 100 100 100 100 100 100

GFSNW_prec_cloud_054.txt.gz
Cloud_Cover
94 79 53 99 100 100 100 100 100 100 93 100 100 70 3 0 0 0 2 5 50 100 99 100 97 81 100 100 100 100 100 100 100 100 91 94 99 96 32 100 100 100 6 52
64 100 100 100 100 100 100 100 100 100 100 100 100 70 3 4 3 0 0 0 1 61 99 100 100 94 91 100 100 100 100 100 100 92 100 100 100 100 75 100 95 100 52 39
29 32 97 100 100 100 100 100 100 100 100 28 49 10 2 2 1 5 0 17 1 10 98 100 100 100 100 100 100 100 100 100 100 14 99 100 100 100 83 89 100 100 90 29
100 100 27 100 100 100 100 100 100 44 100 99 5 42 9 5 45 3 0 4 99 0 61 84 100 100 100 100 100 100 100 100 100 88 100 100 100 100 100 100 100 100 100 85
75 8 5 90 100 100 100 100 100 74 83 84 85 66 50 7 54 7 0 0 0 5 22 100 100 100 100 100 100 100 100 100 100 95 100 100 100 100 100 100 100 98 100 37
37 92 97 83 94 100 100 100 90 100 14 98 94 60 5 4 16 93 1 0 3 71 0 100 100 100 100 100 100 100 100 100 100 100 100 100 70 100 100 100 100 100 100 100
100 71 96 100 100 62 100 100 99 100 100 90 29 5 5 10 99 15 19 32 2 0 39 88 100 100 100 100 100 100 100 100 100 100 100 40 78 100 100 100 100 40 100 74
100 86 95 100 100 32 86 100 100 100 100 100 100 100 100 99 95 100 92 51 0 0 100 100 100 100 100 100 100 100 100 100 100 86 97 64 11 100 100 100 100 74 100 80
100 100 100 100 100 100 96 100 100 100 100 100 98 100 100 100 83 84 31 12 96 100 97 97 91 100 100 100 100 74 100 100 100 100 94 43 99 100 100 100 28 100 100 100
38 72 100 100 100 100 100 100 100 100 100 43 100 100 100 98 82 72 97 100 100 56 32 67 90 100 100 100 100 100 100 100 75 100 89 80 100 100 100 100 98 100 61 77
59 100 90 86 88 100 100 100 100 94 100 100 100 100 100 100 100 99 76 100 100 14 26 3 22 100 100 97 99 100 96 100 100 97 88 35 100 100 100 100 100 96 23 98
100 100 82 100 96 100 100 100 100 100 100 100 100 100 100 100 100 100 100 100 100 22 100 82 59 96 100 100 100 100 100 78 100 100 36 17 99 100 100 100 100 100 94 100
100 35 100 100 100 100 100 100 100 100 100 100 100 100 100 100 100 100 100 75 5 5 99 100 52 89 99 100 100 100 100 100 100 100 80 91 100 100 100 100 50 100 100 100
98 92 61 100 100 100 100 100 100 100 100 100 100 100 100 100 100 82 100 98 20 87 88 100 60 6 17 100 100 100 100 100 100 99 92 100 100 100 100 100 100 96 100 100
100 100 100 100 100 100 100 100 100 100 100 100 100 100 100 100 62 97 100 100 26 65 81 39 0 5 20 95 100 100 100 100 83 97 100 100 100 100 100 100 100 100 100 100
100 100 100 100 100 100 100 100 100 100 100 100 92 62 87 100 100 100 100 100 34 31 100 100 87 100 8 17 100 100 100 100 100 100 100 100 100 100 100 100 100 100 100 100
100 100 100 100 100 100 100 100 100 97 100 100 100 100 100 100 100 100 100 98 5 78 97 92 73 100 88 54 100 100 100 100 100 100 100 100 100 100 100 100 100 100 100 97
100 100 100 100 100 100 100 100 100 100 100 100 100 100 83 100 100 100 100 95 98 100 100 62 5 92 83 50 100 100 100 100 100 100 100 100 100 100 100 100 100 100 100 82
100 100 100 100 100 100 100 100 100 100 100 100 100 100 100 100 94 44 40 66 98 96 100 100 88 56 66 100 100 100 100 100 100 100 100 100 100 100 100 100 100 100 100 100
100 100 100 100 100 100 100 100 100 100 100 100 90 25 100 100 100 72 39 72 80 100 100 100 100 92 100 100 100 100 100 100 100 100 100 100 100 100 100 100 100 100 100 100
100 100 100 100 100 100 100 98 79 72 99 72 100 100 100 100 100 100 21 67 86 100 60 35 63 100 100 100 100 100 100 100 100 100 100 100 100 100 100 100 100 100 100 100
100 100 100 100 100 100 100 72 100 100 99 100 100 100 100 100 100 100 100 100 100 100 99 97 100 100 100 100 100 100 100 100 100 100 100 100 100 100 100 100 100 100 100 100
86 94 100 100 92 93 97 82 94 100 100 100 100 100 100 100 100 100 100 100 100 100 100 100 100 100 100 100 100 100 100 100 100 100 100 100 100 100 100 100 100 100 100 100
87 80 66 71 98 100 100 100 100 100 100 100 100 100 100 100 100 100 100 100 100 100 100 100 100 100 100 100 100 100 100 100 100 100 100 100 100 100 100 100 100 100 100 100
57 99 98 100 100 100 100 100 99 97 100 100 100 100 100 100 100 99 100 100 100 100 100 100 100 100 100 100 100 100 100 100 100 100 100 100 100 100 100 100 100 100 100 100
76 97 100 100 100 100 100 100 100 100 100 100 100 100 100 100 100 100 100 100 100 100 100 100 100 100 100 100 100 100 100 100 100 100 100 100 100 100 100 100 100 100 100 100
100 100 100 100 100 100 100 100 100 100 100 100 100 86 100 100 100 100 100 100 100 100 100 100 100 100 100 100 100 100 100 100 100 100 100 100 100 100 100 100 100 100 100 100

GFSNW_prec_cloud_057.txt.gz
Cloud_Cover
100 100 100 100 100 100 100 100 100 100 100 100 96 100 6 5 1 0 0 0 0 5 32 100 92 92 100 92 5 20 6 76 82 100 100 100 100 100 100 70 96 42 99 100
100 100 100 100 100 100 100 100 100 100 100 100 100 100 13 5 1 1 0 0 0 6 15 40 5 4 100 100 100 29 49 52 97 98 100 100 100 100 100 100 91 62 99 100
100 100 100 100 100 100 100 100 100 100 100 10 5 43 76 46 5 0 0 0 0 7 63 5 5 5 100 100 14 79 100 73 30 63 96 100 100 100 100 100 96 99 92 100
100 100 100 100 100 100 100 100 100 67 100 100 82 43 8 12 50 5 1 0 0 0 1 15 8 28 49 98 54 94 100 83 5 77 100 100 100 100 100 35 91 66 100 100
100 100 100 100 100 100 100 100 100 95 6 100 100 99 22 5 4 2 0 0 0 0 0 0 3 66 99 100 100 100 100 100 100 32 100 100 100 100 83 75 97 100 100 100
100 100 100 100 100 100 100 100 99 100 91 99 100 62 5 5 9 0 47 20 1 0 0 1 11 5 56 100 100 81 100 100 100 8 100 100 100 100 100 100 100 100 93 100
96 98 100 100 100 100 100 100 100 100 100 87 25 16 22 6 65 46 6 82 18 0 79 82 5 3 23 100 98 100 99 92 100 97 100 97 100 100 100 100 100 100 100 100
100 100 70 99 100 100 100 100 100 100 100 54 26 58 91 14 15 12 5 0 1 4 100 4 80 5 48 28 100 98 100 100 97 96 100 100 100 100 100 100 100 100 100 100
100 100 100 100 100 100 100 100 100 100 100 100 6 26 100 98 71 61 4 0 25 90 30 14 13 6 23 100 100 100 100 100 75 52 20 77 100 100 100 100 100 100 100 100
53 84 98 100 100 100 93 100 100 100 100 100 100 70 22 55 68 96 97 24 100 96 6 4 5 36 17 100 100 100 100 100 100 100 100 11 82 100 100 100 100 100 100 100
25 10 17 88 100 100 100 100 100 100 100 100 100 100 100 99 54 100 100 100 100 100 5 4 5 85 55 100 100 100 100 100 100 100 100 81 100 100 100 100 100 100 100 82
65 5 18 40 100 100 100 100 100 97 99 100 100 100 76 100 100 100 100 100 100 5 2 5 4 89 28 100 100 100 100 100 100 100 58 28 100 82 100 100 100 100 82 10
80 63 64 72 99 100 100 100 100 100 100 100 100 57 100 100 100 93 100 100 98 6 1 10 42 15 84 99 100 100 100 100 100 81 99 100 100 100 100 100 100 100 100 84
88 97 100 100 100 100 100 100 100 100 100 100 100 100 100 100 88 100 53 38 77 100 95 100 72 65 35 53 60 97 100 100 100 44 100 100 100 100 100 100 100 100 100 97
32 90 100 100 100 100 100 100 100 100 100 100 100 100 68 85 93 80 68 100 100 100 100 98 100 98 99 52 79 100 100 100 100 85 100 100 100 99 100 100 100 100 100 99
97 100 100 100 100 100 100 100 100 100 100 100 100 42 99 100 100 100 100 100 100 100 100 90 100 100 100 100 44 100 100 100 100 100 100 100 97 100 88 100 100 100 100 100
100 100 100 100 100 100 95 100 100 98 100 100 99 97 100 100 98 100 100 100 100 100 100 100 100 100 100 99 45 100 100 100 19 23 41 25 98 100 100 100 100 100 100 100
100 100 100 100 100 100 100 100 99 100 95 100 83 97 71 92 86 100 98 100 100 100 100 100 100 100 100 100 100 100 100 100 32 36 100 88 98 100 100 100 100 100 100 100
100 100 100 100 100 100 100 77 86 94 94 98 100 96 92 99 100 100 100 100 100 100 99 85 100 100 100 100 100 100 100 100 98 100 100 100 100 100 100 100 100 100 100 100
98 100 83 100 100 100 100 100 100 100 100 100 100 100 100 100 100 100 100 100 100 100 94 99 100 100 100 100 100 100 100 100 100 100 100 100 100 100 100 100 100 100 100 100
100 100 100 100 100 100 100 100 100 100 100 100 100 100 100 100 100 100 100 100 100 64 44 100 100 100 100 100 100 100 100 100 100 100 100 100 100 100 100 100 100 100 100 100
100 100 100 100 100 100 100 100 100 100 100 100 100 100 100 100 100 100 95 78 98 95 100 100 100 100 90 97 100 100 100 100 100 100 100 100 100 100 100 100 100 100 100 100
100 100 100 100 100 96 89 100 98 94 100 100 100 100 100 100 100 100 100 100 100 100 100 100 100 100 100 100 100 100 100 100 100 100 100 100 100 100 100 100 100 100 100 100
100 99 84 77 86 91 95 97 99 100 100 100 100 100 100 100 100 100 100 100 100 100 100 100 100 100 100 100 100 97 100 100 100 100 100 100 100 100 100 100 100 100 100 100
77 94 99 100 100 99 99 96 97 99 100 100 100 100 99 100 100 100 100 100 100 100 100 100 100 100 100 100 100 100 100 100 100 100 100 100 100 100 100 100 100 100 100 100
100 100 100 100 100 100 95 96 99 100 100 100 100 99 100 100 100 100 100 100 100 100 100 100 100 100 100 100 100 100 100 100 100 100 100 100 100 100 100 100 100 100 100 100
100 100 100 100 100 100 100 100 100 100 100 100 100 100 100 100 100 100 100 100 100 100 100 100 100 100 100 100 100 100 100 100 100 100 100 100 100 100 100 100 100 100 100 100

GFSNW_prec_cloud_060.txt.gz
Cloud_Cover
100 100 100 100 100 100 100 100 100 70 100 100 99 99 14 6 5 5 72 98 100 97 100 100 86 100 100 100 100 100 100 100 100 100 100 100 100 100 100 97 100 100 100 94
100 100 100 100 100 100 100 100 100 100 82 94 100 34 14 49 45 4 5 7 24 100 12 92 46 70 100 100 100 100 100 100 100 100 98 88 99 100 95 99 100 60 100 100
100 100 100 100 100 100 100 100 100 100 100 19 56 100 100 81 61 4 3 3 0 3 66 5 35 27 43 100 100 100 100 34 37 80 100 100 87 82 100 95 79 86 26 100
100 100 100 100 100 100 100 100 100 51 100 100 100 77 60 32 91 100 4 0 1 0 1 0 0 8 47 100 100 100 100 100 100 100 100 100 100 94 100 100 78 86 98 100
100 100 100 100 100 100 100 100 100 100 15 100 100 100 29 8 94 82 83 5 0 0 0 0 0 2 2 98 100 100 100 60 72 92 100 100 85 82 96 100 100 100 100 100
100 100 100 100 100 100 100 100 100 100 100 100 100 65 14 97 86 50 50 48 60 0 2 2 0 2 29 1 37 100 100 100 100 17 98 100 98 10 64 98 98 100 100 100
100 100 100 100 100 100 100 100 100 100 100 59 50 58 99 24 51 67 1 3 80 5 8 2 0 0 0 0 1 18 85 100 100 100 100 100 99 14 15 86 100 100 100 100
100 100 100 100 100 100 100 100 100 100 100 43 16 8 45 91 5 5 5 3 7 48 5 5 4 0 1 0 0 5 8 100 100 100 100 34 28 100 81 74 100 100 100 100
100 100 100 100 100 100 100 100 100 100 100 86 83 78 84 98 98 93 7 100 100 100 66 23 39 6 0 5 52 85 100 100 100 100 100 100 5 71 100 100 100 100 100 100
100 93 100 100 100 100 100 100 100 100 100 58 82 52 18 96 93 73 100 100 100 100 39 34 5 57 0 0 4 62 100 100 100 100 100 82 68 28 100 91 72 100 100 100
100 100 100 100 100 100 100 100 100 100 100 100 100 100 92 100 100 100 100 100 18 99 86 90 7 6 4 0 2 0 100 100 100 100 100 100 100 100 88 81 100 100 100 100
76 61 68 98 99 100 100 100 100 100 100 100 100 100 100 100 100 100 99 76 98 80 13 8 5 7 5 0 4 1 5 77 100 100 100 100 100 100 100 70 96 100 100 97
5 5 5 28 96 77 100 100 100 100 100 100 100 100 100 91 92 92 18 49 53 70 13 88 100 12 5 4 5 0 88 100 99 100 100 100 100 100 100 100 100 100 100 100
100 67 16 74 57 97 99 100 100 100 100 100 100 100 100 100 100 81 78 94 98 62 100 100 95 9 5 5 96 17 62 98 100 100 100 100 100 98 44 100 69 98 100 100
100 100 99 100 100 98 100 100 100 100 100 66 63 97 100 99 99 86 100 100 100 99 100 100 99 20 58 30 90 4 93 100 100 100 100 100 100 90 94 100 100 100 100 100
100 100 100 100 100 100 100 100 100 100 100 100 100 100 100 88 98 98 100 100 100 90 89 100 100 100 18 6 2 59 100 100 100 100 100 100 100 100 100 100 100 100 100 100
100 100 100 100 100 100 100 100 100 100 100 100 100 100 100 100 83 77 18 11 16 46 100 100 100 100 100 91 86 100 100 100 100 100 100 100 100 100 100 100 100 100 100 100
34 100 100 100 100 100 100 100 100 100 100 98 100 100 73 45 83 100 100 100 100 100 100 100 100 100 100 100 100 100 100 100 100 59 100 100 100 100 84 79 98 95 100 100
100 100 100 100 100 100 100 100 99 100 82 57 100 99 98 100 100 100 100 100 100 100 100 100 100 100 100 100 100 100 100 100 100 100 100 100 100 34 42 32 100 100 100 100
100 99 100 100 100 100 100 100 100 100 100 100 100 70 100 100 100 100 100 100 100 100 100 100 100 100 100 99 98 100 100 100 100 100 100 100 89 100 100 100 100 100 100 100
100 100 100 98 96 100 95 87 100 89 50 84 90 85 100 100 100 100 100 100 100 100 100 100 100 100 95 89 74 96 100 100 100 100 100 100 100 100 100 100 100 96 89 100
100 100 100 100 100 100 100 100 100 99 98 100 100 100 100 100 100 100 100 100 100 100 96 79 99 100 100 97 87 92 100 100 100 100 100 100 100 100 100 100 100 100 100 100
100 100 100 100 100 100 100 100 100 100 100 100 100 100 100 100 100 100 100 100 100 100 100 99 100 100 100 100 100 100 100 100 100 100 100 100 100 100 100 100 100 100 100 100
100 100 100 100 100 100 100 100 100 100 100 100 100 100 100 100 100 100 100 100 100 100 100 100 100 100 100 100 100 100 100 100 100 100 100 100 100 100 100 100 100 100 100 100
100 100 100 100 100 97 97 100 88 100 100 100 100 100 100 100 100 100 100 100 100 100 100 100 100 100 100 100 100 100 100 100 100 100 100 100 100 100 100 100 100 100 100 100
100 100 100 100 98 98 84 90 100 100 100 100 100 100 100 100 100 100 100 100 100 100 100 100 100 100 100 100 100 100 100 100 100 100 100 100 100 100 100 100 100 100 100 100
100 100 100 100 99 100 98 99 100 100 100 100 100 100 100 100 100 100 100 100 100 100 100 100 100 100 100 100 100 100 100 100 100 100 100 100 100 100 100 100 100 100 100 100

GFSNW_prec_cloud_063.txt.gz
Cloud_Cover
3 21 99 100 90 100 100 100 100 100 86 100 100 96 86 67 11 46 100 100 100 99 86 86 93 100 100 100 100 100 100 100 100 100 100 100 100 100 100 100 100 97 100 100
78 82 98 100 100 100 100 100 100 100 94 100 100 100 18 21 51 44 12 100 100 100 98 98 92 100 100 100 100 100 100 100 100 100 100 100 100 100 100 100 100 100 96 100
80 100 100 100 100 100 100 100 100 100 100 42 32 100 100 98 5 5 5 17 39 95 97 94 100 100 100 100 100 100 100 100 100 100 100 100 100 100 100 100 100 100 100 100
100 100 100 100 100 100 100 100 100 100 100 100 93 78 66 85 97 68 5 5 5 17 63 18 12 97 100 100 100 100 100 100 100 100 100 100 100 100 100 100 100 100 100 100
100 100 100 100 100 100 100 100 100 100 71 100 100 100 60 100 100 75 5 5 5 2 2 6 5 20 5 88 82 100 100 100 100 100 100 100 100 100 100 100 100 100 100 100
100 100 100 100 100 100 100 100 100 100 100 100 100 96 100 99 100 92 11 14 5 5 5 0 0 1 2 42 5 64 4 100 100 16 100 100 96 100 100 100 100 92 19 96
100 100 100 100 100 100 100 100 100 100 100 58 94 100 100 100 100 99 100 89 62 85 7 40 12 5 2 0 0 2 23 94 100 100 100 100 52 67 100 100 88 62 88 100
100 100 100 100 100 100 100 100 100 100 100 100 100 100 100 100 100 100 100 100 100 91 24 94 51 4 0 0 4 0 1 12 100 100 90 14 7 100 100 100 100 99 60 90
100 100 100 100 100 100 100 100 100 100 100 100 100 100 100 100 100 99 100 100 100 64 7 87 90 16 0 7 90 26 59 100 79 100 100 62 4 100 100 100 92 100 100 35
100 100 100 100 100 100 100 100 100 100 100 100 100 100 100 100 100 94 100 100 55 48 8 100 99 97 52 3 95 84 83 100 100 100 98 42 70 100 100 100 74 100 75 6
100 100 100 100 100 100 100 100 100 100 100 100 100 100 100 100 100 100 100 100 96 84 65 34 46 51 68 20 4 2 39 87 76 74 86 100 100 100 100 93 99 100 100 55
100 100 100 100 100 100 100 100 100 100 100 99 100 100 100 100 99 100 100 100 100 95 5 20 5 1 7 5 13 3 4 0 5 2 90 100 100 100 100 100 100 98 100 68
100 100 100 100 100 100 100 100 100 100 100 100 86 100 95 100 94 100 100 100 100 100 100 98 65 6 5 4 4 56 5 4 5 1 0 3 100 100 100 100 100 97 100 72
100 100 100 100 100 100 100 100 100 100 100 100 100 100 100 100 100 100 100 100 100 100 99 11 18 61 4 4 5 21 2 6 0 0 76 100 100 100 100 100 100 100 100 100
100 89 99 28 100 100 100 100 100 94 91 100 100 100 100 100 100 100 100 100 100 100 100 94 66 30 24 98 100 70 100 44 15 0 79 100 100 100 100 100 100 100 100 100
100 100 95 15 71 100 100 100 100 100 99 46 78 100 100 100 100 100 100 100 100 100 100 100 70 6 89 98 99 100 100 100 100 100 98 100 100 100 100 100 100 100 100 100
100 100 100 100 100 99 100 97 69 100 91 100 99 70 92 100 100 100 100 100 98 100 99 70 6 100 92 100 100 100 100 100 100 75 27 100 100 100 100 100 100 100 100 96
100 100 100 100 100 100 98 100 100 100 100 100 100 98 96 100 100 96 65 100 100 100 63 78 100 100 100 100 100 100 100 100 98 98 100 100 100 100 100 100 100 100 100 100
100 100 100 100 100 100 100 100 100 100 100 100 100 100 100 100 100 99 100 100 100 100 98 78 100 100 100 100 100 100 100 100 99 100 100 100 100 100 100 100 100 100 100 61
100 100 100 100 100 100 100 100 100 100 100 100 97 100 100 93 91 77 100 100 100 100 99 100 100 99 100 100 100 100 100 100 100 100 100 100 100 100 100 100 100 100 100 100
100 100 100 100 100 100 100 100 100 97 97 84 80 99 90 99 100 100 100 100 100 100 100 100 100 98 100 100 100 100 100 100 100 100 100 100 100 100 100 100 100 100 100 100
99 73 100 100 94 100 100 89 72 78 93 100 100 100 100 100 100 100 100 100 100 100 100 100 100 100 92 100 100 100 100 100 100 100 100 100 100 100 100 100 100 100 100 100
100 100 100 88 65 80 86 92 92 98 100 100 100 100 100 100 100 100 100 100 100 100 100 100 100 100 100 100 100 100 100 100 100 100 100 100 100 100 100 100 100 100 100 100
100 100 100 100 100 100 100 100 100 100 100 100 100 100 100 100 100 100 100 100 100 97 90 100 100 100 100 100 100 100 100 100 100 100 100 100 100 100 100 100 100 100 100 100
100 100 100 100 100 100 100 100 100 100 100 100 100 100 100 100 100 100 100 100 100 100 100 100 100 100 100 99 100 100 100 100 100 100 100 100 100 100 100 100 100 100 100 100
100 92 100 89 100 100 100 100 100 100 100 100 100 100 100 100 100 100 100 98 98 100 100 100 100 100 100 100 100 100 100 100 100 100 100 100 100 100 100 100 100 100 100 100
100 100 100 95 98 99 100 100 100 100 100 100 100 100 100 100 100 100 100 100 100 100 100 100 100 100 100 100 100 100 100 100 100 100 100 100 100 100 100 100 100 100 100 100

GFSNW_prec_cloud_066.txt.gz
Cloud_Cover
4 5 5 1 3 10 95 100 100 98 92 100 100 100 100 100 100 100 100 100 67 98 89 100 100 100 100 100 100 100 100 70 100 100 100 100 100 92 85 99 5 5 59 100
24 11 16 20 12 48 69 100 100 98 100 99 100 100 80 13 100 100 100 100 100 100 96 62 100 100 100 100 100 100 100 100 80 100 100 100 100 92 92 19 4 53 91 100
5 14 8 6 5 25 100 100 100 100 100 99 38 100 96 96 26 89 97 97 100 100 96 12 74 100 79 100 100 100 100 100 100 100 100 100 90 88 75 100 8 83 48 100
96 100 100 100 98 76 100 100 100 91 100 100 100 90 100 100 100 45 48 11 6 62 100 67 58 100 93 45 100 100 100 100 100 100 100 100 100 100 100 100 100 100 100 100
74 100 100 100 100 100 100 100 100 100 100 98 100 100 100 100 100 97 12 5 53 100 14 37 50 47 35 83 100 100 100 100 100 100 100 100 100 100 98 36 100 100 100 100
100 100 100 100 100 100 100 100 100 100 100 80 100 100 100 100 100 100 100 100 100 95 100 20 5 5 15 5 5 48 95 100 100 100 100 100 100 100 100 100 87 100 100 100
100 100 100 100 100 98 100 100 100 100 100 100 100 100 100 100 100 100 100 100 100 100 86 85 85 91 5 5 4 1 1 98 100 100 100 100 100 100 100 100 100 100 100 100
100 100 100 100 100 100 100 100 100 100 100 100 100 100 100 100 100 100 100 100 100 100 100 84 66 32 7 4 0 0 0 94 100 80 44 70 100 100 100 100 100 100 98 100
100 100 100 100 100 100 100 100 100 100 100 90 99 100 100 100 100 100 100 100 100 100 100 100 100 100 10 1 3 0 21 60 47 91 100 32 87 100 100 100 31 100 100 74
100 100 100 100 100 100 100 100 100 100 100 99 100 100 100 100 100 100 100 100 100 100 100 100 98 99 100 7 90 54 99 97 82 61 85 10 0 68 100 100 13 5 50 13
100 100 100 100 100 100 100 100 100 100 100 100 100 100 100 100 100 100 100 100 100 100 100 100 100 83 9 5 3 5 18 50 98 92 100 58 0 4 100 100 97 40 32 10
100 100 100 100 100 100 100 100 100 100 100 100 100 100 100 100 100 100 100 100 100 100 94 42 18 5 20 3 5 0 4 2 6 2 9 0 0 0 3 99 83 96 74 100
100 100 100 100 100 100 100 100 100 100 100 100 100 100 100 100 100 100 100 100 100 90 100 100 52 4 2 5 5 0 4 3 5 36 0 0 0 0 100 95 100 98 33 19
100 100 100 100 100 100 100 100 100 100 100 100 100 100 100 100 100 100 100 100 100 100 100 75 13 8 1 4 4 1 3 5 1 0 0 0 0 0 17 20 100 100 100 96
98 82 100 100 100 100 100 100 100 100 100 100 100 100 100 100 100 100 100 100 100 100 100 84 39 5 4 5 16 86 17 34 28 0 58 98 57 0 0 0 41 92 100 100
82 31 100 100 100 100 100 100 100 100 100 100 100 97 100 100 100 100 100 100 100 100 100 92 33 5 5 23 9 90 98 70 100 96 98 87 8 26 5 0 100 100 100 100
100 100 95 94 100 100 100 100 100 100 100 100 100 100 100 100 100 97 100 100 100 100 100 100 100 94 100 98 50 97 39 92 100 100 100 100 67 68 100 63 100 100 100 100
100 100 100 100 100 100 100 100 100 100 100 100 100 100 100 100 100 100 100 100 100 100 100 100 100 100 100 100 83 54 88 100 64 100 100 100 100 94 50 67 28 100 100 100
100 100 100 100 100 100 100 100 94 84 73 100 100 100 100 59 100 100 100 100 100 100 100 100 100 100 100 98 96 90 100 100 99 100 100 100 100 100 86 100 100 100 100 100
100 100 100 100 100 100 100 100 100 100 100 100 100 100 100 99 100 100 100 100 100 100 98 100 100 97 100 79 76 100 100 100 100 100 100 100 100 100 100 100 100 100 100 100
100 100 100 100 100 100 100 100 100 100 100 100 100 100 76 100 97 100 100 100 97 94 100 100 100 100 100 100 100 100 100 100 100 100 100 100 100 100 100 100 100 100 100 100
100 100 100 100 100 100 100 100 100 100 99 100 100 100 91 100 83 99 100 100 100 100 100 99 93 100 100 98 95 94 98 100 100 100 100 100 100 100 100 100 100 100 100 100
100 100 100 100 87 99 97 100 98 100 100 100 100 100 97 96 93 99 100 100 100 100 99 100 99 100 94 93 94 100 100 100 100 100 100 100 100 100 100 100 100 100 100 100
100 100 100 96 100 100 100 98 95 99 100 100 100 100 100 100 100 100 100 100 100 100 100 100 100 100 100 100 100 100 100 100 100 100 100 100 100 100 100 100 100 97 100 100
100 98 98 87 100 100 100 100 100 100 100 100 100 100 100 100 100 100 100 100 100 100 100 100 100 100 100 100 100 100 100 100 100 100 100 100 100 100 100 100 100 100 100 100
100 100 100 100 100 100 100 100 100 100 100 100 100 100 100 100 100 100 100 100 100 100 100 100 100 100 100 100 100 100 100 100 100 100 100 100 100 100 100 100 100 100 100 100
100 100 82 100 100 100 100 100 100 100 100 100 100 100 100 100 100 100 100 100 100 100 100 100 100 100 100 100 100 100 100 100 100 100 100 100 100 100 100 100 100 100 100 100

GFSNW_prec_cloud_069.txt.gz
Cloud_Cover
17 5 5 2 0 0 7 71 100 53 83 100 100 100 88 69 100 100 100 100 100 100 100 100 100 100 100 100 100 100 100 100 100 100 100 100 100 98 81 32 99 8 91 100
91 25 5 5 5 7 5 100 97 84 100 100 100 100 99 9 70 100 99 100 100 100 100 100 100 100 100 100 100 100 100 100 100 100 100 100 100 100 95 70 29 37 76 100
40 5 5 5 35 5 30 100 96 100 100 100 83 100 73 16 4 24 91 100 100 100 100 100 100 100 100 100 100 100 100 100 100 100 100 100 100 100 100 52 54 10 5 81
8 5 5 5 81 28 84 100 96 96 100 63 99 98 100 22 5 5 5 88 100 100 73 5 78 100 88 100 100 100 100 100 100 100 100 100 81 33 86 100 27 5 81 5
5 5 5 6 73 87 100 100 100 100 100 97 100 100 100 26 5 6 96 35 99 80 100 98 5 99 58 25 100 100 100 100 100 100 100 100 100 100 100 100 37 9 5 80
90 71 14 5 44 73 71 100 100 100 11 88 100 88 93 26 7 44 100 100 80 100 100 57 8 6 24 34 36 100 100 100 100 100 100 100 100 100 100 100 100 100 100 100
100 100 100 100 100 85 41 100 100 100 97 100 70 100 100 5 5 83 100 100 98 100 97 16 5 22 5 6 7 5 23 76 94 83 89 53 100 100 100 100 100 100 100 100
100 100 100 100 100 100 100 100 100 100 94 50 93 99 100 94 100 100 100 100 100 100 100 100 98 47 9 5 5 5 0 3 30 48 73 54 96 100 100 100 99 86 10 100
100 100 100 100 100 100 100 100 100 100 100 57 5 99 100 100 100 100 100 100 100 100 100 100 97 99 8 7 2 26 6 6 5 100 28 17 84 100 98 100 100 100 100 28
100 100 100 100 100 100 100 100 100 100 100 95 5 14 100 100 100 100 100 100 100 100 100 96 97 48 63 21 13 100 100 100 52 90 68 4 5 4 8 51 77 10 93 100
100 100 100 100 100 100 100 100 100 100 100 71 100 100 100 100 100 100 100 100 100 100 100 96 91 54 11 5 43 94 32 58 91 84 73 47 0 0 2 0 2 1 1 4
100 100 100 100 100 100 100 100 100 100 100 100 100 100 100 100 100 100 100 100 100 100 84 33 24 63 35 5 5 5 5 2 6 7 2 0 0 10 1 0 0 0 0 5
80 100 100 100 100 100 100 100 100 100 100 100 100 100 100 100 100 100 100 100 100 100 100 95 70 7 100 55 20 5 2 0 0 0 0 0 0 0 0 0 0 0 0 5
48 100 100 100 100 100 100 100 100 100 100 100 100 100 100 100 100 100 100 100 100 100 89 94 100 52 55 64 66 38 5 0 0 0 0 0 0 0 43 0 0 0 0 0
100 100 100 100 100 100 100 100 100 100 100 100 100 100 100 100 100 100 100 100 100 100 100 100 100 100 100 100 61 22 5 5 0 0 46 98 85 3 88 5 5 0 0 3
100 100 100 100 100 100 100 100 100 100 100 100 100 100 100 100 100 100 100 100 100 100 100 100 100 100 96 46 10 8 42 77 52 74 90 46 83 93 100 96 10 4 2 5
95 88 100 100 100 100 100 100 100 100 100 100 100 100 100 100 100 100 100 100 100 100 100 100 100 100 100 81 7 77 92 81 100 100 99 100 100 100 100 87 34 3 16 43
100 100 100 100 100 100 100 100 100 100 100 100 100 100 100 100 100 100 100 100 100 100 100 100 100 100 100 100 97 100 48 13 34 100 100 100 100 100 95 100 99 98 61 98
100 100 100 100 100 100 100 100 100 100 100 100 100 100 100 100 100 100 100 100 100 100 100 100 100 100 100 100 100 99 100 100 100 78 90 100 100 100 100 100 100 100 96 100
100 100 100 100 100 100 100 100 100 100 100 100 100 100 100 60 72 100 100 100 100 100 100 100 100 100 100 100 100 100 100 100 100 100 100 100 100 96 100 100 100 100 100 100
99 100 100 100 100 100 100 100 100 100 100 100 100 100 100 100 100 99 100 100 100 100 100 100 94 100 100 98 100 100 100 96 93 93 100 100 100 100 100 100 100 100 100 100
100 100 100 100 100 96 94 81 93 96 98 100 100 100 100 100 100 100 97 100 88 99 100 100 100 100 100 98 100 100 100 100 100 100 100 100 100 100 100 100 100 100 100 100
100 100 100 100 100 100 100 100 94 72 100 100 100 100 100 96 97 100 100 100 100 100 100 100 100 100 100 100 100 100 100 100 100 100 100 100 100 100 100 100 100 100 100 100
100 100 98 89 77 89 100 100 100 98 100 100 100 88 99 100 97 100 100 100 96 100 100 100 100 100 100 100 100 100 100 100 100 100 100 100 100 100 100 100 100 100 100 100
100 100 100 100 100 100 100 100 89 100 100 100 100 100 100 100 100 100 100 100 100 100 100 100 100 100 100 100 100 100 100 100 100 100 100 100 100 100 100 100 100 100 100 100
98 100 100 100 95 100 100 100 100 100 100 100 100 100 100 100 100 100 100 100 100 100 100 100 100 100 100 100 100 100 100 100 100 100 100 100 100 100 100 100 100 100 100 100
97 100 100 100 100 100 100 100 100 100 100 100 100 100 100 100 100 100 100 100 100 100 100 100 100 100 100 100 100 100 100 100 100 100 100 100 100 100 100 100 100 100 100 100

GFSNW_prec_cloud_072.txt.gz
Cloud_Cover
100 100 100 100 100 84 5 88 98 19 28 100 100 100 51 99 13 64 6 31 100 100 100 100 100 96 100 100 100 100 100 100 100 100 100 100 100 100 66 88 94 74 98 100
16 100 100 95 90 5 24 100 80 8 79 99 100 77 27 48 92 5 20 12 98 100 100 100 100 100 86 100 100 100 100 100 100 100 100 100 100 56 100 100 100 83 100 98
9 100 100 49 4 25 38 58 49 45 95 97 100 86 79 100 37 7 56 71 14 100 92 100 100 100 100 100 100 100 100 100 100 100 100 100 100 100 100 100 100 100 97 100
100 87 98 7 0 72 61 91 77 93 90 58 100 99 98 87 100 20 5 32 14 95 91 100 100 100 100 100 100 100 100 100 100 100 100 100 100 100 100 100 77 86 100 100
5 5 95 5 1 75 100 98 83 25 89 97 100 100 96 80 86 93 76 30 97 81 100 95 100 100 100 93 100 100 100 100 100 100 100 100 100 100 100 100 100 100 100 100
21 39 85 7 5 14 99 79 46 40 86 67 100 20 18 88 100 99 92 95 100 95 75 99 100 100 100 100 100 100 100 100 100 100 100 100 100 98 100 100 100 100 100 85
94 16 84 100 100 46 54 94 52 99 51 84 69 92 84 93 100 96 70 99 100 99 41 89 19 85 100 100 100 98 100 100 100 100 100 100 100 100 100 100 100 100 100 86
100 100 100 100 100 100 100 52 96 92 82 85 42 93 90 67 72 100 100 100 100 98 100 98 99 81 93 100 100 100 99 76 96 67 100 100 100 100 100 100 100 100 100 100
100 100 100 100 100 100 100 97 61 97 100 11 4 79 77 99 100 99 99 100 100 100 100 98 97 100 100 71 98 52 48 73 94 100 75 100 100 100 100 100 100 100 55 8
100 100 100 100 100 100 100 100 100 65 100 6 92 66 89 42 86 100 100 100 100 100 100 100 99 100 95 99 99 99 100 98 82 98 97 94 55 80 98 91 78 16 22 7
100 100 100 100 100 100 100 100 100 90 100 8 60 12 89 40 68 100 100 100 100 100 100 100 100 100 98 95 100 74 100 96 84 95 100 99 5 6 59 71 91 100 80 15
100 100 100 100 100 100 100 100 100 100 100 59 28 7 15 100 100 100 100 100 100 100 100 100 100 98 65 96 100 38 99 75 95 53 92 25 13 2 6 4 5 2 4 5
98 100 100 100 100 100 100 100 100 100 100 57 44 92 100 100 100 100 100 100 100 100 100 100 100 100 98 98 55 91 8 5 9 34 6 3 4 0 0 0 0 0 0 0
100 100 100 100 100 100 100 100 100 100 100 100 91 100 100 100 100 100 100 100 100 100 100 100 100 97 70 100 100 14 40 7 3 4 5 5 0 0 0 0 0 0 0 0
100 100 97 100 100 100 100 100 100 100 100 100 100 100 100 100 100 100 100 100 100 100 100 100 99 100 100 100 100 67 30 5 11 5 5 1 0 4 53 10 35 21 0 0
100 92 99 100 100 100 100 100 100 100 100 100 100 100 100 100 100 100 100 100 100 100 100 100 100 100 100 100 100 100 100 16 6 7 53 99 99 98 100 100 79 10 4 0
100 99 100 100 100 100 100 95 100 100 100 100 100 100 100 100 100 100 100 100 100 100 100 100 100 93 100 100 100 100 100 92 28 57 54 34 99 100 100 100 95 54 52 38
100 100 100 100 100 100 100 100 100 100 100 100 100 100 100 100 100 100 100 100 100 100 100 100 96 94 100 100 99 100 100 100 68 100 99 100 100 100 100 100 100 100 100 97
100 100 100 100 100 100 100 100 100 100 100 100 100 100 100 100 100 100 100 100 100 100 100 100 100 100 100 100 99 98 100 100 94 43 62 100 100 100 100 92 100 100 100 100
100 100 100 100 100 100 100 100 100 100 100 92 99 100 100 100 100 100 100 100 100 100 100 100 100 100 100 99 100 100 99 100 100 78 82 76 94 94 88 91 100 100 100 100
100 100 100 100 100 100 100 100 100 100 100 99 92 100 100 100 100 100 100 100 100 100 100 100 100 100 100 100 100 97 100 100 100 100 100 100 100 100 96 100 100 100 100 100
100 100 100 100 100 100 100 100 100 100 100 100 100 100 100 100 100 100 100 100 100 100 100 100 100 100 100 100 100 100 100 100 100 100 100 100 100 99 100 100 100 100 100 100
100 100 100 100 100 100 100 100 100 100 100 100 100 100 100 100 100 100 98 92 100 100 100 100 100 100 100 100 100 100 100 100 100 100 100 100 100 100 100 100 100 100 100 100
100 100 100 100 100 92 100 100 100 100 100 100 100 100 93 90 98 98 90 97 97 100 100 100 100 100 100 100 100 100 100 100 100 100 100 100 100 100 100 100 100 100 100 100
100 100 100 100 100 100 100 100 100 100 100 100 84 88 89 89 100 100 100 100 100 100 100 100 100 100 100 100 100 100 100 100 100 100 100 100 100 100 100 100 100 100 100 100
100 99 100 100 100 100 100 100 100 100 100 98 87 100 100 100 100 99 100 100 100 100 100 100 100 100 100 100 100 100 100 100 100 100 100 100 100 100 100 100 100 100 100 100
100 100 100 100 100 100 100 100 100 100 96 99 98 100 99 100 100 100 100 100 100 100 100 100 100 100 100 100 100 100 100 100 100 100 100 100 100 100 100 100 100 100 100 100

GFSNW_prec_cloud_075.txt.gz
Cloud_Cover
98 88 99 100 100 100 100 100 100 100 100 100 100 99 97 33 94 80 52 6 5 5 25 100 95 100 100 100 100 100 100 100 100 100 100 100 100 100 100 100 100 100 100 100
62 5 49 100 100 100 100 100 100 100 100 96 89 75 98 100 97 93 96 100 10 5 64 100 100 94 100 100 100 100 100 100 100 100 100 100 100 100 100 100 100 100 100 100
100 8 5 100 100 100 100 99 100 100 99 59 62 100 96 99 100 99 100 100 100 100 100 100 100 100 100 100 100 100 100 100 100 100 100 100 100 100 100 100 100 100 100 100
6 5 5 100 100 100 45 100 78 98 98 67 89 100 91 100 100 83 100 100 100 100 100 100 100 100 100 100 100 100 100 100 100 100 100 100 100 100 100 100 100 100 100 100
20 5 5 24 100 79 79 100 93 99 100 99 27 18 41 100 100 100 100 100 100 100 100 100 100 100 100 100 100 100 100 100 100 100 100 100 100 100 100 100 100 100 100 100
100 28 5 3 6 66 96 95 62 90 92 98 100 86 12 6 94 65 100 100 100 100 100 100 100 97 100 100 100 100 100 100 100 100 100 100 100 100 100 100 100 100 100 100
100 100 61 4 4 11 63 35 84 100 68 100 100 99 97 100 62 88 82 100 62 100 23 70 78 83 93 100 100 100 100 100 100 100 100 100 100 100 100 100 100 100 100 100
100 100 100 48 5 5 9 91 97 99 97 100 100 100 99 94 83 88 100 100 100 53 100 54 94 89 100 63 100 100 100 100 100 100 100 100 76 100 100 100 100 100 100 100
100 100 100 100 100 100 95 100 100 100 94 47 100 100 79 98 73 100 43 94 99 98 100 99 100 91 60 89 100 100 100 100 100 100 100 100 100 100 100 100 81 100 100 100
100 100 100 100 100 100 100 100 100 100 100 5 88 91 100 100 100 98 100 100 100 100 100 100 100 98 100 87 80 100 100 100 100 100 100 100 100 100 100 100 100 99 99 100
100 100 100 100 100 100 100 100 100 98 100 98 9 75 89 53 85 99 88 100 100 100 100 100 100 100 82 96 83 100 100 100 100 100 100 100 100 100 90 61 92 100 100 100
100 100 100 100 100 100 100 100 100 100 100 74 34 57 88 94 100 100 100 100 100 100 94 66 100 96 65 88 100 100 100 100 100 100 100 100 97 96 92 62 40 19 5 5
100 100 100 100 100 100 100 100 100 100 100 94 67 42 4 3 43 92 100 100 100 100 100 100 100 98 100 94 97 100 100 100 100 92 99 98 100 96 71 10 5 5 5 5
98 99 100 100 100 100 100 100 100 100 100 98 10 6 5 16 11 82 100 100 100 100 100 100 98 100 92 100 100 100 100 100 100 81 88 84 100 33 23 1 1 18 10 23
35 95 100 100 100 100 100 100 100 100 100 65 15 38 5 29 100 100 100 100 100 100 100 100 100 100 100 85 95 99 100 100 97 88 68 8 61 20 21 4 47 99 49 46
77 73 99 100 100 100 100 100 100 100 100 100 99 74 57 100 100 100 100 100 100 100 100 100 100 100 100 100 100 100 100 99 100 35 93 64 0 33 29 11 19 100 100 53
99 100 100 100 100 100 100 100 100 100 100 98 100 100 100 100 100 100 100 100 100 100 100 100 100 100 99 97 100 100 100 100 60 31 11 9 15 80 64 39 7 63 96 74
100 99 100 100 100 100 100 100 100 100 100 100 100 99 100 100 100 100 100 100 100 100 100 100 98 100 100 99 99 100 100 100 100 100 100 76 98 100 100 97 96 37 43 74
100 100 100 100 100 100 100 100 100 100 100 91 100 100 100 83 100 100 100 100 100 100 100 91 96 100 100 100 99 100 100 100 100 100 100 100 100 100 98 95 88 81 98 100
100 100 100 100 100 100 100 100 100 100 100 100 100 100 100 100 100 100 100 100 100 100 100 100 100 100 99 100 84 86 98 100 100 97 97 80 100 100 100 100 100 100 100 100
100 100 100 100 100 100 100 100 100 100 100 100 100 100 100 95 100 100 100 100 100 100 100 100 100 100 100 100 100 100 100 100 100 100 100 100 100 100 100 100 100 100 100 100
100 100 100 100 100 100 100 100 100 100 100 100 100 100 100 100 100 100 100 100 100 100 100 100 100 100 100 100 100 100 100 100 100 100 100 100 100 100 100 100 100 100 100 100
100 100 100 100 100 100 100 100 100 100 100 100 100 100 100 100 100 100 100 100 100 100 100 100 100 100 100 100 100 100 100 100 100 100 100 100 100 100 100 100 100 100 100 100
100 100 100 100 100 100 100 100 100 100 100 100 100 100 100 100 100 100 100 100 100 100 100 100 100 100 100 100 100 100 100 100 100 100 100 100 100 100 100 100 100 100 100 100
100 100 98 100 100 100 100 100 100 100 100 100 100 94 84 100 97 99 100 100 100 100 100 100 100 100 100 100 100 100 100 100 100 100 100 100 100 100 100 100 100 100 100 100
100 100 100 100 100 100 100 100 100 100 100 88 95 92 94 98 95 94 100 100 100 100 100 100 100 100 100 100 100 100 100 100 100 100 100 100 100 100 100 100 100 100 100 100
100 100 100 100 100 100 100 100 100 100 100 100 81 85 98 99 98 98 100 100 100 100 100 100 100 100 100 100 100 100 100 100 100 100 100 100 100 100 100 100 100 100 100 100

GFSNW_prec_cloud_081.txt.gz
Cloud_Cover
5 10 7 63 84 31 30 100 96 100 100 100 77 100 100 100 100 89 100 100 100 100 100 100 100 84 65 5 5 20 58 100 100 100 100 100 100 100 100 100 100 100 100 100
86 13 4 44 100 97 97 100 5 70 100 100 100 100 100 100 100 100 78 100 100 100 100 100 82 100 17 5 4 4 100 100 100 100 100 100 100 100 100 100 100 100 100 100
92 5 27 100 100 85 93 100 46 14 100 100 100 100 100 100 100 100 100 100 100 100 100 100 100 99 100 44 2 0 6 100 100 100 100 100 100 100 100 100 100 100 100 100
88 10 92 100 20 100 96 100 34 68 100 100 100 100 100 100 100 100 100 100 100 100 100 100 86 33 100 93 7 9 11 100 100 100 100 100 100 100 100 100 100 100 100 100
77 30 100 100 50 28 97 100 5 69 82 100 100 100 100 100 100 100 100 100 100 100 100 100 79 5 6 8 85 99 68 100 100 100 100 100 100 100 100 100 100 100 100 100
100 100 100 100 99 11 98 99 5 30 69 100 100 100 100 100 100 100 100 100 96 83 45 14 74 66 7 5 36 30 73 95 100 100 100 100 100 100 100 100 100 100 100 100
100 83 100 100 100 46 10 7 5 32 19 24 96 100 100 100 100 100 100 94 100 8 23 5 5 1 4 2 65 92 91 100 100 100 100 100 100 100 100 100 100 100 100 64
92 5 100 100 100 97 68 3 38 77 28 5 4 28 100 100 100 100 97 99 90 20 17 34 91 37 2 2 43 34 5 5 63 100 100 100 100 100 100 100 100 100 100 89
100 100 34 79 97 100 87 68 4 88 88 11 4 55 97 62 91 99 59 6 39 5 63 99 100 9 3 1 0 0 0 5 4 96 100 100 100 100 100 100 100 100 100 100
100 100 100 100 85 100 100 65 94 44 100 100 97 14 62 29 65 14 89 32 16 12 85 100 44 71 1 6 37 98 18 17 5 32 86 100 100 100 100 100 96 72 100 100
100 100 100 100 100 98 100 98 100 75 100 100 51 78 38 100 100 95 51 28 78 100 86 100 8 5 1 39 100 100 100 100 98 85 94 97 100 100 100 100 100 100 83 100
100 100 100 100 100 100 100 100 100 100 84 94 45 3 6 41 69 83 99 100 100 100 99 47 86 5 43 100 100 100 100 100 95 48 83 70 100 100 100 100 100 100 100 100
100 100 100 100 100 100 100 100 100 100 100 100 22 7 96 5 5 31 43 100 100 100 100 92 70 100 100 100 100 100 100 100 100 100 87 100 100 100 100 100 100 100 100 100
100 100 100 100 100 100 100 100 100 100 94 100 100 58 2 4 4 6 54 97 100 100 49 99 100 100 100 100 100 100 100 100 100 100 100 100 100 100 100 100 100 100 100 100
99 100 100 100 100 100 100 100 100 100 100 100 100 86 41 5 5 1 76 100 100 100 67 100 100 100 100 100 100 100 100 100 100 100 100 100 100 100 100 100 100 100 91 100
100 100 100 100 100 100 100 100 100 100 100 100 100 28 42 0 5 0 6 100 100 50 100 100 100 100 100 100 100 100 100 100 100 100 100 100 100 100 100 100 98 99 100 100
100 100 100 98 100 100 100 100 100 100 100 100 97 82 67 5 19 90 14 100 89 96 100 100 100 100 100 100 100 100 100 100 100 100 100 100 100 100 100 100 100 100 100 100
100 100 100 100 100 100 100 100 100 100 100 100 91 83 100 43 48 29 61 92 62 100 100 100 100 100 100 100 100 100 100 100 100 100 100 98 100 100 100 100 100 100 100 100
100 100 100 100 100 100 100 100 100 100 95 98 100 82 100 34 52 96 100 100 100 100 100 94 84 99 100 100 100 100 100 100 100 92 100 100 100 100 95 71 99 100 100 100
100 100 100 100 100 100 100 100 100 100 100 98 94 96 100 51 67 98 99 100 100 100 100 100 100 100 100 100 100 100 100 100 100 100 100 82 100 99 100 95 96 100 100 100
100 100 100 100 100 100 100 100 100 100 100 25 98 98 100 100 94 100 100 100 100 100 100 92 100 100 100 100 100 100 99 98 87 93 99 94 93 100 100 100 100 100 100 100
100 100 100 100 100 100 100 100 100 100 81 68 91 100 100 100 100 100 100 100 100 100 100 100 100 100 100 100 100 100 100 100 70 97 100 98 99 82 78 93 99 100 98 96
100 100 100 100 100 100 100 86 74 97 100 100 100 100 100 94 97 100 100 96 100 100 100 100 100 100 86 58 87 94 88 100 88 86 66 81 100 90 72 98 93 79 84 87
100 100 100 100 80 76 100 100 100 100 100 100 96 99 100 100 100 100 100 100 100 100 100 100 100 96 100 100 100 45 76 62 62 86 75 88 98 100 79 77 79 81 89 96
100 100 100 100 100 100 100 100 100 100 100 100 98 83 98 100 98 100 90 94 100 100 100 100 100 96 92 71 35 56 78 79 87 58 60 72 69 80 91 84 89 100 99 86
100 100 100 100 100 100 100 100 100 100 100 100 94 100 100 100 100 100 100 100 100 100 93 94 92 99 100 100 100 100 100 100 99 100 96 96 98 97 100 100 89 88 97 93
100 100 100 100 100 100 100 100 100 100 100 100 100 100 100 100 100 100 84 98 97 100 100 100 100 100 100 100 100 100 100 100 87 72 67 76 90 99 98 97 94 98 99 100

GFSNW_prec_cloud_087.txt.gz
Cloud_Cover
5 5 3 0 5 44 5 42 75 46 100 100 90 65 34 100 100 100 100 100 100 100 100 100 98 100 100 100 100 100 100 100 100 100 100 100 100 96 100 100 73 100 100 76
5 4 3 5 70 77 9 89 81 100 100 100 69 5 100 100 100 100 100 100 100 100 100 100 100 100 100 100 100 100 100 100 100 100 100 99 99 79 99 100 100 100 100 79
5 5 5 29 100 66 33 99 100 100 100 100 100 45 100 100 100 100 100 100 100 100 100 100 100 100 100 100 100 100 100 100 100 100 99 84 100 100 100 84 100 100 100 100
9 5 5 100 100 95 89 89 96 100 100 100 100 100 100 100 100 100 100 100 100 100 100 100 84 100 100 100 100 100 100 100 100 100 5 31 7 49 72 100 100 100 100 100
6 5 5 99 100 98 100 86 90 100 100 100 100 100 100 100 100 100 100 100 100 100 100 100 100 100 100 100 100 100 100 100 100 100 25 5 5 88 75 100 100 100 100 100
5 5 5 100 100 100 100 100 92 46 55 100 100 100 100 100 97 100 100 100 100 100 100 100 100 100 100 100 100 100 99 100 100 53 13 5 5 91 100 99 100 100 100 100
5 22 74 100 100 95 100 100 100 100 61 68 100 100 100 100 100 100 100 100 100 100 100 100 100 100 100 87 100 86 95 69 54 82 17 5 13 97 99 100 100 100 100 100
10 68 33 100 100 96 100 100 100 91 76 39 100 100 100 100 100 100 100 100 100 100 100 100 100 100 100 96 8 18 6 5 63 52 7 5 67 85 72 100 100 100 100 100
31 46 5 100 100 73 100 100 100 96 39 8 98 100 100 100 100 100 100 100 100 100 100 100 100 100 100 100 100 5 5 5 5 98 54 13 100 78 93 100 100 100 100 100
5 34 31 100 100 95 100 100 100 100 86 5 14 100 100 100 100 100 100 100 100 100 100 100 100 100 100 100 98 38 26 41 81 75 82 7 99 31 100 73 100 100 100 100
5 33 65 100 100 90 100 100 100 100 78 77 5 12 100 100 100 100 100 100 100 100 100 100 100 100 54 100 100 99 18 66 60 85 98 72 100 8 100 47 96 100 100 100
100 73 96 100 100 97 100 100 100 100 100 87 7 5 0 4 62 98 100 100 100 100 100 100 99 92 28 38 30 6 12 84 100 100 100 65 40 98 97 100 89 100 100 100
100 75 100 100 99 63 100 100 100 100 100 93 70 83 82 1 4 5 16 60 79 100 100 100 100 100 100 68 13 96 50 98 100 100 96 100 100 100 98 100 100 97 100 100
100 100 100 100 94 100 100 100 100 100 100 95 100 90 9 19 0 0 4 94 79 100 99 100 100 84 68 87 51 99 100 100 100 100 100 100 100 100 100 99 100 100 100 100
100 100 100 100 100 100 100 100 100 100 100 100 100 38 74 55 0 0 4 42 100 100 100 100 90 66 81 72 100 100 100 100 100 100 100 100 100 100 100 100 100 100 100 100
97 100 100 100 100 100 100 100 100 100 100 99 93 65 85 100 18 0 1 98 100 100 100 100 97 100 97 100 100 100 100 100 100 100 100 100 100 100 100 100 100 100 100 100
100 100 100 100 100 100 100 100 99 100 100 99 77 97 100 100 14 5 11 88 96 87 100 100 98 60 90 100 100 100 100 100 100 100 100 100 100 100 100 100 100 100 100 100
100 100 100 100 100 100 100 100 100 100 100 92 100 100 100 80 60 92 90 96 93 98 100 98 100 52 100 100 100 100 100 100 100 100 100 100 100 100 99 100 100 100 100 100
100 100 100 100 100 100 100 100 100 100 70 100 100 100 100 92 96 98 96 87 100 88 77 82 84 92 100 100 100 100 100 100 100 100 100 100 100 100 89 100 100 100 100 100
100 100 100 100 100 100 100 100 100 100 100 100 95 56 100 98 100 100 100 100 8 98 99 100 100 100 100 100 100 100 100 100 100 100 100 100 72 78 66 97 100 96 100 100
100 100 100 100 100 100 100 100 96 99 99 100 95 100 82 95 100 78 58 83 94 100 100 99 100 100 100 100 99 100 99 100 100 100 100 100 100 97 97 100 100 100 100 100
100 100 100 100 100 100 100 99 93 100 91 100 97 98 99 100 100 100 100 100 100 100 100 100 100 100 100 100 100 100 62 60 82 100 100 95 99 100 98 100 99 99 95 88
100 100 100 100 100 100 35 79 100 100 100 89 100 100 99 100 100 100 100 100 99 92 100 100 100 93 99 72 60 79 89 99 100 100 100 100 100 96 82 98 88 82 81 90
100 100 100 100 91 58 46 47 63 96 100 95 100 100 91 100 86 100 99 75 88 92 74 74 100 100 100 100 100 100 100 95 85 95 77 81 80 98 80 75 76 83 87 86
100 97 70 68 68 70 100 84 98 100 100 100 100 100 99 100 99 100 85 92 100 99 94 100 100 100 99 92 53 57 72 76 88 80 100 100 100 100 100 100 100 90 63 67
99 97 99 96 88 100 99 98 100 100 100 94 100 100 96 99 100 100 100 94 80 100 99 99 99 100 100 98 85 99 100 100 100 99 90 77 64 64 97 81 59 70 58 66
100 100 100 80 78 89 100 100 94 100 100 99 49 100 100 86 85 99 100 86 49 99 100 100 99 99 100 100 100 100 83 82 81 75 59 75 70 67 64 84 91 67 67 65

GFSNW_prec_cloud_093.txt.gz
Cloud_Cover
7 5 5 5 5 5 4 41 5 0 5 22 47 94 100 5 0 60 100 100 100 100 100 100 100 100 100 100 100 100 100 100 100 100 100 100 100 100 100 99 56 86 99 100
44 5 5 5 5 5 5 43 5 0 62 69 64 33 35 69 7 100 100 100 100 100 100 100 100 100 100 100 100 100 100 100 100 100 100 100 100 99 29 71 88 96 86 58
84 5 5 5 5 8 5 16 5 4 75 62 50 91 86 86 91 100 100 100 100 100 100 100 100 100 100 100 100 100 100 100 100 100 100 100 100 100 35 6 32 8 100 100
92 40 10 3 16 22 21 46 18 37 80 7 6 84 66 100 100 100 100 100 100 100 100 100 100 100 100 100 100 100 100 100 100 99 86 100 100 100 47 5 14 100 85 100
83 11 5 2 17 35 100 81 71 82 69 5 5 80 100 100 100 100 100 100 100 100 100 100 100 100 100 100 100 100 100 100 100 97 74 92 100 33 97 9 74 100 100 46
100 84 5 0 41 94 95 100 100 99 6 5 5 5 23 98 100 100 100 100 100 100 100 100 100 100 100 100 100 100 100 100 100 96 82 100 100 100 100 100 100 100 86 48
93 97 5 5 68 92 98 97 100 100 84 6 5 5 5 68 100 100 100 100 100 100 82 100 100 100 100 100 100 100 100 100 100 84 100 100 100 100 100 100 100 96 5 14
100 96 4 7 88 80 100 99 100 100 84 5 5 3 58 38 100 100 100 100 100 100 100 100 100 100 100 100 50 100 75 100 100 100 100 100 100 100 100 100 75 46 43 20
100 83 5 5 60 66 100 87 100 100 90 2 5 5 32 69 100 100 100 100 100 47 100 97 100 100 100 100 100 100 100 100 100 100 100 100 100 99 98 18 96 88 82 42
94 5 5 5 5 49 100 100 100 100 98 5 5 5 5 53 100 100 100 92 100 100 75 55 75 96 100 100 100 100 100 100 100 100 100 100 100 22 5 5 30 100 98 100
99 10 0 5 5 17 99 100 83 100 68 5 5 5 5 5 93 100 100 100 100 100 100 100 100 100 100 100 100 100 100 100 100 100 100 100 100 7 30 77 100 100 100 100
95 40 2 1 5 5 89 100 100 100 100 50 5 5 3 5 19 95 100 100 100 100 100 100 100 100 100 100 100 100 100 100 100 100 100 100 100 100 100 100 100 100 100 100
39 5 5 5 15 36 72 100 100 100 100 100 97 6 4 5 7 51 89 100 100 96 100 100 100 94 97 92 91 98 99 99 99 100 100 100 100 100 100 100 100 100 100 100
5 5 5 75 99 98 98 93 100 100 100 100 58 23 5 5 4 5 21 92 100 100 100 100 100 100 99 99 85 99 83 62 96 100 100 100 99 100 100 100 100 100 100 100
5 36 100 100 100 100 99 90 87 90 100 79 67 11 5 5 5 5 2 5 5 6 31 100 100 100 100 100 100 88 93 100 100 100 100 100 100 100 100 100 100 100 100 99
45 97 89 100 100 100 100 100 100 100 100 100 100 100 81 70 6 5 5 5 5 5 25 100 100 60 93 99 100 100 100 100 100 100 100 100 100 100 99 100 100 100 84 98
100 100 100 100 100 97 100 100 64 100 100 100 100 100 71 78 58 6 5 5 7 10 100 100 99 35 57 93 100 100 100 100 100 100 100 100 100 97 100 100 98 76 89 98
100 100 100 100 100 100 100 100 100 100 100 100 100 99 95 96 52 28 14 38 88 95 94 100 99 99 100 80 86 72 88 98 100 100 100 99 99 100 100 100 100 83 98 100
100 100 100 100 100 100 100 100 100 100 100 100 98 84 100 100 100 99 99 88 90 61 96 100 100 100 100 79 100 88 80 67 100 100 100 100 100 100 100 100 100 98 100 100
100 100 100 100 100 100 100 100 100 100 100 100 100 73 100 100 100 100 100 63 70 100 85 81 99 73 96 96 85 94 91 91 100 100 100 100 100 100 100 100 100 100 100 100
100 100 100 100 100 100 100 100 100 100 99 100 100 78 100 85 98 100 62 84 12 48 27 59 100 100 100 100 100 98 78 100 100 100 100 100 100 100 100 100 100 100 100 100
100 100 100 100 100 100 80 96 100 100 83 63 100 100 55 79 100 99 100 97 80 79 96 100 100 100 100 100 100 97 74 84 100 100 100 100 100 100 100 100 100 99 98 91
100 100 100 100 100 100 56 100 100 98 96 77 99 83 100 98 100 99 100 100 96 97 99 97 71 100 99 80 100 89 89 99 81 98 98 100 100 92 68 99 93 72 91 100
100 100 100 59 79 39 96 100 91 12 61 41 89 100 93 100 100 100 100 98 94 97 94 100 100 100 100 100 100 100 80 60 69 87 73 86 99 100 88 75 45 63 76 85
100 100 82 82 14 39 99 100 100 100 57 69 74 92 70 99 100 98 100 100 100 100 100 100 100 100 100 100 100 100 100 100 100 100 100 100 89 89 100 76 56 88 98 99
100 95 52 81 94 100 100 100 99 100 99 80 52 63 78 74 82 100 100 100 100 100 100 100 100 100 100 100 100 100 93 94 74 76 69 73 74 64 96 94 73 88 97 99
100 100 76 91 64 77 80 84 100 100 100 84 49 66 15 22 52 100 100 100 100 100 100 100 100 91 98 100 100 95 84 66 67 78 55 51 76 87 98 71 92 78 84 82

GFSNW_prec_cloud_096.txt.gz
Cloud_Cover
5 5 5 5 4 1 0 5 2 0 21 74 68 100 100 92 94 100 100 100 100 100 100 100 100 100 100 100 100 100 100 100 100 100 100 100 100 100 100 100 100 100 100 91
5 5 5 5 5 5 8 8 3 1 66 16 16 39 93 100 100 100 100 100 100 100 100 100 100 100 100 100 100 100 100 100 100 100 100 100 100 100 100 100 100 100 100 100
49 7 5 5 5 5 5 14 14 10 13 48 86 21 71 87 100 100 100 100 100 100 100 100 100 100 100 100 100 100 100 100 100 100 100 100 100 100 100 100 100 100 100 97
80 16 5 5 5 5 39 15 40 10 64 60 55 11 45 96 97 80 100 100 100 100 100 100 100 100 100 100 100 100 100 100 100 100 100 100 100 100 100 100 72 50 86 94
84 58 24 11 19 22 27 71 75 91 76 85 16 5 37 57 100 88 100 100 100 100 100 100 100 100 100 100 100 100 100 100 100 100 100 100 100 100 100 87 54 25 66 66
100 26 62 82 81 22 98 70 36 46 44 23 5 4 0 42 98 100 100 100 100 100 100 100 100 100 100 100 100 100 100 100 100 100 100 100 100 99 100 31 7 28 48 76
95 99 88 100 69 60 99 92 68 98 80 82 5 4 0 42 76 87 100 100 100 100 100 100 100 100 100 100 100 100 100 100 100 100 100 100 61 35 80 45 65 62 75 97
99 96 100 100 100 100 91 100 61 82 94 48 4 5 4 27 32 100 100 100 74 100 100 92 100 100 100 100 100 100 100 83 97 88 98 89 83 91 53 26 58 77 92 100
100 100 100 100 100 100 70 97 100 96 80 77 5 5 5 5 100 51 100 100 100 42 100 36 100 100 100 93 100 100 100 100 100 100 100 100 99 99 100 100 100 100 100 100
100 100 100 100 100 98 82 100 100 100 100 32 5 96 6 5 33 100 100 100 92 59 100 98 99 100 97 90 100 100 100 100 100 100 100 90 90 48 93 100 75 100 100 100
100 100 100 100 100 15 61 100 100 97 96 70 21 5 25 62 50 86 100 100 75 98 100 99 99 95 98 100 100 100 100 100 100 100 100 100 100 59 99 100 100 100 100 100
100 100 100 100 65 5 80 100 100 100 100 99 57 9 5 5 8 21 100 57 48 100 100 87 100 100 99 100 100 100 100 84 100 100 100 100 100 100 100 100 100 100 100 100
100 100 99 6 4 4 84 100 100 100 100 83 92 17 5 3 52 79 100 100 20 90 86 97 100 100 59 100 100 100 100 100 99 100 100 100 100 100 100 100 100 100 100 100
100 97 5 4 4 4 97 98 94 100 100 99 68 5 4 5 6 62 79 100 56 10 81 99 100 100 58 100 91 100 100 100 100 100 100 100 100 100 100 100 100 100 100 100
99 25 5 5 12 38 87 100 97 94 80 100 89 62 5 5 5 10 57 77 100 100 90 93 98 86 84 72 59 99 100 100 100 100 100 100 100 100 100 96 95 100 100 100
80 5 5 75 100 99 100 100 94 99 98 100 91 12 59 28 5 5 9 20 75 100 92 76 98 35 99 99 100 100 100 100 100 100 100 100 96 99 100 100 97 99 90 82
95 11 92 81 99 100 100 71 96 90 100 100 98 100 100 100 100 87 42 72 92 74 92 42 73 87 31 75 100 100 100 100 100 100 100 100 100 100 100 88 93 78 89 98
28 66 100 100 100 100 100 99 100 100 100 100 100 76 98 100 100 93 58 86 72 95 81 87 74 87 99 100 93 92 92 100 100 100 100 100 100 90 97 90 89 98 98 100
100 100 100 100 100 100 100 100 100 100 100 100 100 86 99 88 94 100 76 97 93 70 100 86 42 100 99 98 89 99 91 81 71 100 100 100 100 99 99 100 100 100 100 100
100 100 100 100 100 100 100 100 100 100 100 83 100 67 85 72 100 100 98 55 87 89 78 100 100 100 100 100 100 100 84 61 51 99 100 100 100 100 99 97 100 100 100 100
100 100 100 100 100 100 100 100 100 98 92 100 100 78 81 77 100 93 76 70 54 92 78 98 100 100 100 100 100 100 84 63 70 80 99 100 100 100 100 100 100 100 100 100
100 100 100 100 100 100 96 100 100 100 54 91 100 99 99 90 91 88 100 87 85 88 87 96 100 100 100 100 100 100 89 93 96 91 99 99 100 100 100 100 100 100 100 100
100 100 100 100 100 94 90 100 100 91 59 80 79 94 86 67 100 100 96 99 96 63 100 98 100 100 100 99 100 95 94 100 100 96 96 100 97 93 97 100 100 100 100 100
100 100 100 98 92 94 100 100 31 17 41 82 100 72 100 100 100 100 98 96 86 100 98 99 100 100 100 100 100 100 100 100 100 100 100 100 100 100 100 100 100 100 100 100
100 100 86 94 98 100 100 85 36 100 28 99 99 89 80 97 97 94 98 100 100 100 100 100 100 100 100 100 100 99 99 100 100 100 100 100 100 100 100 100 100 93 87 58
86 53 85 86 97 100 99 96 97 99 100 61 41 78 99 98 100 98 100 100 100 100 100 100 100 100 95 98 91 94 100 100 100 100 100 100 100 100 100 100 100 100 98 87
63 96 77 100 94 92 100 100 95 100 75 84 68 94 97 73 81 80 100 100 100 100 100 100 99 86 89 92 90 94 100 100 100 100 93 97 100 100 99 100 100 99 61 10

GFSNW_prec_cloud_099.txt.gz
Cloud_Cover
98 100 100 100 36 0 5 5 29 1 5 94 59 56 37 22 49 53 94 100 100 100 100 100 100 99 97 38 95 100 100 100 100 100 100 100 100 100 100 100 100 100 100 100
100 100 100 100 52 0 5 5 3 3 5 22 8 5 98 69 42 59 76 98 100 100 100 100 100 100 100 99 76 100 100 100 100 100 100 100 100 100 100 100 100 100 100 100
54 40 83 96 5 1 7 15 62 52 7 38 51 30 44 77 87 56 87 99 100 100 100 100 100 100 100 100 100 100 100 100 100 100 100 100 100 100 100 100 100 100 100 100
94 52 75 22 5 5 39 28 41 5 62 58 6 47 72 88 80 97 99 97 99 100 100 100 100 100 99 100 100 100 100 100 100 100 100 100 100 100 100 100 100 100 100 100
96 28 98 51 8 5 87 79 73 8 6 5 5 56 49 5 5 58 82 97 100 100 100 100 100 100 100 100 100 100 100 100 100 100 100 100 100 100 100 100 100 100 100 100
82 6 5 6 5 32 100 79 52 74 5 5 5 53 3 0 5 37 90 100 98 100 100 100 100 100 100 100 100 100 100 100 100 100 100 100 100 100 100 100 100 100 100 100
82 92 76 9 5 14 83 82 98 100 58 17 5 0 0 0 0 10 48 92 96 100 100 100 100 100 100 100 100 100 100 100 100 100 100 100 100 100 100 100 100 100 100 100
99 47 65 33 25 5 98 93 85 100 98 90 40 5 5 5 5 74 7 95 100 100 100 100 100 100 100 100 100 100 100 100 100 100 100 100 100 100 100 100 100 100 100 100
100 96 94 98 52 39 90 95 80 74 74 93 0 9 43 49 16 5 37 100 100 100 100 100 100 100 100 100 100 100 100 100 100 100 100 100 100 100 100 100 100 100 94 82
100 76 100 100 91 100 100 99 99 99 98 95 18 98 90 96 29 5 15 100 75 100 69 100 100 100 100 100 100 100 100 100 100 78 87 88 99 98 77 75 100 100 96 92
100 100 100 94 99 100 100 100 100 100 96 78 88 97 98 100 100 100 88 90 88 95 100 98 100 100 100 100 72 100 100 100 100 98 84 99 97 91 82 100 100 100 100 100
100 100 100 100 100 100 100 100 100 100 100 43 38 8 5 8 82 88 100 38 99 100 96 90 98 100 100 100 100 83 100 100 100 94 100 100 100 100 100 100 100 100 100 100
100 100 100 100 100 100 100 100 100 100 100 23 36 31 62 5 5 13 92 93 70 100 98 84 100 99 100 100 100 100 100 100 100 100 100 100 100 100 100 100 100 100 100 100
100 100 100 100 100 100 100 100 100 94 97 80 89 4 9 5 5 81 100 93 50 100 100 100 100 97 96 90 100 100 100 100 100 100 100 100 100 100 100 100 100 100 100 96
100 100 100 100 100 90 61 98 100 90 69 100 44 24 67 5 5 100 100 100 75 83 100 100 99 81 71 84 84 100 86 100 100 100 100 94 100 100 95 74 74 73 81 83
92 59 40 18 6 4 88 98 48 91 100 90 50 89 30 20 5 19 100 100 100 91 92 55 16 43 94 100 98 96 99 100 100 100 100 100 100 100 100 95 90 100 100 81
5 30 5 5 8 94 99 85 100 89 100 99 72 100 75 49 100 100 100 100 100 100 99 84 96 100 70 79 97 100 100 100 100 100 100 100 100 99 92 85 92 96 30 31
5 5 5 20 97 93 90 70 100 100 100 100 90 100 100 100 100 100 100 100 100 100 91 100 33 84 68 98 99 100 100 100 100 100 100 100 96 94 95 100 100 96 93 98
15 96 100 100 100 100 100 86 100 100 100 100 94 85 100 100 100 91 81 100 100 75 63 75 69 82 67 99 100 89 93 100 100 100 100 100 98 100 80 89 92 79 100 100
53 100 100 100 100 100 100 100 100 100 100 91 100 67 99 72 91 98 95 99 94 100 97 49 94 100 92 98 94 98 90 95 85 100 100 100 100 100 100 100 96 100 100 100
100 100 100 100 100 100 100 99 92 100 100 87 92 79 100 77 75 98 77 77 41 91 90 87 100 100 100 95 100 97 95 81 57 60 77 93 97 100 100 100 100 100 100 100
98 99 100 100 100 100 100 91 84 100 100 89 98 83 100 65 51 92 42 80 61 96 60 80 100 100 100 100 100 100 100 94 76 94 95 99 99 100 100 100 100 100 100 100
100 100 100 100 100 99 92 100 100 100 71 83 89 92 90 54 66 93 96 89 95 38 100 95 98 100 100 99 100 100 100 100 100 94 93 100 100 100 100 100 100 100 100 100
100 100 100 97 96 100 100 98 54 97 72 100 100 87 94 97 90 100 99 68 80 94 100 91 99 100 100 100 100 100 100 100 100 100 100 100 100 100 100 100 100 100 100 100
100 100 81 100 100 100 100 99 100 99 83 97 97 79 72 92 87 95 96 98 99 100 100 100 100 100 100 100 100 100 100 100 100 100 100 100 100 100 100 100 100 100 100 67
100 93 100 100 100 100 100 100 100 100 100 69 80 99 100 97 94 91 100 100 100 100 100 100 100 100 96 100 100 100 100 100 100 100 100 100 100 100 100 100 100 100 100 80
100 100 100 100 100 100 100 100 100 100 75 100 99 99 99 90 100 100 100 100 100 100 100 100 100 100 100 100 100 100 100 100 100 100 100 100 100 100 100 100 100 100 98 71

GFSNW_prec_cloud_102.txt.gz
Cloud_Cover
100 100 100 100 100 100 100 13 45 3 0 84 12 5 20 40 86 60 99 58 87 84 80 100 100 100 100 74 100 100 100 99 100 100 100 100 100 100 100 100 100 100 100 100
100 100 100 100 99 100 100 61 5 4 0 25 5 5 72 76 34 75 68 86 83 93 100 100 100 66 100 100 39 64 100 100 100 100 100 100 100 100 100 100 100 100 100 100
100 100 100 100 100 100 32 10 16 38 28 6 1 3 68 60 44 5 66 89 81 100 81 92 100 100 100 97 95 100 100 100 100 100 100 100 100 100 100 100 100 100 100 100
100 100 100 100 100 6 64 18 14 5 52 77 11 19 25 66 36 58 99 42 100 100 67 97 100 100 100 100 98 100 100 100 100 100 100 100 100 100 100 100 100 100 100 100
100 100 100 63 21 49 66 86 65 26 4 5 5 37 38 6 5 54 99 99 100 93 100 61 100 100 100 100 100 100 100 100 100 100 100 100 100 100 100 100 100 100 100 100
100 96 75 94 93 18 50 5 5 1 27 28 21 81 5 4 5 3 60 74 97 99 100 100 100 100 100 100 100 100 100 100 100 100 100 100 100 100 100 100 100 100 100 100
100 66 98 74 52 67 69 81 11 42 32 27 64 6 3 5 5 1 3 10 19 98 100 100 100 100 100 100 100 100 100 100 100 100 100 100 100 100 100 100 100 100 100 100
100 100 91 16 5 6 65 48 91 63 62 70 98 24 5 5 5 53 10 12 5 72 100 100 100 100 100 100 100 100 100 100 100 100 100 100 100 100 100 100 100 100 100 100
100 100 100 100 90 13 38 76 26 80 99 77 72 5 91 94 83 10 30 6 1 100 100 100 100 100 100 100 100 100 100 100 100 100 100 100 100 100 100 100 100 100 100 100
100 100 100 100 100 64 52 64 34 33 81 95 72 98 80 88 71 63 80 4 31 99 100 100 100 100 100 100 100 100 100 100 100 100 100 100 100 100 100 100 100 100 100 100
100 100 100 100 89 86 43 58 66 84 96 64 80 82 35 85 76 92 43 32 95 33 100 100 100 100 100 100 100 100 100 100 100 100 94 100 100 100 100 100 100 100 100 100
100 100 100 100 98 100 14 96 65 72 100 25 16 11 7 5 6 59 10 62 94 24 100 100 100 100 100 100 100 100 100 100 100 100 100 100 100 100 100 100 100 100 100 100
100 100 100 100 100 100 22 99 78 100 100 100 100 54 20 5 7 5 45 98 52 82 100 100 100 100 100 100 100 100 100 100 97 100 100 100 100 100 100 100 100 100 100 100
100 100 100 100 100 83 9 65 100 93 100 100 93 33 37 5 5 5 9 18 68 100 100 100 100 100 100 100 100 100 100 96 100 100 100 100 100 100 100 100 100 100 100 100
100 100 100 100 100 90 76 100 100 100 100 90 40 28 5 12 23 5 34 98 100 100 98 98 89 60 46 100 100 100 100 99 100 100 100 89 100 100 99 85 81 81 84 81
100 100 100 100 100 100 100 100 100 74 19 62 87 91 33 19 5 85 100 100 100 100 100 57 100 100 91 69 98 100 100 100 100 100 98 75 86 100 100 96 90 86 96 100
100 100 100 100 100 97 97 74 100 100 92 78 68 94 96 5 51 67 100 100 100 100 100 96 68 100 100 100 99 100 100 100 100 100 100 99 97 100 100 100 100 100 100 100
100 100 100 72 24 50 66 100 100 100 100 76 89 71 98 100 91 82 73 66 78 34 45 59 46 31 70 100 99 100 100 100 100 100 99 100 79 90 99 100 100 100 100 99
88 98 77 78 42 72 25 79 100 98 100 100 90 100 100 100 100 100 100 88 72 64 72 79 34 60 95 100 100 99 99 100 100 94 99 86 86 100 99 98 89 86 95 98
65 90 100 100 98 24 50 94 100 100 100 100 90 100 92 99 100 100 80 87 97 100 37 58 79 100 100 82 90 100 68 85 86 100 100 99 100 100 94 86 100 99 99 100
98 100 100 100 94 100 100 100 100 95 100 64 94 100 98 90 79 99 67 93 66 74 90 63 95 100 100 100 97 97 98 98 97 85 73 91 96 99 99 100 100 100 100 100
60 97 100 100 100 100 100 62 60 92 64 96 100 100 98 100 99 100 55 39 20 80 77 100 100 100 100 100 99 100 100 96 80 97 98 100 100 100 100 100 100 100 100 100
100 100 100 100 100 100 97 98 92 85 66 100 100 91 96 50 61 86 94 76 64 18 98 89 100 100 100 100 99 100 95 99 100 100 100 100 96 92 100 99 99 99 99 97
100 100 100 100 95 38 6 83 55 25 81 100 100 98 77 50 70 98 86 29 28 95 85 98 100 100 98 100 100 100 99 86 84 90 80 87 100 96 68 79 45 78 94 18
100 100 100 76 63 84 100 100 99 66 100 100 97 93 94 63 76 85 97 56 81 99 100 100 100 100 100 100 100 100 100 94 100 99 96 72 78 100 99 99 96 44 11 5
100 100 100 79 100 100 100 100 100 100 100 100 78 89 99 82 68 88 99 98 100 100 100 100 100 100 100 100 99 98 99 100 98 98 97 88 46 67 72 38 5 5 5 5
100 100 100 100 100 100 100 90 100 100 100 94 84 96 100 71 100 100 100 100 100 100 100 100 100 100 100 99 99 94 94 96 90 96 96 92 85 12 74 97 87 12 85 5

GFSNW_prec_cloud_108.txt.gz
Cloud_Cover
100 100 100 100 100 100 100 100 100 100 100 100 100 98 94 77 6 0 0 4 8 97 52 95 99 54 99 99 100 100 100 100 100 100 100 100 100 100 100 100 100 100 100 100
100 100 100 100 100 100 100 100 100 100 100 100 100 100 100 60 2 0 5 3 27 59 66 75 68 78 94 96 95 94 97 100 100 100 100 100 100 100 100 100 100 100 100 100
100 100 100 100 100 100 100 100 100 100 100 100 100 100 66 5 5 4 5 5 4 1 7 53 81 94 18 44 6 43 100 100 100 100 100 100 100 100 100 100 100 100 100 100
100 100 100 100 100 100 100 100 100 100 100 100 100 46 7 5 5 5 5 4 0 5 2 7 22 89 65 49 5 80 100 100 100 100 100 100 100 100 100 100 100 100 100 100
100 100 100 100 100 100 100 100 100 100 100 100 100 31 8 5 5 4 4 0 0 0 0 0 4 52 7 5 81 87 100 100 100 100 100 100 100 100 100 100 100 100 100 100
100 100 100 100 100 100 100 100 100 100 100 100 88 5 9 5 5 0 4 3 0 0 0 0 56 73 79 98 84 100 100 100 100 100 100 100 100 100 100 100 100 100 100 100
100 100 100 100 100 100 100 100 100 100 100 58 18 5 5 5 5 3 0 0 0 0 0 0 3 6 49 100 100 100 100 100 100 100 100 100 100 100 100 100 100 100 100 100
100 100 100 100 100 100 100 100 100 100 100 14 6 12 3 5 5 1 0 0 0 0 0 1 52 8 98 100 100 100 100 100 100 100 100 100 100 100 100 100 100 100 100 100
100 100 100 100 100 100 100 100 100 66 25 61 5 5 5 5 0 0 0 0 0 0 4 5 95 89 100 100 100 100 100 100 100 100 100 100 100 100 100 100 100 100 100 100
100 100 100 100 100 100 100 100 100 99 82 25 4 5 1 5 1 0 2 0 1 0 8 5 81 100 98 100 100 100 100 100 100 100 100 99 100 100 100 100 100 100 100 100
100 100 100 100 100 100 100 100 24 61 74 5 5 5 0 3 0 5 1 17 5 4 9 5 80 100 100 100 100 100 100 100 100 100 100 96 100 77 83 100 100 100 100 100
100 100 100 100 100 100 100 100 40 6 6 5 5 5 0 0 0 1 5 26 22 6 5 6 54 100 99 100 100 100 100 100 100 100 100 100 100 100 100 100 100 100 100 100
100 100 100 100 100 100 100 82 91 12 10 8 5 5 5 0 1 4 5 6 5 5 5 22 41 100 100 100 100 100 100 100 100 100 100 100 100 100 100 100 100 100 100 100
100 100 100 100 100 100 100 56 99 29 30 10 44 8 5 5 5 3 5 2 5 5 5 5 26 100 100 100 100 100 100 100 100 100 100 100 100 100 100 100 100 100 100 100
100 100 100 100 100 100 100 100 97 38 70 72 19 3 28 5 14 5 5 5 5 4 4 5 5 100 100 100 100 100 100 100 100 100 100 100 100 100 99 85 86 75 77 86
100 100 100 100 100 100 100 100 99 97 8 96 36 9 5 17 5 9 5 5 5 5 87 5 5 96 100 100 100 100 100 100 100 100 100 100 100 62 34 47 91 96 75 16
100 100 100 100 100 100 100 98 99 82 26 71 26 38 34 100 70 26 43 100 48 17 82 85 6 20 49 100 100 100 100 100 100 100 100 99 79 58 72 28 58 9 33 68
100 100 100 100 100 100 100 100 100 99 34 10 87 65 92 30 36 5 5 6 33 90 97 100 98 97 77 100 100 100 100 100 100 100 100 98 39 5 5 22 33 75 5 22
100 100 100 96 87 99 89 99 100 79 87 66 94 58 99 45 56 5 10 5 10 16 27 55 55 95 100 100 100 100 100 82 94 100 100 100 98 91 69 17 6 38 98 75
100 100 100 100 100 100 52 87 97 94 100 96 80 7 5 5 12 42 80 14 32 62 56 13 100 99 100 100 91 100 89 95 90 82 88 81 5 24 5 61 64 61 42 5
100 100 100 100 92 94 98 100 95 100 66 72 41 5 24 37 31 10 18 36 49 60 93 93 80 97 86 94 99 72 78 97 51 37 100 100 73 13 60 90 81 40 7 69
100 100 100 100 100 100 100 100 100 92 6 5 12 5 5 58 57 51 33 63 10 60 78 100 88 96 87 100 100 99 52 5 5 41 5 5 5 5 5 27 48 57 40 41
100 100 100 100 100 100 100 100 50 72 5 27 5 63 57 29 61 89 60 17 38 76 96 89 57 79 99 100 93 48 38 49 72 17 7 5 5 5 5 60 64 58 44 71
100 100 100 100 100 99 76 5 5 5 5 5 15 23 64 44 58 78 75 35 28 78 49 20 87 73 99 100 100 100 99 70 7 49 17 31 34 87 66 55 61 36 5 5
100 98 82 99 58 92 100 100 69 70 7 6 54 38 42 10 64 99 100 98 83 15 24 69 100 100 100 96 62 37 58 63 61 58 36 75 71 74 100 84 54 5 43 5
97 100 99 98 100 100 100 100 100 50 8 12 5 33 12 66 88 100 95 97 40 64 99 100 100 91 77 72 59 40 20 28 43 56 50 73 73 56 33 62 47 55 21 8
86 98 100 98 99 100 100 100 97 94 5 78 12 10 20 51 96 99 54 92 94 89 99 100 100 78 56 40 46 55 86 99 100 90 92 99 89 62 54 55 74 45 6 26

GFSNW_prec_cloud_114.txt.gz
Cloud_Cover
100 100 100 100 100 100 100 100 100 100 100 100 100 100 100 100 100 100 100 100 100 100 100 100 100 6 5 5 5 5 36 100 98 94 99 98 100 100 100 100 100 100 100 100
100 100 100 100 100 100 100 100 100 100 100 100 100 100 100 100 100 100 100 100 100 100 100 100 15 5 0 5 5 47 100 95 79 100 100 100 100 100 100 100 100 100 100 100
100 100 100 100 100 100 100 100 100 100 100 100 100 100 100 100 100 100 100 100 100 100 100 100 65 5 3 5 5 45 100 100 99 100 100 100 100 100 100 100 100 100 100 100
100 100 100 100 100 100 100 100 100 100 100 100 100 100 100 100 100 100 100 100 100 100 100 18 54 5 1 40 5 57 100 100 100 100 100 100 100 100 100 100 96 100 100 100
100 100 100 100 100 100 100 100 100 100 100 100 100 100 100 100 100 100 100 100 100 100 100 45 54 11 0 0 23 82 100 100 100 100 100 100 100 100 100 100 100 100 100 100
100 100 100 100 100 100 100 100 100 100 100 100 100 100 100 100 100 100 100 100 100 99 62 82 56 5 0 3 5 72 100 100 100 100 100 100 100 100 100 100 100 100 100 100
100 100 100 100 100 100 100 100 100 100 100 100 100 100 100 100 100 100 100 100 100 46 27 99 20 5 5 5 10 92 99 100 100 100 100 100 100 100 100 100 100 100 100 100
100 100 100 100 100 100 100 100 100 100 100 100 100 100 100 100 100 100 100 100 62 17 99 45 6 5 5 5 84 83 100 100 100 100 100 100 100 100 100 100 100 100 100 100
100 100 100 100 100 100 100 100 100 100 100 100 100 99 100 100 100 100 100 87 70 100 79 5 57 81 5 6 59 58 100 100 100 100 100 100 100 100 100 95 99 100 100 100
100 100 100 100 100 100 100 100 100 100 100 100 100 100 100 100 100 100 87 78 85 63 11 5 7 20 6 51 46 93 100 100 100 100 100 100 100 100 100 100 90 99 100 94
100 100 100 100 100 100 100 100 100 100 100 100 100 100 100 100 100 100 88 99 96 28 27 5 5 24 30 96 55 99 96 100 100 100 100 100 100 100 100 100 100 36 75 98
100 100 100 100 100 100 100 100 100 100 100 100 100 100 100 100 100 76 98 72 5 8 11 12 8 33 62 94 100 68 100 100 100 100 100 100 100 100 100 100 100 100 89 38
100 100 100 100 100 100 100 100 100 100 100 100 100 100 100 100 58 85 77 9 53 15 5 5 35 47 72 97 100 100 100 100 100 100 100 100 100 100 100 100 100 100 100 90
100 100 100 100 100 100 100 100 100 100 100 100 100 100 100 78 94 66 5 47 18 5 5 5 16 16 36 98 99 87 100 100 100 100 100 100 100 100 100 100 100 100 100 100
100 100 100 100 100 100 100 100 100 100 100 100 100 100 99 47 34 9 43 12 14 5 5 5 5 8 8 98 94 100 100 100 100 100 100 100 100 100 100 100 100 100 100 100
100 100 100 100 100 100 100 100 100 100 100 100 100 100 32 97 38 61 10 24 6 5 5 3 7 1 5 73 100 100 100 100 100 100 100 100 100 100 100 100 100 100 100 94
100 100 100 100 100 100 100 100 100 100 100 100 100 100 95 78 75 56 62 85 14 5 5 5 4 6 5 80 89 100 100 100 100 100 100 100 100 100 100 100 100 98 62 47
100 100 100 100 100 100 100 100 100 100 100 100 100 96 94 95 100 97 64 57 13 5 5 4 5 5 63 95 100 98 100 100 100 100 100 100 100 100 100 100 100 79 46 12
100 100 100 100 100 100 100 100 100 100 100 100 74 47 99 100 99 80 26 26 5 5 9 5 8 50 71 94 100 99 100 100 100 100 100 100 100 100 100 77 16 18 85 59
100 100 100 100 100 100 100 100 100 100 99 85 99 91 100 94 100 54 17 14 16 58 52 7 100 98 76 87 88 57 47 100 100 100 100 100 100 100 100 99 35 5 5 6
100 100 100 100 100 100 100 100 100 100 86 86 100 98 100 78 81 8 5 51 24 57 69 69 70 71 98 78 80 96 99 79 69 93 100 100 100 100 100 86 38 65 37 57
100 100 100 100 100 100 100 100 97 96 100 100 100 87 53 93 22 7 70 60 55 77 92 97 80 5 28 19 87 100 99 80 55 28 6 39 30 18 26 48 49 36 5 19
100 100 100 100 100 100 100 100 99 100 95 90 85 84 28 84 98 88 99 37 47 88 91 37 5 22 5 5 50 97 72 5 5 5 5 5 5 5 5 51 69 52 72 97
100 100 100 100 100 100 100 90 95 92 67 87 65 85 74 60 50 61 12 18 99 100 63 30 60 19 7 67 94 50 70 10 14 54 21 5 5 68 59 53 59 38 27 42
100 100 100 100 100 100 78 67 85 100 86 40 5 6 17 75 41 57 64 99 91 41 5 5 66 85 92 77 59 70 90 60 63 69 64 82 78 32 98 95 57 26 17 5
100 100 100 100 100 100 100 100 100 91 62 66 42 59 31 11 8 24 39 85 36 5 69 76 93 89 100 97 100 68 56 39 44 39 29 54 66 49 43 75 53 67 39 46
100 100 100 100 100 100 100 100 100 91 100 50 64 6 5 5 5 32 89 53 5 85 100 96 74 100 100 100 81 22 50 28 5 59 60 55 38 53 59 10 5 18 5 40

GFSNW_prec_cloud_117.txt.gz
Cloud_Cover
100 100 30 100 100 100 100 100 100 100 100 100 100 100 100 100 100 100 100 100 100 100 100 100 100 100 100 76 22 5 57 94 100 7 5 100 95 100 100 100 90 92 100 100
100 100 99 100 100 72 97 100 100 100 100 100 100 100 100 100 100 100 100 100 100 100 100 100 100 100 100 19 5 5 35 95 92 5 32 100 100 100 100 100 100 100 100 100
100 100 100 100 100 100 100 100 100 100 100 98 100 100 100 100 100 100 100 100 100 100 100 100 100 100 100 93 5 5 8 75 98 98 100 100 100 100 100 100 100 100 100 100
100 100 100 100 100 100 100 100 100 100 100 100 100 100 100 100 100 100 100 100 100 100 100 100 100 100 100 97 11 5 35 100 92 100 100 100 100 100 100 100 100 100 100 100
100 100 100 100 100 100 100 100 100 100 100 100 100 100 100 100 100 100 100 100 100 100 100 100 100 100 100 86 5 5 51 80 100 98 100 100 100 100 100 100 100 100 100 100
100 100 100 100 100 100 100 100 100 100 100 100 100 100 100 100 100 100 100 100 100 100 100 100 100 100 65 81 11 5 97 100 65 73 100 100 100 100 100 100 100 100 100 100
100 100 100 100 100 100 100 100 100 100 100 100 100 100 100 100 100 100 100 100 100 100 100 100 100 99 83 70 5 17 91 100 93 66 100 100 100 100 100 100 100 100 100 100
100 100 100 100 100 100 100 100 100 100 100 100 100 100 100 100 100 100 100 100 100 100 100 100 100 87 100 55 55 77 83 100 56 97 100 100 100 100 100 100 100 100 100 100
100 100 100 100 100 100 100 100 100 100 100 100 100 100 100 100 100 100 100 100 100 100 100 100 78 93 18 77 96 81 52 65 94 88 100 100 100 100 100 100 100 100 100 100
100 100 100 100 100 100 100 100 100 100 100 100 100 100 100 100 100 100 100 100 100 100 100 98 91 63 5 79 88 96 8 27 88 98 100 100 100 100 100 100 82 100 100 99
100 100 100 100 100 100 100 100 100 100 100 100 100 100 100 100 100 100 100 100 100 100 100 94 80 10 21 82 56 100 34 91 98 98 100 100 100 100 100 100 94 94 85 95
100 100 100 100 100 100 100 100 100 100 100 100 100 100 100 100 100 100 100 100 100 95 98 88 23 18 7 68 100 63 78 29 89 100 100 100 100 100 100 100 100 98 80 100
100 100 100 100 100 100 100 100 100 100 100 100 100 100 100 100 100 100 100 100 100 100 76 83 45 5 9 76 93 100 100 100 100 100 100 100 100 100 100 100 100 100 95 99
100 100 100 100 100 100 100 100 100 100 100 100 100 100 100 100 100 100 100 100 100 94 97 28 5 5 11 73 73 79 92 100 100 100 100 100 100 100 100 100 100 100 100 100
100 100 100 100 100 100 100 100 100 100 100 100 100 100 100 100 100 100 100 100 93 98 28 11 5 5 17 98 43 100 74 100 100 100 100 100 100 100 100 100 100 100 100 100
100 100 100 100 100 100 100 100 100 100 100 100 100 100 100 100 100 100 100 88 81 18 26 5 5 5 5 56 100 78 100 97 100 100 100 100 100 100 100 100 100 100 100 100
100 100 100 100 100 100 100 100 100 100 100 100 100 100 100 100 100 100 95 98 47 40 15 5 5 5 13 81 99 96 100 100 100 100 100 100 100 100 100 100 100 100 100 100
100 100 100 100 100 100 100 100 100 100 100 100 100 100 100 100 100 100 100 70 51 32 11 5 5 5 62 86 99 98 100 99 100 100 100 100 100 100 100 100 100 100 100 100
100 100 100 100 100 100 100 100 100 100 100 100 100 100 100 100 100 100 96 40 91 56 5 5 5 59 87 55 97 79 100 100 100 100 100 100 100 100 100 100 100 100 100 100
100 100 100 100 100 100 100 100 100 100 100 100 100 100 100 100 100 100 87 69 70 5 17 6 96 19 16 77 80 62 100 34 97 100 100 100 100 100 100 100 100 100 100 83
100 100 100 100 100 100 100 100 100 100 100 100 100 100 100 100 100 94 79 58 27 44 76 59 47 32 32 98 90 18 10 78 19 100 100 100 100 100 100 100 100 100 100 92
100 100 100 100 100 100 100 100 100 100 100 100 100 100 100 98 84 76 71 58 22 45 93 98 30 5 38 48 100 68 96 89 55 25 39 80 97 100 100 100 100 100 94 33
100 100 100 99 100 100 100 100 100 100 100 100 100 100 99 92 93 76 80 63 16 92 92 29 5 53 80 38 34 99 82 25 24 28 45 34 19 6 5 25 16 5 33 66
100 100 100 100 100 100 100 100 100 100 100 100 100 98 94 88 83 84 11 84 88 97 43 5 6 54 67 19 8 5 43 13 9 42 6 5 5 27 17 9 25 26 37 68
100 100 100 100 100 100 100 100 100 100 100 98 89 99 80 56 32 9 35 91 94 46 5 5 8 7 6 5 25 61 36 59 96 50 52 52 52 69 74 69 71 77 80 90
100 100 100 100 100 100 100 100 100 100 100 100 85 44 11 52 14 5 5 12 5 5 5 38 76 49 24 58 39 60 94 62 77 69 36 29 22 39 79 81 74 78 77 57
100 100 100 100 100 100 100 100 100 96 71 65 36 8 79 5 5 19 5 5 5 57 100 96 50 7 30 45 97 91 70 58 54 32 20 30 61 63 75 92 88 44 9 40

GFSNW_prec_cloud_123.txt.gz
Cloud_Cover
73 7 5 91 87 100 100 100 100 100 100 100 100 100 99 100 41 98 100 100 100 100 100 100 98 100 100 100 100 100 100 100 100 51 59 5 5 94 74 100 99 85 100 100
5 8 5 90 54 100 100 100 100 100 100 100 100 84 88 100 90 99 100 100 100 100 100 96 100 100 100 100 100 100 100 100 100 100 100 96 68 42 10 86 100 100 98 100
13 32 52 24 30 100 79 100 100 100 100 84 74 91 100 99 97 100 99 100 73 100 100 100 100 100 100 100 100 100 100 100 100 100 100 14 18 26 74 100 100 100 100 100
5 5 41 98 19 100 100 100 98 9 95 100 100 100 89 70 97 100 96 99 100 100 100 100 100 100 100 100 100 100 100 100 100 100 98 60 82 66 55 100 100 92 100 100
56 67 98 100 100 100 100 97 35 86 6 22 96 100 43 100 94 100 100 100 100 100 100 100 100 100 100 100 100 100 100 100 100 100 99 100 100 44 81 100 100 86 100 100
65 80 100 100 100 100 100 100 19 90 10 96 79 43 66 100 100 100 100 100 100 100 100 100 100 100 100 100 100 100 100 100 100 100 90 85 100 48 13 72 95 94 100 100
0 10 100 100 100 88 100 100 45 82 10 86 43 57 100 100 100 100 100 100 100 100 100 100 100 100 100 100 100 100 100 100 100 100 100 91 88 55 76 74 93 100 82 100
100 100 100 100 100 100 100 100 100 69 41 94 99 82 100 100 100 100 100 95 100 100 100 100 100 100 100 100 100 100 100 100 100 100 99 96 100 90 73 96 87 100 100 100
91 100 100 100 100 100 100 100 90 100 49 64 82 100 100 100 100 100 100 100 100 100 100 100 100 100 100 100 100 100 100 100 100 100 100 100 100 100 88 100 100 98 100 100
100 100 92 100 100 100 100 100 100 100 100 92 100 100 100 100 100 100 100 100 100 100 100 100 100 100 100 100 100 100 100 100 100 100 73 91 100 100 83 100 94 66 100 100
100 100 100 100 100 100 100 100 100 100 100 100 100 100 100 100 100 100 100 100 100 100 100 100 100 100 100 100 100 100 100 100 100 99 88 100 95 100 98 97 100 100 100 100
100 100 100 100 100 100 100 100 100 100 100 100 100 100 100 100 100 100 100 100 100 100 100 100 100 100 100 100 100 100 100 100 98 48 96 95 100 100 86 100 100 100 100 100
100 100 100 100 100 100 64 82 97 100 100 100 100 100 100 100 100 100 100 100 100 100 100 100 100 100 100 100 100 100 100 92 90 80 100 100 98 100 100 100 100 100 100 100
100 100 100 100 100 100 100 100 100 100 100 100 100 100 100 100 100 100 100 100 100 100 100 100 100 100 100 100 100 100 100 98 98 97 100 93 100 100 100 100 100 100 100 100
100 100 100 100 100 100 100 100 100 100 100 100 100 100 100 100 100 100 100 100 100 100 100 100 100 100 100 100 100 100 100 99 98 99 94 99 100 100 100 100 100 100 100 100
100 100 100 100 100 100 100 100 100 100 100 100 98 100 100 100 100 100 100 100 100 100 100 100 100 100 100 100 100 100 100 60 99 100 76 100 100 100 100 100 100 100 100 100
100 100 100 100 100 100 100 100 97 100 100 100 100 100 100 100 100 100 100 100 100 100 100 100 100 100 100 94 99 98 100 100 100 100 89 100 100 100 100 100 100 100 100 100
100 100 100 100 100 100 94 100 100 100 100 100 100 100 100 100 100 100 100 100 100 100 100 100 100 100 93 90 98 96 100 100 100 100 97 100 100 100 100 100 100 100 100 100
100 100 100 100 100 100 100 100 100 100 100 100 100 100 100 100 100 100 100 100 100 100 100 100 100 81 80 85 96 100 100 96 100 100 98 100 100 100 100 100 100 100 100 100
100 100 100 100 100 100 100 100 100 100 100 100 100 100 100 100 100 100 100 100 100 100 100 100 100 100 15 70 100 100 100 100 88 83 78 100 100 100 100 100 100 100 100 100
100 100 100 100 100 100 100 100 100 94 98 90 100 100 100 100 100 100 100 100 100 100 100 100 100 98 37 91 100 100 99 91 89 91 79 100 100 100 100 100 100 100 100 100
100 100 100 100 100 100 100 100 100 100 100 100 100 100 100 100 100 100 100 100 100 100 100 99 100 81 64 79 100 100 95 94 92 100 97 97 99 100 100 100 100 100 100 100
100 99 93 100 85 85 86 98 100 100 100 100 100 100 100 100 100 100 100 100 100 100 100 89 48 32 67 98 100 100 100 97 92 93 93 83 85 100 100 100 100 100 100 100
100 78 98 80 93 100 100 100 100 100 100 100 100 100 100 100 100 100 100 100 100 100 99 95 84 36 98 100 100 72 42 9 53 42 32 67 100 95 63 57 98 100 94 75
99 100 92 100 100 100 100 99 96 100 100 100 100 100 100 100 100 100 100 100 100 100 87 87 100 97 100 100 100 99 73 69 99 92 92 90 66 35 77 92 90 86 66 34
100 100 100 100 100 100 100 100 100 100 100 100 100 100 100 100 100 100 100 100 100 96 85 100 100 100 100 100 100 81 81 85 84 96 89 90 16 40 85 83 100 90 92 71
100 100 100 100 100 100 100 100 99 100 100 100 100 98 100 100 100 100 100 98 92 100 100 100 100 100 100 100 96 96 100 100 100 100 72 60 49 58 44 75 87 77 57 19

GFSNW_prec_cloud_126.txt.gz
Cloud_Cover
98 100 100 100 100 100 100 100 100 100 100 100 100 97 32 8 85 99 97 53 52 58 86 100 100 100 100 100 100 100 100 100 100 100 100 100 100 100 62 65 58 43 86 69
100 99 100 100 100 100 100 100 100 100 100 97 80 6 5 35 84 26 100 60 5 60 100 100 100 100 100 100 100 98 100 100 100 100 100 100 37 100 100 100 22 51 83 43
97 90 34 90 100 86 94 100 100 100 100 98 44 64 59 90 15 66 100 89 100 74 100 100 100 100 100 100 100 100 100 100 100 100 100 100 100 100 100 93 52 43 100 95
80 100 77 99 90 80 99 100 63 17 96 100 100 85 38 5 5 86 93 95 100 25 100 100 100 100 100 100 100 100 100 100 100 100 100 100 100 100 100 55 71 91 73 84
4 5 36 5 80 100 87 100 94 63 5 45 100 83 94 58 83 99 76 97 24 18 16 36 100 100 100 100 100 100 100 100 100 100 100 100 100 100 94 99 21 60 33 71
5 5 5 11 100 100 100 96 56 94 5 29 93 65 5 15 76 27 29 98 85 89 100 100 100 100 100 100 100 100 100 100 100 100 100 100 100 100 100 76 51 61 93 58
4 5 7 5 81 78 77 92 92 88 5 99 25 44 5 71 100 11 10 88 99 100 100 100 100 100 100 100 100 100 100 100 100 100 100 100 100 100 50 96 95 37 5 14
7 5 15 41 85 98 88 63 81 81 5 5 97 100 83 30 100 64 99 98 100 100 100 100 100 100 100 100 100 100 100 100 100 100 100 100 100 96 100 100 100 19 56 87
5 8 60 80 78 28 98 38 80 68 5 4 32 100 79 42 38 100 100 100 100 100 100 100 100 100 100 100 100 100 100 100 100 100 100 100 100 100 100 100 97 7 73 100
8 46 97 100 100 99 39 97 100 57 5 5 96 93 4 100 89 71 100 100 100 100 100 100 100 100 100 100 100 100 100 100 100 100 100 100 100 100 100 96 89 89 100 100
100 100 100 100 100 100 100 100 100 57 10 40 60 100 100 92 100 97 100 100 100 100 100 100 100 100 100 100 100 100 100 100 100 100 100 100 100 100 100 80 86 100 91 100
50 29 91 100 100 100 100 100 87 17 97 100 17 100 99 100 100 100 100 100 100 100 100 100 100 100 100 100 100 100 100 100 100 100 100 100 100 100 91 100 77 82 100 100
100 80 100 100 100 100 100 100 100 100 100 100 58 100 100 100 100 100 100 100 100 100 100 99 99 100 100 100 100 100 100 100 100 100 100 99 100 100 100 100 99 100 100 100
100 100 100 100 100 100 100 100 100 100 33 87 100 100 100 100 100 100 100 100 100 100 100 100 100 100 100 100 100 100 100 100 100 100 96 100 100 100 100 100 100 100 100 100
100 100 100 100 100 100 100 100 100 98 100 100 100 100 100 100 100 100 100 100 100 100 100 100 100 100 100 100 100 100 100 100 100 92 11 68 94 100 94 94 100 100 100 100
100 100 100 100 100 100 96 100 100 99 100 100 100 100 100 100 100 100 100 100 100 100 100 100 100 100 100 100 100 100 100 100 74 91 74 72 100 100 95 98 100 100 100 100
100 100 100 100 100 100 100 100 100 100 100 100 100 100 100 100 100 100 100 100 100 100 100 100 100 100 100 100 100 100 98 100 100 97 87 100 92 89 100 100 100 100 100 100
100 100 100 100 100 100 100 100 100 100 100 100 100 100 100 100 100 100 100 100 100 100 100 100 100 100 100 100 100 97 99 100 100 98 86 28 72 95 99 100 100 100 100 100
100 100 100 100 100 100 100 100 100 100 100 100 100 100 100 100 100 100 100 100 100 100 100 100 100 100 100 100 100 100 100 92 100 99 70 76 77 76 100 100 100 100 100 100
100 100 100 100 100 100 100 100 100 84 60 100 100 100 100 100 100 100 100 100 100 100 100 100 100 100 100 100 33 89 100 100 100 98 54 13 16 66 100 100 100 100 100 100
100 100 100 100 100 90 100 100 72 99 93 99 100 100 100 87 100 100 100 100 100 100 100 100 100 100 100 90 69 54 100 100 71 64 38 40 5 18 100 100 100 100 100 100
100 100 100 100 100 100 100 61 78 79 85 98 89 91 100 100 100 100 100 100 100 100 100 100 100 100 96 7 24 100 100 100 100 94 76 64 72 28 100 100 100 100 100 100
96 100 100 100 99 96 71 98 100 100 100 100 100 100 100 100 100 100 100 100 100 100 100 100 100 100 86 94 99 100 93 99 100 97 100 100 100 97 99 100 100 100 100 100
100 100 100 100 100 100 100 100 100 100 100 100 100 100 100 100 100 100 100 100 100 100 100 100 100 100 94 100 100 100 62 87 100 93 92 42 17 15 45 99 100 100 100 100
100 100 100 100 100 100 98 91 99 85 98 100 100 100 100 100 100 100 100 100 100 100 100 100 100 86 82 100 100 100 49 5 10 6 82 85 54 54 77 62 64 40 38 100
100 89 100 80 77 86 99 100 98 98 100 100 100 100 100 100 100 100 100 100 100 100 100 100 100 100 100 100 100 45 61 65 93 92 19 20 43 23 57 22 75 100 100 100
100 99 100 100 94 100 100 100 100 100 100 100 100 100 100 100 100 100 100 100 100 100 100 100 100 100 100 100 100 100 100 100 100 84 92 99 100 46 61 100 100 100 100 97

GFSNW_prec_cloud_129.txt.gz
Cloud_Cover
100 100 100 100 100 100 100 100 100 100 100 100 100 91 100 100 100 99 100 100 98 100 54 19 14 5 73 100 100 100 100 100 100 100 100 100 100 100 100 100 100 100 76 95
100 100 100 100 100 100 100 87 100 100 100 60 97 100 77 100 100 100 100 71 41 5 5 5 0 4 100 84 100 100 100 65 79 100 100 100 100 100 100 100 100 29 69 100
100 100 100 100 100 99 100 100 100 100 100 93 79 100 61 24 5 15 11 7 40 79 94 18 8 5 100 100 100 100 100 98 100 100 100 100 100 100 100 100 100 100 100 99
100 100 100 100 100 100 100 100 79 100 100 100 100 77 5 6 5 5 80 5 11 88 91 5 5 30 99 98 100 100 100 100 100 100 100 100 100 100 100 100 100 100 100 100
100 100 100 50 84 48 95 100 30 33 93 25 100 100 5 5 47 26 1 4 0 5 5 0 59 67 100 93 96 100 100 99 100 100 100 100 100 100 100 100 69 100 100 100
100 100 89 100 100 100 100 24 7 82 5 6 80 73 60 5 3 4 2 4 5 5 5 40 26 5 66 83 100 100 100 100 100 100 100 100 100 100 100 100 82 100 100 100
100 100 98 24 8 96 100 100 78 49 37 51 8 5 5 5 2 5 2 4 55 5 93 6 89 43 100 97 100 100 100 100 100 100 100 99 100 100 100 100 100 100 100 100
100 100 95 96 7 81 84 100 100 87 65 5 60 99 5 2 0 0 5 2 60 86 100 100 100 100 99 100 100 100 100 100 100 100 100 100 100 100 100 100 100 100 100 100
74 99 100 100 98 100 85 100 100 64 88 30 5 45 52 8 3 0 10 92 95 78 99 100 100 100 100 100 100 100 100 100 100 100 100 100 100 100 100 100 100 100 100 100
5 5 7 100 99 100 29 100 100 100 99 6 79 5 2 96 88 21 4 56 100 100 100 100 100 100 100 100 100 100 100 100 100 100 100 100 100 100 100 100 100 100 100 100
5 4 2 60 99 100 32 89 94 59 100 49 5 13 1 85 56 96 56 72 100 100 100 100 100 100 100 100 100 100 100 100 100 100 100 100 100 100 100 100 100 100 100 98
3 3 4 74 100 100 56 100 86 99 100 72 91 20 1 35 100 100 24 38 100 100 100 100 100 100 100 100 100 100 100 100 100 100 100 100 100 100 100 100 100 100 51 86
5 5 14 100 95 47 45 100 100 100 100 53 28 5 22 15 100 96 68 100 100 100 100 100 100 100 100 100 100 100 100 100 100 100 100 100 100 100 100 100 100 56 91 100
100 100 100 100 100 100 16 100 96 100 100 100 99 5 100 83 98 99 100 100 100 100 100 100 99 100 100 100 100 100 100 100 100 100 100 100 100 100 100 100 100 81 91 100
100 22 38 100 100 100 100 99 100 100 67 100 100 96 65 100 100 100 100 100 100 100 100 99 100 98 82 100 100 100 100 100 100 100 100 100 100 100 100 100 100 83 88 100
100 100 100 100 100 100 100 100 100 100 99 100 100 100 100 100 100 100 100 100 100 100 100 100 96 100 100 100 100 100 100 100 100 100 100 100 90 100 83 89 63 70 79 100
100 100 100 100 100 100 100 98 100 100 100 100 100 100 100 100 100 100 100 100 100 100 100 100 100 100 100 100 100 100 100 100 100 100 78 100 100 100 94 18 73 87 100 100
100 100 100 100 100 100 100 99 99 100 100 100 100 100 100 100 100 100 100 100 100 100 100 100 100 100 100 100 100 100 100 100 96 42 13 29 87 100 66 63 58 95 100 100
100 100 100 100 100 100 100 100 100 100 98 94 99 100 100 100 100 100 100 100 100 100 100 100 100 100 100 100 100 100 100 50 92 92 33 84 78 10 5 58 88 100 100 100
100 100 100 100 100 100 100 100 100 100 100 100 100 100 100 100 100 100 100 100 100 100 100 100 100 100 100 100 100 100 99 78 100 100 98 76 6 27 53 20 79 100 100 100
100 59 96 100 100 100 100 100 100 100 100 100 100 100 100 100 100 100 100 100 100 100 100 100 100 100 100 100 100 100 64 65 86 99 28 9 42 5 5 20 69 100 100 98
100 100 100 100 100 100 100 100 100 100 100 100 100 100 100 100 84 94 100 100 100 100 100 100 100 100 100 100 98 40 14 90 61 28 32 26 5 5 5 5 47 90 90 100
100 100 100 100 95 100 100 100 100 100 100 100 100 100 100 98 100 100 100 100 100 100 100 100 100 100 100 97 18 37 90 100 100 100 100 89 64 19 5 12 18 100 100 100
100 100 100 100 100 100 100 100 100 100 100 100 100 100 100 100 100 100 100 100 100 100 100 100 100 100 100 94 79 86 44 87 100 100 95 77 76 73 35 5 5 99 100 100
100 100 100 100 100 100 100 100 100 100 100 100 100 100 100 100 100 100 100 100 100 100 100 100 100 100 100 100 100 99 28 5 5 8 34 70 87 100 88 93 96 100 100 100
100 100 100 100 100 100 100 100 100 100 100 100 100 100 100 100 100 100 100 100 100 100 100 100 100 100 100 100 100 100 94 74 41 9 12 19 27 92 91 83 100 100 96 69
100 100 98 100 100 100 100 100 100 98 100 100 100 100 100 100 100 100 100 100 100 100 100 100 100 100 100 100 100 100 98 64 67 51 13 69 87 100 100 100 99 84 99 100

GFSNW_prec_cloud_132.txt.gz
Cloud_Cover
100 100 100 100 100 100 100 100 100 100 100 100 100 100 100 100 100 100 100 100 98 73 49 19 11 27 5 10 0 5 5 40 40 100 100 77 100 100 100 100 100 100 100 100
100 100 100 100 100 100 100 100 100 100 100 99 100 75 100 100 100 100 100 100 82 21 100 100 57 46 11 4 4 5 19 68 39 100 100 100 100 91 100 100 100 100 100 100
100 100 100 100 100 100 100 100 100 100 100 99 100 100 100 100 100 100 100 100 96 100 57 48 5 5 2 3 5 5 27 43 63 100 100 100 100 100 100 100 100 100 100 100
100 100 100 100 100 100 100 100 100 100 100 100 100 100 100 100 100 100 100 87 38 62 20 15 5 1 0 5 5 5 42 16 85 100 100 100 100 93 100 100 100 100 100 100
100 100 100 100 100 100 100 100 100 100 100 100 100 98 100 100 100 100 100 98 15 5 5 5 5 0 0 2 5 81 5 8 17 100 100 100 100 96 100 100 100 100 100 100
100 100 100 100 100 100 100 97 100 84 100 100 99 100 100 100 100 100 72 82 4 0 0 3 4 20 6 38 59 99 46 10 100 100 97 39 87 100 61 96 100 100 100 100
100 100 100 100 100 100 100 100 91 100 100 79 96 100 48 100 96 26 5 2 1 0 5 27 8 83 78 21 82 98 48 93 100 100 100 74 100 100 100 100 100 100 100 64
100 100 100 100 100 100 100 100 100 100 100 100 100 100 100 100 84 5 0 0 22 67 91 97 100 90 48 4 41 5 98 100 100 100 100 95 100 100 100 97 100 100 100 100
100 100 100 100 100 100 100 100 100 98 66 26 99 100 91 55 5 5 2 0 3 88 100 100 94 90 6 38 92 100 100 100 100 100 100 100 100 100 100 100 99 100 100 100
100 100 100 100 100 100 100 100 100 100 90 100 100 100 93 75 73 42 5 4 5 60 100 96 66 18 41 100 100 100 100 100 100 100 100 100 100 100 85 100 100 100 100 100
39 84 100 100 100 96 98 90 100 100 100 100 100 100 83 77 71 88 30 84 64 81 100 98 100 99 100 100 100 100 100 100 100 100 100 100 100 100 100 100 100 100 100 100
5 33 100 100 100 100 100 32 65 100 100 100 100 100 73 89 89 80 65 35 6 98 96 16 100 100 100 100 100 100 100 100 100 100 100 100 100 100 100 100 100 100 100 100
79 99 80 100 100 100 52 59 100 100 100 100 100 100 100 7 84 90 87 91 78 5 22 100 100 100 100 100 100 100 100 100 100 91 96 97 100 100 100 100 100 100 100 100
33 75 74 100 100 100 72 22 87 100 100 100 100 100 57 10 4 5 6 94 100 100 100 100 100 100 100 100 100 100 100 100 100 97 62 97 100 100 100 100 100 99 84 77
20 4 5 9 22 4 6 100 100 100 98 100 99 18 5 4 4 5 32 94 100 100 100 100 100 100 100 100 100 100 100 100 100 76 100 100 100 100 100 100 78 26 47 72
100 87 8 5 4 71 100 100 96 32 100 96 100 50 14 28 6 99 100 100 100 100 100 100 100 100 100 100 100 100 100 100 94 100 100 100 100 100 100 100 100 84 68 99
100 100 87 72 50 59 95 100 62 5 100 92 100 100 86 100 100 100 100 100 100 100 100 100 100 100 100 100 100 100 100 100 100 100 100 100 100 88 100 93 54 85 99 76
100 100 100 100 100 53 98 38 5 5 100 100 99 100 100 100 100 100 100 100 100 100 100 100 100 100 100 100 100 100 100 100 100 100 100 98 43 98 96 85 94 83 73 77
100 100 100 100 100 100 100 50 85 86 99 100 100 100 100 100 100 100 100 100 100 100 100 100 100 100 100 100 100 100 100 100 100 100 42 21 90 100 76 84 29 71 88 100
100 100 100 100 100 100 100 100 100 100 100 100 100 100 100 100 100 100 100 100 100 100 100 100 100 100 100 100 100 100 100 100 90 44 96 100 100 97 49 8 37 98 97 93
100 100 100 100 100 100 100 100 100 100 100 99 100 100 100 100 100 100 100 100 100 100 100 100 100 100 99 100 100 100 100 92 65 71 20 6 46 5 5 5 40 64 100 100
96 98 100 100 100 100 100 100 100 100 100 100 94 100 100 100 100 100 100 100 100 100 99 98 100 86 100 100 100 89 68 42 22 39 6 5 5 5 5 8 39 72 51 100
100 100 91 100 88 100 98 84 100 100 100 100 100 100 100 100 100 100 100 100 96 100 99 100 100 100 100 100 100 100 55 94 43 18 49 5 5 5 5 12 15 5 69 100
100 100 100 100 100 100 100 100 100 100 100 100 100 100 100 100 100 100 100 100 98 100 100 100 100 100 100 100 100 65 50 61 100 76 67 71 45 28 59 92 85 27 17 91
100 100 100 100 100 100 100 100 100 100 100 100 100 100 100 100 100 100 100 100 100 100 100 100 100 100 100 100 90 51 51 84 58 31 29 45 88 95 98 95 97 100 100 100
100 100 100 100 100 100 100 100 99 99 79 97 100 99 96 100 100 100 100 100 100 100 100 100 100 100 100 99 84 100 100 87 51 87 68 91 92 95 78 100 100 100 100 100
100 100 100 100 100 100 100 100 100 100 100 100 100 100 100 100 100 100 100 100 100 100 100 100 100 100 100 100 100 100 100 100 99 99 49 32 63 74 100 100 100 100 100 100

GFSNW_prec_cloud_135.txt.gz
Cloud_Cover
100 100 100 100 100 100 100 100 100 100 100 100 100 100 100 100 100 100 100 100 100 100 100 100 100 100 100 92 68 10 33 5 5 30 11 12 6 32 10 100 100 100 90 100
100 100 100 100 100 100 100 100 100 100 100 75 100 100 100 100 100 100 100 100 100 100 100 100 100 100 100 79 87 67 38 5 5 7 7 55 100 76 68 100 100 100 100 100
100 100 100 100 100 100 100 100 100 100 100 100 100 100 86 100 100 100 100 100 100 99 100 100 12 99 100 100 100 84 90 23 6 51 54 87 100 100 100 100 100 100 100 100
100 100 100 100 100 100 100 100 100 100 100 100 100 100 100 100 100 100 100 100 100 100 100 100 100 100 100 100 100 10 7 5 5 5 5 100 100 91 100 100 100 100 100 98
100 100 100 100 100 100 100 100 93 100 100 100 100 100 100 100 100 100 100 100 100 100 100 100 100 91 63 52 62 5 5 51 20 5 1 100 38 68 100 100 100 66 100 100
100 100 100 100 100 100 100 100 100 100 100 100 100 100 100 100 100 100 100 100 100 100 100 99 52 38 100 99 100 93 94 72 33 5 3 35 20 100 100 100 100 92 100 100
100 100 100 100 100 100 100 100 100 100 100 100 100 100 100 100 100 100 100 100 100 100 46 5 41 7 19 35 42 55 5 5 78 90 6 86 74 100 100 100 100 100 97 100
100 100 100 100 100 100 100 100 100 100 100 100 100 100 100 100 100 100 100 99 46 8 84 72 78 16 19 5 3 3 5 25 99 100 72 49 68 95 100 100 100 100 93 30
100 100 100 100 100 100 100 100 100 100 100 100 100 100 100 100 100 100 100 100 39 51 73 100 73 62 78 34 2 0 0 5 100 100 92 100 97 99 94 100 100 81 82 53
100 100 100 100 100 100 100 100 100 100 100 100 100 100 100 100 100 100 100 100 80 39 42 100 78 45 63 58 5 1 38 96 100 100 100 58 100 100 100 100 100 100 80 65
100 100 100 100 100 100 100 100 100 100 100 100 100 100 100 100 100 100 100 100 100 74 75 65 24 92 80 5 3 87 96 100 100 100 100 100 100 100 100 100 100 100 92 96
37 100 100 100 100 100 100 100 100 100 100 100 100 100 100 100 100 100 100 100 100 97 83 31 43 17 7 2 71 100 100 100 100 100 100 100 100 100 100 100 100 100 100 100
5 5 64 100 100 100 100 100 100 100 100 100 100 100 100 100 100 100 100 100 38 60 79 100 56 96 10 51 100 100 100 100 100 100 100 100 100 100 100 100 100 100 100 100
5 8 6 100 100 100 100 100 99 99 100 100 100 99 100 100 100 100 100 84 87 81 100 99 100 20 48 97 100 100 100 100 100 100 100 100 100 100 100 100 100 100 100 100
100 66 100 100 100 100 100 100 97 96 62 63 55 100 100 100 100 88 35 91 97 99 100 100 100 100 91 100 100 100 100 100 100 100 100 97 98 80 100 100 100 100 100 100
100 100 100 100 100 100 100 100 85 7 29 91 100 100 100 99 99 31 96 77 99 100 100 100 100 100 100 100 100 100 100 100 95 100 72 100 100 100 100 100 100 100 98 57
100 94 100 100 100 82 92 64 28 100 100 100 100 100 100 79 91 21 33 11 100 100 100 99 100 100 100 100 100 100 99 100 80 100 100 100 100 100 100 100 100 80 90 80
100 100 99 80 59 95 88 100 100 100 100 100 100 77 100 100 100 100 100 100 100 100 100 100 100 100 100 100 100 100 100 91 100 100 100 100 100 100 100 100 100 94 95 77
100 100 100 100 100 100 91 100 100 100 100 100 100 70 68 100 100 100 100 100 100 100 100 100 92 100 100 100 100 96 100 100 100 100 100 100 100 100 100 100 89 56 59 66
100 100 100 100 100 100 100 100 100 100 99 100 56 5 72 100 100 100 99 100 100 100 100 100 100 96 100 88 100 100 100 100 100 100 100 100 100 100 100 99 12 59 75 83
100 100 100 100 86 73 98 100 100 100 100 98 76 20 93 95 100 100 100 100 98 91 93 100 100 100 100 100 100 100 100 100 100 100 100 100 96 100 90 48 8 69 82 88
100 99 68 87 100 100 82 65 98 73 7 97 14 92 100 100 100 100 100 100 86 79 100 100 100 100 100 100 100 100 100 100 100 100 99 66 96 93 5 5 5 19 61 85
90 98 100 100 100 100 100 100 100 99 34 48 51 97 97 100 100 100 97 100 100 100 100 100 100 100 100 100 100 100 100 100 100 98 72 41 44 45 5 5 5 6 32 98
100 100 100 100 78 100 100 100 100 100 100 100 100 100 100 100 100 100 100 100 100 100 100 100 100 100 100 100 100 100 100 100 85 78 80 98 70 57 14 5 33 31 5 67
100 100 100 100 100 100 100 88 80 82 100 100 100 100 100 100 100 100 99 100 100 100 100 100 100 100 100 100 100 100 100 99 90 88 81 74 50 5 64 33 32 65 100 100
100 100 100 100 100 97 66 70 90 100 100 100 97 100 100 100 100 100 100 100 100 100 100 100 100 100 100 100 100 100 97 85 72 78 39 23 26 66 88 89 86 77 97 100
100 100 100 100 100 100 100 100 100 100 100 100 100 100 100 100 100 99 100 100 100 100 100 100 100 100 100 97 90 96 100 100 100 100 90 91 95 93 96 75 69 50 69 96

GFSNW_prec_cloud_138.txt.gz
Cloud_Cover
100 100 100 100 100 100 100 100 100 100 100 100 100 100 100 100 100 100 100 100 100 100 100 100 100 100 100 100 100 97 83 59 5 34 100 100 100 100 100 85 21 98 100 28
100 100 100 100 100 100 100 100 100 100 100 88 81 100 100 100 100 100 100 100 100 100 100 100 100 100 100 98 5 5 49 5 5 81 100 100 100 100 39 73 93 26 91 24
76 100 100 100 100 100 100 100 100 100 100 100 100 100 100 100 100 100 100 100 100 100 100 100 100 100 100 92 88 28 5 13 96 100 100 100 100 97 65 100 100 36 55 56
50 94 100 100 100 100 100 100 100 99 100 100 100 100 100 100 100 100 100 100 100 100 100 100 100 57 5 21 9 14 84 100 100 100 100 100 81 11 5 5 22 63 96 73
100 46 88 100 100 100 100 100 100 100 100 100 100 100 100 100 100 100 100 100 100 100 98 98 26 5 5 6 75 100 100 100 100 100 43 4 4 3 0 0 65 100 100 100
100 100 100 99 100 100 100 100 100 100 100 100 100 100 100 100 100 100 100 100 100 100 100 41 5 14 90 100 100 100 100 100 97 36 5 3 7 0 0 0 99 100 100 100
100 100 100 100 100 100 100 100 100 100 100 100 100 100 100 100 100 100 100 100 100 100 91 81 100 100 100 100 99 65 32 66 87 87 32 90 0 0 1 5 51 100 100 100
100 100 100 100 100 100 100 100 100 100 100 100 100 100 100 100 100 100 100 100 100 100 100 100 100 100 87 100 99 42 36 7 96 100 68 5 1 5 5 5 98 100 100 100
100 100 100 100 100 100 100 75 100 100 100 100 100 100 100 100 100 100 100 100 100 100 100 99 10 47 26 5 82 60 4 54 96 99 100 100 5 100 82 38 100 100 67 98
100 100 100 100 100 100 100 100 62 100 100 100 100 100 100 100 100 100 100 100 100 100 100 99 80 79 82 5 5 5 5 14 54 70 100 69 92 100 82 97 96 79 24 97
100 100 100 100 100 100 100 100 100 99 100 100 100 100 100 100 100 100 100 100 100 100 100 100 89 61 5 5 5 5 29 82 34 75 100 100 100 87 100 92 94 99 100 100
100 100 100 100 100 100 100 100 100 100 100 100 100 100 100 100 100 100 100 100 100 100 100 99 15 48 5 5 5 0 5 2 51 64 100 100 100 100 100 100 100 100 100 100
100 100 100 100 100 100 100 100 100 100 100 100 100 100 100 100 100 100 100 100 100 100 100 100 100 94 32 14 5 5 5 12 80 100 100 100 100 100 100 100 100 100 100 100
30 100 100 100 100 100 100 100 100 100 100 100 100 100 100 100 100 100 100 100 100 100 83 100 100 84 50 54 5 5 20 90 100 100 100 100 100 100 100 100 100 100 100 100
2 46 100 100 100 100 100 100 100 100 100 100 100 100 100 100 100 100 99 100 100 100 99 100 87 28 91 56 55 93 67 100 100 100 100 100 100 100 100 100 100 100 100 100
5 5 5 89 100 100 100 100 100 100 100 100 100 100 100 100 99 99 80 100 100 14 67 100 99 43 89 100 77 100 100 100 100 100 100 100 100 100 97 100 100 100 100 100
100 100 100 73 94 100 100 100 75 41 85 100 97 98 100 100 84 87 74 36 95 100 100 100 100 91 100 100 100 100 100 100 100 100 100 100 100 100 100 100 100 100 100 100
100 100 100 100 100 100 100 100 96 100 48 100 98 27 92 28 100 98 100 100 100 100 83 100 90 100 100 100 100 100 100 83 100 100 100 100 100 100 100 100 100 100 100 100
100 100 100 100 100 100 100 100 100 100 96 31 61 93 98 100 100 100 100 100 100 100 100 100 100 96 100 100 100 96 100 100 100 100 100 100 100 100 100 100 100 100 100 99
100 100 100 100 100 100 100 100 97 100 98 70 84 100 100 100 100 100 100 100 99 100 90 93 75 100 100 100 100 100 100 100 100 100 100 100 100 100 100 100 100 100 100 66
100 100 100 100 100 100 100 100 93 99 100 100 100 100 100 100 97 96 100 100 99 89 40 98 95 100 100 100 100 100 100 100 100 100 100 100 100 100 100 100 100 97 62 64
78 21 94 95 100 100 100 62 51 86 100 100 73 65 63 82 100 100 100 100 100 88 72 99 100 100 90 97 100 100 100 100 100 100 100 100 100 100 100 100 99 66 26 48
93 100 100 96 72 99 44 45 72 95 100 54 5 23 83 87 82 100 100 98 97 100 100 100 100 85 100 100 100 100 100 100 100 100 100 100 100 100 100 99 73 50 17 16
61 88 97 43 71 32 5 5 5 5 48 5 4 77 60 100 100 100 100 100 100 100 100 100 100 100 100 100 100 100 100 100 100 100 100 100 100 94 96 86 68 62 64 12
100 89 22 54 16 45 37 20 9 11 97 39 72 98 100 100 100 100 100 100 100 100 100 100 100 100 100 100 100 100 100 100 100 100 100 100 100 76 76 69 77 59 80 85
100 99 86 99 95 89 98 93 73 100 100 100 99 100 100 100 100 100 100 100 100 100 100 100 100 100 100 100 100 100 100 100 100 100 100 87 67 66 72 90 94 94 100 95
100 100 100 100 100 100 100 100 100 99 99 99 100 100 100 100 100 100 100 100 100 100 100 100 100 100 100 100 100 100 100 100 100 96 84 96 83 76 74 90 87 98 96 89

GFSNW_prec_cloud_141.txt.gz
Cloud_Cover
100 100 100 100 100 100 100 100 100 100 100 100 100 100 100 100 100 100 100 100 100 100 100 100 100 100 100 100 100 100 100 99 100 74 92 100 100 100 100 100 69 97 84 37
100 100 100 100 100 100 100 100 100 100 100 100 100 100 100 100 100 100 100 100 100 100 100 100 100 100 100 100 100 100 100 100 59 46 79 96 99 100 99 100 100 100 100 97
100 100 100 100 100 100 100 100 86 100 100 100 100 100 100 100 100 100 100 100 100 100 100 100 100 100 73 70 99 100 86 75 6 13 5 5 10 22 73 100 100 100 94 5
100 99 97 100 100 100 100 100 86 90 93 100 100 100 100 100 100 100 100 100 100 100 100 100 100 100 100 100 100 100 98 87 7 5 5 4 10 79 100 100 100 64 50 5
100 100 100 100 100 100 100 100 57 71 83 83 100 100 100 100 100 100 100 100 100 100 100 100 100 100 100 100 100 100 100 97 80 5 5 30 100 100 59 5 5 5 5 2
100 100 100 100 100 100 100 100 100 100 100 100 100 59 100 100 100 100 100 100 100 100 100 100 100 85 100 100 100 100 100 59 55 8 97 100 5 5 5 5 5 4 4 0
100 100 100 100 100 100 100 100 100 100 100 100 100 100 100 100 100 100 100 100 100 100 100 67 74 48 93 100 100 100 100 100 82 100 94 64 5 5 9 2 0 4 5 5
100 100 100 100 100 100 100 100 100 100 100 100 100 100 100 100 100 100 100 100 100 23 57 79 44 83 98 100 100 100 100 100 100 100 98 8 20 2 1 4 3 100 99 8
100 100 100 100 100 100 100 100 100 100 100 100 100 100 100 100 100 100 100 100 100 87 100 100 100 100 100 100 100 100 100 98 100 100 100 88 0 2 6 18 8 99 89 98
100 100 100 100 100 100 100 100 100 100 100 100 100 100 100 100 100 100 100 100 100 100 100 100 100 100 100 100 100 96 100 71 71 64 100 46 0 5 76 98 62 18 89 100
100 100 100 100 100 100 100 100 100 100 100 100 100 100 100 100 100 100 100 100 100 100 100 100 100 100 100 100 45 98 51 6 35 85 98 49 5 70 100 96 100 94 100 100
100 85 74 100 100 100 100 100 100 100 100 100 100 100 100 100 100 100 100 100 100 100 100 100 100 100 100 58 57 43 7 1 32 65 5 18 93 100 100 100 100 100 100 100
100 80 1 94 100 100 100 100 100 100 100 100 100 100 100 100 100 100 100 100 100 100 100 100 100 99 99 84 9 5 5 5 18 36 10 75 100 100 100 100 100 100 100 100
68 100 100 100 100 100 100 100 100 100 100 100 100 100 100 100 100 100 100 100 100 99 89 91 96 96 60 9 9 11 1 4 5 5 5 100 100 100 100 100 100 100 100 100
100 100 8 73 100 100 100 100 100 100 100 100 100 100 100 100 100 100 100 100 78 76 90 97 97 53 79 15 47 7 4 5 5 92 36 100 100 100 100 100 100 100 100 100
98 94 14 5 77 100 100 100 100 100 100 100 100 100 100 100 100 100 100 100 100 71 72 100 94 46 20 98 40 4 1 33 55 86 100 100 98 100 100 100 100 100 100 100
27 5 4 0 38 100 100 100 100 100 100 100 100 100 100 100 99 96 100 96 88 76 30 98 72 68 96 71 48 3 64 27 97 95 100 100 100 100 100 100 100 100 100 100
67 32 3 6 100 100 100 100 100 100 100 100 100 100 100 100 99 82 82 89 91 60 87 90 76 91 95 89 2 86 53 56 100 100 100 100 100 100 100 100 100 100 100 100
99 100 100 100 100 100 100 100 100 100 100 100 99 100 100 100 99 100 100 100 100 17 89 76 54 35 82 5 57 16 66 100 100 100 100 100 100 100 100 100 100 100 100 100
100 100 100 100 100 100 100 100 100 100 100 14 20 90 98 42 85 97 100 100 100 99 100 99 100 34 1 1 5 100 100 92 100 100 100 100 100 100 100 100 100 100 100 100
100 100 100 100 100 100 100 100 100 97 100 79 5 5 15 46 100 100 100 99 77 90 100 85 83 24 13 98 95 43 100 100 100 100 100 100 100 100 100 100 100 100 100 100
88 63 100 100 100 100 100 95 64 67 5 66 99 21 2 70 86 100 100 100 100 100 94 100 100 48 100 100 100 100 100 95 99 100 100 100 100 100 100 100 100 100 100 100
100 99 89 23 42 96 90 98 90 50 45 11 27 53 11 98 100 100 100 100 100 96 99 100 87 100 26 100 100 87 99 100 100 100 100 100 100 100 100 100 100 100 100 100
94 75 96 5 70 48 75 6 72 100 100 100 58 85 100 100 49 100 100 100 100 97 100 100 86 99 100 100 99 100 100 100 100 100 100 100 100 100 100 100 100 100 97 62
98 100 12 61 5 24 83 99 82 100 100 100 100 99 86 70 74 84 94 100 100 100 100 94 100 100 100 100 100 100 100 100 100 100 100 100 100 100 100 100 100 94 50 18
99 96 60 37 16 94 98 96 97 63 100 100 100 93 100 88 100 100 100 100 100 100 98 81 100 100 100 100 100 100 100 100 100 100 100 100 100 100 100 100 100 74 89 68
100 100 96 31 29 62 72 76 73 71 94 100 100 100 100 100 100 100 100 100 100 100 100 100 100 100 100 100 100 100 100 100 100 100 100 100 100 100 100 100 65 67 63 75